<?xml version="1.0" encoding="UTF-8" standalone="no" ?>
<gpx xmlns="http://www.topografix.com/GPX/1/1" xmlns:xsi="http://www.w3.org/2001/XMLSchema-instance" xsi:schemaLocation="http://www.topografix.com/GPX/1/1 http://www.topografix.com/GPX/1/1/gpx.xsd" version="1.1" creator="VisuGPX - https://www.visugpx.com">
  <metadata>
    <name>Chaussan-Cornavent-Chapelle</name>
    <desc><![CDATA[Quel panorama !]]></desc>
  </metadata>
  <trk>
    <name><![CDATA[Chaussan-Cornavent-Chapelle]]></name>
    <cmt><![CDATA[Avec Robert]]></cmt>
    <trkseg>
      <trkpt lat="45.62209" lon="4.63911">
        <ele>504.8</ele>
        <time>2015-04-23T06:51:23Z</time>
      </trkpt>
      <trkpt lat="45.62209" lon="4.63911">
        <ele>516.9</ele>
        <time>2015-04-23T06:51:25Z</time>
      </trkpt>
      <trkpt lat="45.62213" lon="4.63912">
        <ele>515</ele>
        <time>2015-04-23T06:51:30Z</time>
      </trkpt>
      <trkpt lat="45.62218" lon="4.63913">
        <ele>512.3</ele>
        <time>2015-04-23T06:51:36Z</time>
      </trkpt>
      <trkpt lat="45.62228" lon="4.6391">
        <ele>510</ele>
        <time>2015-04-23T06:51:47Z</time>
      </trkpt>
      <trkpt lat="45.62238" lon="4.63913">
        <ele>507.1</ele>
        <time>2015-04-23T06:52:02Z</time>
      </trkpt>
      <trkpt lat="45.62242" lon="4.63917">
        <ele>507</ele>
        <time>2015-04-23T06:52:05Z</time>
      </trkpt>
      <trkpt lat="45.62247" lon="4.6392">
        <ele>507</ele>
        <time>2015-04-23T06:52:08Z</time>
      </trkpt>
      <trkpt lat="45.62252" lon="4.63921">
        <ele>506.1</ele>
        <time>2015-04-23T06:52:12Z</time>
      </trkpt>
      <trkpt lat="45.62266" lon="4.63923">
        <ele>506</ele>
        <time>2015-04-23T06:52:19Z</time>
      </trkpt>
      <trkpt lat="45.6228" lon="4.63919">
        <ele>506</ele>
        <time>2015-04-23T06:52:26Z</time>
      </trkpt>
      <trkpt lat="45.62295" lon="4.63919">
        <ele>505.2</ele>
        <time>2015-04-23T06:52:37Z</time>
      </trkpt>
      <trkpt lat="45.62299" lon="4.63916">
        <ele>505</ele>
        <time>2015-04-23T06:52:40Z</time>
      </trkpt>
      <trkpt lat="45.62296" lon="4.6391">
        <ele>505</ele>
        <time>2015-04-23T06:52:48Z</time>
      </trkpt>
      <trkpt lat="45.62299" lon="4.63905">
        <ele>505</ele>
        <time>2015-04-23T06:52:55Z</time>
      </trkpt>
      <trkpt lat="45.62304" lon="4.63898">
        <ele>504.2</ele>
        <time>2015-04-23T06:52:59Z</time>
      </trkpt>
      <trkpt lat="45.62306" lon="4.63892">
        <ele>504.2</ele>
        <time>2015-04-23T06:53:03Z</time>
      </trkpt>
      <trkpt lat="45.62317" lon="4.63879">
        <ele>504</ele>
        <time>2015-04-23T06:53:12Z</time>
      </trkpt>
      <trkpt lat="45.62323" lon="4.63871">
        <ele>504</ele>
        <time>2015-04-23T06:53:18Z</time>
      </trkpt>
      <trkpt lat="45.62324" lon="4.63858">
        <ele>504</ele>
        <time>2015-04-23T06:53:26Z</time>
      </trkpt>
      <trkpt lat="45.62327" lon="4.6385">
        <ele>504</ele>
        <time>2015-04-23T06:53:29Z</time>
      </trkpt>
      <trkpt lat="45.62335" lon="4.63842">
        <ele>504</ele>
        <time>2015-04-23T06:53:34Z</time>
      </trkpt>
      <trkpt lat="45.62339" lon="4.63838">
        <ele>504</ele>
        <time>2015-04-23T06:53:37Z</time>
      </trkpt>
      <trkpt lat="45.62344" lon="4.63832">
        <ele>504</ele>
        <time>2015-04-23T06:53:40Z</time>
      </trkpt>
      <trkpt lat="45.62348" lon="4.63826">
        <ele>504</ele>
        <time>2015-04-23T06:53:43Z</time>
      </trkpt>
      <trkpt lat="45.62352" lon="4.63816">
        <ele>504</ele>
        <time>2015-04-23T06:53:48Z</time>
      </trkpt>
      <trkpt lat="45.62354" lon="4.63804">
        <ele>504</ele>
        <time>2015-04-23T06:53:52Z</time>
      </trkpt>
      <trkpt lat="45.62353" lon="4.63796">
        <ele>504</ele>
        <time>2015-04-23T06:53:56Z</time>
      </trkpt>
      <trkpt lat="45.6235" lon="4.63789">
        <ele>506.9</ele>
        <time>2015-04-23T06:54:03Z</time>
      </trkpt>
      <trkpt lat="45.62347" lon="4.63794">
        <ele>507</ele>
        <time>2015-04-23T06:54:14Z</time>
      </trkpt>
      <trkpt lat="45.62345" lon="4.63787">
        <ele>507</ele>
        <time>2015-04-23T06:54:18Z</time>
      </trkpt>
      <trkpt lat="45.62345" lon="4.63768">
        <ele>507</ele>
        <time>2015-04-23T06:54:29Z</time>
      </trkpt>
      <trkpt lat="45.6235" lon="4.63761">
        <ele>507</ele>
        <time>2015-04-23T06:54:35Z</time>
      </trkpt>
      <trkpt lat="45.62353" lon="4.63756">
        <ele>507</ele>
        <time>2015-04-23T06:54:37Z</time>
      </trkpt>
      <trkpt lat="45.62355" lon="4.6375">
        <ele>507</ele>
        <time>2015-04-23T06:54:39Z</time>
      </trkpt>
      <trkpt lat="45.62357" lon="4.63737">
        <ele>507</ele>
        <time>2015-04-23T06:54:44Z</time>
      </trkpt>
      <trkpt lat="45.6236" lon="4.6373">
        <ele>507</ele>
        <time>2015-04-23T06:54:47Z</time>
      </trkpt>
      <trkpt lat="45.62364" lon="4.63724">
        <ele>507</ele>
        <time>2015-04-23T06:54:50Z</time>
      </trkpt>
      <trkpt lat="45.62366" lon="4.63717">
        <ele>507</ele>
        <time>2015-04-23T06:54:53Z</time>
      </trkpt>
      <trkpt lat="45.62365" lon="4.6371">
        <ele>506.1</ele>
        <time>2015-04-23T06:54:57Z</time>
      </trkpt>
      <trkpt lat="45.62369" lon="4.63705">
        <ele>506.1</ele>
        <time>2015-04-23T06:55:00Z</time>
      </trkpt>
      <trkpt lat="45.62371" lon="4.63699">
        <ele>506</ele>
        <time>2015-04-23T06:55:04Z</time>
      </trkpt>
      <trkpt lat="45.62371" lon="4.63692">
        <ele>506</ele>
        <time>2015-04-23T06:55:14Z</time>
      </trkpt>
      <trkpt lat="45.62376" lon="4.63688">
        <ele>506</ele>
        <time>2015-04-23T06:55:18Z</time>
      </trkpt>
      <trkpt lat="45.62385" lon="4.63684">
        <ele>506</ele>
        <time>2015-04-23T06:55:25Z</time>
      </trkpt>
      <trkpt lat="45.62395" lon="4.63682">
        <ele>506</ele>
        <time>2015-04-23T06:55:30Z</time>
      </trkpt>
      <trkpt lat="45.62406" lon="4.6367">
        <ele>506</ele>
        <time>2015-04-23T06:55:38Z</time>
      </trkpt>
      <trkpt lat="45.6241" lon="4.63665">
        <ele>506.9</ele>
        <time>2015-04-23T06:55:41Z</time>
      </trkpt>
      <trkpt lat="45.62415" lon="4.63654">
        <ele>507</ele>
        <time>2015-04-23T06:55:49Z</time>
      </trkpt>
      <trkpt lat="45.62421" lon="4.63642">
        <ele>507</ele>
        <time>2015-04-23T06:55:55Z</time>
      </trkpt>
      <trkpt lat="45.62425" lon="4.63632">
        <ele>510.4</ele>
        <time>2015-04-23T06:55:59Z</time>
      </trkpt>
      <trkpt lat="45.62427" lon="4.63621">
        <ele>511</ele>
        <time>2015-04-23T06:56:05Z</time>
      </trkpt>
      <trkpt lat="45.62428" lon="4.63614">
        <ele>511.9</ele>
        <time>2015-04-23T06:56:09Z</time>
      </trkpt>
      <trkpt lat="45.62428" lon="4.63607">
        <ele>512.7</ele>
        <time>2015-04-23T06:56:13Z</time>
      </trkpt>
      <trkpt lat="45.62432" lon="4.63594">
        <ele>513</ele>
        <time>2015-04-23T06:56:21Z</time>
      </trkpt>
      <trkpt lat="45.62438" lon="4.63575">
        <ele>514.9</ele>
        <time>2015-04-23T06:56:29Z</time>
      </trkpt>
      <trkpt lat="45.62441" lon="4.63556">
        <ele>517</ele>
        <time>2015-04-23T06:56:40Z</time>
      </trkpt>
      <trkpt lat="45.62441" lon="4.63548">
        <ele>517</ele>
        <time>2015-04-23T06:56:44Z</time>
      </trkpt>
      <trkpt lat="45.6244" lon="4.63541">
        <ele>517.8</ele>
        <time>2015-04-23T06:56:48Z</time>
      </trkpt>
      <trkpt lat="45.62442" lon="4.63529">
        <ele>518.5</ele>
        <time>2015-04-23T06:56:54Z</time>
      </trkpt>
      <trkpt lat="45.62446" lon="4.6351">
        <ele>519</ele>
        <time>2015-04-23T06:57:06Z</time>
      </trkpt>
      <trkpt lat="45.62444" lon="4.63498">
        <ele>519</ele>
        <time>2015-04-23T06:57:15Z</time>
      </trkpt>
      <trkpt lat="45.62445" lon="4.63491">
        <ele>519</ele>
        <time>2015-04-23T06:57:19Z</time>
      </trkpt>
      <trkpt lat="45.62448" lon="4.63485">
        <ele>519</ele>
        <time>2015-04-23T06:57:22Z</time>
      </trkpt>
      <trkpt lat="45.62451" lon="4.6348">
        <ele>519</ele>
        <time>2015-04-23T06:57:25Z</time>
      </trkpt>
      <trkpt lat="45.62459" lon="4.63475">
        <ele>519</ele>
        <time>2015-04-23T06:57:30Z</time>
      </trkpt>
      <trkpt lat="45.62462" lon="4.6347">
        <ele>519</ele>
        <time>2015-04-23T06:57:34Z</time>
      </trkpt>
      <trkpt lat="45.62469" lon="4.63459">
        <ele>519</ele>
        <time>2015-04-23T06:57:41Z</time>
      </trkpt>
      <trkpt lat="45.62478" lon="4.63445">
        <ele>519</ele>
        <time>2015-04-23T06:57:51Z</time>
      </trkpt>
      <trkpt lat="45.62493" lon="4.63441">
        <ele>520.9</ele>
        <time>2015-04-23T06:57:58Z</time>
      </trkpt>
      <trkpt lat="45.62508" lon="4.63444">
        <ele>522</ele>
        <time>2015-04-23T06:58:06Z</time>
      </trkpt>
      <trkpt lat="45.62518" lon="4.63449">
        <ele>522</ele>
        <time>2015-04-23T06:58:11Z</time>
      </trkpt>
      <trkpt lat="45.62527" lon="4.63451">
        <ele>522.9</ele>
        <time>2015-04-23T06:58:21Z</time>
      </trkpt>
      <trkpt lat="45.62532" lon="4.63453">
        <ele>523</ele>
        <time>2015-04-23T06:58:26Z</time>
      </trkpt>
      <trkpt lat="45.62538" lon="4.63456">
        <ele>523</ele>
        <time>2015-04-23T06:58:32Z</time>
      </trkpt>
      <trkpt lat="45.62544" lon="4.6346">
        <ele>523</ele>
        <time>2015-04-23T06:58:36Z</time>
      </trkpt>
      <trkpt lat="45.62547" lon="4.63465">
        <ele>523</ele>
        <time>2015-04-23T06:58:40Z</time>
      </trkpt>
      <trkpt lat="45.62554" lon="4.63476">
        <ele>523</ele>
        <time>2015-04-23T06:58:48Z</time>
      </trkpt>
      <trkpt lat="45.62558" lon="4.6348">
        <ele>523</ele>
        <time>2015-04-23T06:58:52Z</time>
      </trkpt>
      <trkpt lat="45.62563" lon="4.63482">
        <ele>522.1</ele>
        <time>2015-04-23T06:58:56Z</time>
      </trkpt>
      <trkpt lat="45.62571" lon="4.63487">
        <ele>521.1</ele>
        <time>2015-04-23T06:59:04Z</time>
      </trkpt>
      <trkpt lat="45.62583" lon="4.63499">
        <ele>521</ele>
        <time>2015-04-23T06:59:16Z</time>
      </trkpt>
      <trkpt lat="45.62586" lon="4.63503">
        <ele>520.1</ele>
        <time>2015-04-23T06:59:20Z</time>
      </trkpt>
      <trkpt lat="45.62589" lon="4.63509">
        <ele>517</ele>
        <time>2015-04-23T06:59:24Z</time>
      </trkpt>
      <trkpt lat="45.6259" lon="4.63518">
        <ele>516</ele>
        <time>2015-04-23T06:59:28Z</time>
      </trkpt>
      <trkpt lat="45.62592" lon="4.63524">
        <ele>516</ele>
        <time>2015-04-23T06:59:31Z</time>
      </trkpt>
      <trkpt lat="45.62598" lon="4.63536">
        <ele>515</ele>
        <time>2015-04-23T06:59:38Z</time>
      </trkpt>
      <trkpt lat="45.62601" lon="4.63542">
        <ele>515</ele>
        <time>2015-04-23T06:59:42Z</time>
      </trkpt>
      <trkpt lat="45.62611" lon="4.63558">
        <ele>514.1</ele>
        <time>2015-04-23T06:59:53Z</time>
      </trkpt>
      <trkpt lat="45.62613" lon="4.63567">
        <ele>514</ele>
        <time>2015-04-23T06:59:56Z</time>
      </trkpt>
      <trkpt lat="45.62613" lon="4.63579">
        <ele>514</ele>
        <time>2015-04-23T07:00:01Z</time>
      </trkpt>
      <trkpt lat="45.6262" lon="4.63596">
        <ele>513</ele>
        <time>2015-04-23T07:00:13Z</time>
      </trkpt>
      <trkpt lat="45.62623" lon="4.63601">
        <ele>513</ele>
        <time>2015-04-23T07:00:17Z</time>
      </trkpt>
      <trkpt lat="45.62627" lon="4.63613">
        <ele>512</ele>
        <time>2015-04-23T07:00:26Z</time>
      </trkpt>
      <trkpt lat="45.62628" lon="4.6362">
        <ele>512</ele>
        <time>2015-04-23T07:00:30Z</time>
      </trkpt>
      <trkpt lat="45.6263" lon="4.63626">
        <ele>512</ele>
        <time>2015-04-23T07:00:35Z</time>
      </trkpt>
      <trkpt lat="45.62635" lon="4.6364">
        <ele>511</ele>
        <time>2015-04-23T07:00:42Z</time>
      </trkpt>
      <trkpt lat="45.62639" lon="4.63645">
        <ele>510.3</ele>
        <time>2015-04-23T07:00:46Z</time>
      </trkpt>
      <trkpt lat="45.62641" lon="4.63652">
        <ele>508.6</ele>
        <time>2015-04-23T07:00:49Z</time>
      </trkpt>
      <trkpt lat="45.62646" lon="4.63665">
        <ele>508</ele>
        <time>2015-04-23T07:00:54Z</time>
      </trkpt>
      <trkpt lat="45.62649" lon="4.6367">
        <ele>508</ele>
        <time>2015-04-23T07:00:57Z</time>
      </trkpt>
      <trkpt lat="45.62653" lon="4.63676">
        <ele>506.6</ele>
        <time>2015-04-23T07:01:02Z</time>
      </trkpt>
      <trkpt lat="45.62656" lon="4.63692">
        <ele>505.3</ele>
        <time>2015-04-23T07:01:10Z</time>
      </trkpt>
      <trkpt lat="45.62658" lon="4.63698">
        <ele>504.1</ele>
        <time>2015-04-23T07:01:15Z</time>
      </trkpt>
      <trkpt lat="45.62661" lon="4.63705">
        <ele>503</ele>
        <time>2015-04-23T07:01:20Z</time>
      </trkpt>
      <trkpt lat="45.62664" lon="4.6371">
        <ele>503</ele>
        <time>2015-04-23T07:01:23Z</time>
      </trkpt>
      <trkpt lat="45.62668" lon="4.63716">
        <ele>502.3</ele>
        <time>2015-04-23T07:01:27Z</time>
      </trkpt>
      <trkpt lat="45.6267" lon="4.63728">
        <ele>501</ele>
        <time>2015-04-23T07:01:34Z</time>
      </trkpt>
      <trkpt lat="45.6267" lon="4.63737">
        <ele>500.1</ele>
        <time>2015-04-23T07:01:39Z</time>
      </trkpt>
      <trkpt lat="45.62669" lon="4.63745">
        <ele>498.8</ele>
        <time>2015-04-23T07:01:42Z</time>
      </trkpt>
      <trkpt lat="45.6267" lon="4.63752">
        <ele>498.8</ele>
        <time>2015-04-23T07:01:45Z</time>
      </trkpt>
      <trkpt lat="45.62677" lon="4.63769">
        <ele>495.3</ele>
        <time>2015-04-23T07:01:54Z</time>
      </trkpt>
      <trkpt lat="45.62683" lon="4.63777">
        <ele>492.3</ele>
        <time>2015-04-23T07:02:01Z</time>
      </trkpt>
      <trkpt lat="45.62686" lon="4.63783">
        <ele>492</ele>
        <time>2015-04-23T07:02:05Z</time>
      </trkpt>
      <trkpt lat="45.6269" lon="4.63788">
        <ele>490.4</ele>
        <time>2015-04-23T07:02:09Z</time>
      </trkpt>
      <trkpt lat="45.62694" lon="4.63791">
        <ele>487.7</ele>
        <time>2015-04-23T07:02:13Z</time>
      </trkpt>
      <trkpt lat="45.62703" lon="4.63797">
        <ele>484.6</ele>
        <time>2015-04-23T07:02:21Z</time>
      </trkpt>
      <trkpt lat="45.627" lon="4.63811">
        <ele>483.6</ele>
        <time>2015-04-23T07:02:25Z</time>
      </trkpt>
      <trkpt lat="45.62701" lon="4.63817">
        <ele>482.1</ele>
        <time>2015-04-23T07:02:28Z</time>
      </trkpt>
      <trkpt lat="45.62714" lon="4.63818">
        <ele>479.1</ele>
        <time>2015-04-23T07:02:41Z</time>
      </trkpt>
      <trkpt lat="45.62722" lon="4.63821">
        <ele>478.1</ele>
        <time>2015-04-23T07:02:48Z</time>
      </trkpt>
      <trkpt lat="45.62726" lon="4.63824">
        <ele>478.1</ele>
        <time>2015-04-23T07:02:52Z</time>
      </trkpt>
      <trkpt lat="45.62732" lon="4.63825">
        <ele>474.3</ele>
        <time>2015-04-23T07:03:03Z</time>
      </trkpt>
      <trkpt lat="45.62737" lon="4.63826">
        <ele>470.5</ele>
        <time>2015-04-23T07:03:07Z</time>
      </trkpt>
      <trkpt lat="45.62741" lon="4.63831">
        <ele>470</ele>
        <time>2015-04-23T07:03:13Z</time>
      </trkpt>
      <trkpt lat="45.62744" lon="4.63838">
        <ele>470</ele>
        <time>2015-04-23T07:03:17Z</time>
      </trkpt>
      <trkpt lat="45.62746" lon="4.63845">
        <ele>469.1</ele>
        <time>2015-04-23T07:03:21Z</time>
      </trkpt>
      <trkpt lat="45.62751" lon="4.63847">
        <ele>469</ele>
        <time>2015-04-23T07:03:26Z</time>
      </trkpt>
      <trkpt lat="45.62755" lon="4.63852">
        <ele>469</ele>
        <time>2015-04-23T07:03:30Z</time>
      </trkpt>
      <trkpt lat="45.62763" lon="4.63856">
        <ele>469</ele>
        <time>2015-04-23T07:03:38Z</time>
      </trkpt>
      <trkpt lat="45.6277" lon="4.63854">
        <ele>469</ele>
        <time>2015-04-23T07:03:44Z</time>
      </trkpt>
      <trkpt lat="45.62775" lon="4.63855">
        <ele>469</ele>
        <time>2015-04-23T07:03:48Z</time>
      </trkpt>
      <trkpt lat="45.62779" lon="4.63857">
        <ele>467.3</ele>
        <time>2015-04-23T07:03:52Z</time>
      </trkpt>
      <trkpt lat="45.62783" lon="4.63861">
        <ele>467.3</ele>
        <time>2015-04-23T07:03:56Z</time>
      </trkpt>
      <trkpt lat="45.62786" lon="4.63867">
        <ele>467</ele>
        <time>2015-04-23T07:04:00Z</time>
      </trkpt>
      <trkpt lat="45.62794" lon="4.63877">
        <ele>465.5</ele>
        <time>2015-04-23T07:04:09Z</time>
      </trkpt>
      <trkpt lat="45.62797" lon="4.63881">
        <ele>464.6</ele>
        <time>2015-04-23T07:04:12Z</time>
      </trkpt>
      <trkpt lat="45.62803" lon="4.63891">
        <ele>462.5</ele>
        <time>2015-04-23T07:04:19Z</time>
      </trkpt>
      <trkpt lat="45.6281" lon="4.639">
        <ele>461.5</ele>
        <time>2015-04-23T07:04:27Z</time>
      </trkpt>
      <trkpt lat="45.62815" lon="4.63905">
        <ele>460.5</ele>
        <time>2015-04-23T07:04:31Z</time>
      </trkpt>
      <trkpt lat="45.62818" lon="4.63909">
        <ele>460.1</ele>
        <time>2015-04-23T07:04:35Z</time>
      </trkpt>
      <trkpt lat="45.62822" lon="4.63916">
        <ele>458.6</ele>
        <time>2015-04-23T07:04:39Z</time>
      </trkpt>
      <trkpt lat="45.6283" lon="4.6392">
        <ele>458</ele>
        <time>2015-04-23T07:04:46Z</time>
      </trkpt>
      <trkpt lat="45.62834" lon="4.63925">
        <ele>458</ele>
        <time>2015-04-23T07:04:49Z</time>
      </trkpt>
      <trkpt lat="45.62839" lon="4.63929">
        <ele>458</ele>
        <time>2015-04-23T07:04:54Z</time>
      </trkpt>
      <trkpt lat="45.62848" lon="4.6393">
        <ele>451.2</ele>
        <time>2015-04-23T07:05:01Z</time>
      </trkpt>
      <trkpt lat="45.62852" lon="4.63934">
        <ele>451.2</ele>
        <time>2015-04-23T07:05:05Z</time>
      </trkpt>
      <trkpt lat="45.62857" lon="4.63935">
        <ele>448</ele>
        <time>2015-04-23T07:05:11Z</time>
      </trkpt>
      <trkpt lat="45.62867" lon="4.63937">
        <ele>447.1</ele>
        <time>2015-04-23T07:05:22Z</time>
      </trkpt>
      <trkpt lat="45.62869" lon="4.63942">
        <ele>447</ele>
        <time>2015-04-23T07:05:27Z</time>
      </trkpt>
      <trkpt lat="45.62874" lon="4.63946">
        <ele>447</ele>
        <time>2015-04-23T07:05:32Z</time>
      </trkpt>
      <trkpt lat="45.62879" lon="4.6395">
        <ele>446</ele>
        <time>2015-04-23T07:05:37Z</time>
      </trkpt>
      <trkpt lat="45.62887" lon="4.63959">
        <ele>445.1</ele>
        <time>2015-04-23T07:05:45Z</time>
      </trkpt>
      <trkpt lat="45.62895" lon="4.63963">
        <ele>445</ele>
        <time>2015-04-23T07:05:51Z</time>
      </trkpt>
      <trkpt lat="45.62898" lon="4.63968">
        <ele>445</ele>
        <time>2015-04-23T07:05:55Z</time>
      </trkpt>
      <trkpt lat="45.62899" lon="4.63974">
        <ele>443.5</ele>
        <time>2015-04-23T07:06:02Z</time>
      </trkpt>
      <trkpt lat="45.629" lon="4.63988">
        <ele>441.6</ele>
        <time>2015-04-23T07:06:11Z</time>
      </trkpt>
      <trkpt lat="45.62902" lon="4.63994">
        <ele>441</ele>
        <time>2015-04-23T07:06:14Z</time>
      </trkpt>
      <trkpt lat="45.62905" lon="4.64001">
        <ele>440.5</ele>
        <time>2015-04-23T07:06:20Z</time>
      </trkpt>
      <trkpt lat="45.62907" lon="4.64007">
        <ele>439</ele>
        <time>2015-04-23T07:06:23Z</time>
      </trkpt>
      <trkpt lat="45.62909" lon="4.64014">
        <ele>437.1</ele>
        <time>2015-04-23T07:06:33Z</time>
      </trkpt>
      <trkpt lat="45.62911" lon="4.6402">
        <ele>436</ele>
        <time>2015-04-23T07:06:38Z</time>
      </trkpt>
      <trkpt lat="45.62916" lon="4.64022">
        <ele>436</ele>
        <time>2015-04-23T07:06:44Z</time>
      </trkpt>
      <trkpt lat="45.62931" lon="4.64024">
        <ele>435</ele>
        <time>2015-04-23T07:06:55Z</time>
      </trkpt>
      <trkpt lat="45.6294" lon="4.64027">
        <ele>435</ele>
        <time>2015-04-23T07:07:00Z</time>
      </trkpt>
      <trkpt lat="45.62945" lon="4.64026">
        <ele>434.2</ele>
        <time>2015-04-23T07:07:04Z</time>
      </trkpt>
      <trkpt lat="45.62948" lon="4.64021">
        <ele>433.1</ele>
        <time>2015-04-23T07:07:09Z</time>
      </trkpt>
      <trkpt lat="45.6296" lon="4.64008">
        <ele>429.6</ele>
        <time>2015-04-23T07:07:23Z</time>
      </trkpt>
      <trkpt lat="45.6297" lon="4.64003">
        <ele>428</ele>
        <time>2015-04-23T07:07:29Z</time>
      </trkpt>
      <trkpt lat="45.62983" lon="4.63995">
        <ele>427</ele>
        <time>2015-04-23T07:07:40Z</time>
      </trkpt>
      <trkpt lat="45.62989" lon="4.63996">
        <ele>427</ele>
        <time>2015-04-23T07:07:50Z</time>
      </trkpt>
      <trkpt lat="45.62994" lon="4.63997">
        <ele>427</ele>
        <time>2015-04-23T07:07:57Z</time>
      </trkpt>
      <trkpt lat="45.63004" lon="4.63995">
        <ele>427</ele>
        <time>2015-04-23T07:08:02Z</time>
      </trkpt>
      <trkpt lat="45.63009" lon="4.63996">
        <ele>427</ele>
        <time>2015-04-23T07:08:05Z</time>
      </trkpt>
      <trkpt lat="45.63018" lon="4.64">
        <ele>428</ele>
        <time>2015-04-23T07:08:11Z</time>
      </trkpt>
      <trkpt lat="45.63031" lon="4.64007">
        <ele>428.9</ele>
        <time>2015-04-23T07:08:22Z</time>
      </trkpt>
      <trkpt lat="45.63036" lon="4.64009">
        <ele>430.9</ele>
        <time>2015-04-23T07:08:26Z</time>
      </trkpt>
      <trkpt lat="45.6305" lon="4.64008">
        <ele>432</ele>
        <time>2015-04-23T07:08:42Z</time>
      </trkpt>
      <trkpt lat="45.63059" lon="4.64012">
        <ele>432.9</ele>
        <time>2015-04-23T07:08:49Z</time>
      </trkpt>
      <trkpt lat="45.63067" lon="4.64011">
        <ele>433</ele>
        <time>2015-04-23T07:08:55Z</time>
      </trkpt>
      <trkpt lat="45.63074" lon="4.6401">
        <ele>433</ele>
        <time>2015-04-23T07:09:01Z</time>
      </trkpt>
      <trkpt lat="45.63078" lon="4.6401">
        <ele>433</ele>
        <time>2015-04-23T07:09:05Z</time>
      </trkpt>
      <trkpt lat="45.63093" lon="4.64014">
        <ele>433</ele>
        <time>2015-04-23T07:09:16Z</time>
      </trkpt>
      <trkpt lat="45.63107" lon="4.64013">
        <ele>435</ele>
        <time>2015-04-23T07:09:27Z</time>
      </trkpt>
      <trkpt lat="45.63116" lon="4.64014">
        <ele>435.9</ele>
        <time>2015-04-23T07:09:38Z</time>
      </trkpt>
      <trkpt lat="45.63122" lon="4.64015">
        <ele>436</ele>
        <time>2015-04-23T07:09:43Z</time>
      </trkpt>
      <trkpt lat="45.63127" lon="4.64014">
        <ele>443</ele>
        <time>2015-04-23T07:09:51Z</time>
      </trkpt>
      <trkpt lat="45.63132" lon="4.64011">
        <ele>443</ele>
        <time>2015-04-23T07:09:56Z</time>
      </trkpt>
      <trkpt lat="45.63138" lon="4.64009">
        <ele>444</ele>
        <time>2015-04-23T07:10:02Z</time>
      </trkpt>
      <trkpt lat="45.63151" lon="4.64008">
        <ele>444.7</ele>
        <time>2015-04-23T07:10:11Z</time>
      </trkpt>
      <trkpt lat="45.63156" lon="4.64005">
        <ele>445</ele>
        <time>2015-04-23T07:10:16Z</time>
      </trkpt>
      <trkpt lat="45.63167" lon="4.64007">
        <ele>445</ele>
        <time>2015-04-23T07:10:20Z</time>
      </trkpt>
      <trkpt lat="45.63173" lon="4.64008">
        <ele>445</ele>
        <time>2015-04-23T07:10:24Z</time>
      </trkpt>
      <trkpt lat="45.63179" lon="4.64011">
        <ele>450</ele>
        <time>2015-04-23T07:10:39Z</time>
      </trkpt>
      <trkpt lat="45.63184" lon="4.64011">
        <ele>450</ele>
        <time>2015-04-23T07:10:45Z</time>
      </trkpt>
      <trkpt lat="45.63193" lon="4.64008">
        <ele>450.9</ele>
        <time>2015-04-23T07:10:52Z</time>
      </trkpt>
      <trkpt lat="45.63198" lon="4.64005">
        <ele>452</ele>
        <time>2015-04-23T07:11:01Z</time>
      </trkpt>
      <trkpt lat="45.63202" lon="4.64002">
        <ele>452</ele>
        <time>2015-04-23T07:11:12Z</time>
      </trkpt>
      <trkpt lat="45.63209" lon="4.64">
        <ele>453</ele>
        <time>2015-04-23T07:11:20Z</time>
      </trkpt>
      <trkpt lat="45.63214" lon="4.63999">
        <ele>453.7</ele>
        <time>2015-04-23T07:11:27Z</time>
      </trkpt>
      <trkpt lat="45.63227" lon="4.63996">
        <ele>454.5</ele>
        <time>2015-04-23T07:11:40Z</time>
      </trkpt>
      <trkpt lat="45.63234" lon="4.63995">
        <ele>455.9</ele>
        <time>2015-04-23T07:11:50Z</time>
      </trkpt>
      <trkpt lat="45.63235" lon="4.63989">
        <ele>456</ele>
        <time>2015-04-23T07:11:56Z</time>
      </trkpt>
      <trkpt lat="45.6324" lon="4.63986">
        <ele>456.9</ele>
        <time>2015-04-23T07:12:01Z</time>
      </trkpt>
      <trkpt lat="45.6325" lon="4.64001">
        <ele>458.9</ele>
        <time>2015-04-23T07:12:16Z</time>
      </trkpt>
      <trkpt lat="45.63256" lon="4.63982">
        <ele>459</ele>
        <time>2015-04-23T07:12:22Z</time>
      </trkpt>
      <trkpt lat="45.63259" lon="4.63976">
        <ele>460</ele>
        <time>2015-04-23T07:12:24Z</time>
      </trkpt>
      <trkpt lat="45.63262" lon="4.63971">
        <ele>460</ele>
        <time>2015-04-23T07:12:26Z</time>
      </trkpt>
      <trkpt lat="45.63272" lon="4.63957">
        <ele>460</ele>
        <time>2015-04-23T07:12:32Z</time>
      </trkpt>
      <trkpt lat="45.63274" lon="4.63964">
        <ele>460</ele>
        <time>2015-04-23T07:12:38Z</time>
      </trkpt>
      <trkpt lat="45.63279" lon="4.63964">
        <ele>460</ele>
        <time>2015-04-23T07:12:44Z</time>
      </trkpt>
      <trkpt lat="45.63287" lon="4.63959">
        <ele>461</ele>
        <time>2015-04-23T07:12:54Z</time>
      </trkpt>
      <trkpt lat="45.63293" lon="4.63958">
        <ele>461</ele>
        <time>2015-04-23T07:12:59Z</time>
      </trkpt>
      <trkpt lat="45.63302" lon="4.6396">
        <ele>461</ele>
        <time>2015-04-23T07:13:04Z</time>
      </trkpt>
      <trkpt lat="45.63312" lon="4.6396">
        <ele>463.6</ele>
        <time>2015-04-23T07:13:12Z</time>
      </trkpt>
      <trkpt lat="45.63316" lon="4.63963">
        <ele>463.6</ele>
        <time>2015-04-23T07:13:16Z</time>
      </trkpt>
      <trkpt lat="45.63321" lon="4.63969">
        <ele>464</ele>
        <time>2015-04-23T07:13:19Z</time>
      </trkpt>
      <trkpt lat="45.63325" lon="4.63967">
        <ele>464.9</ele>
        <time>2015-04-23T07:13:23Z</time>
      </trkpt>
      <trkpt lat="45.63329" lon="4.63961">
        <ele>464.9</ele>
        <time>2015-04-23T07:13:26Z</time>
      </trkpt>
      <trkpt lat="45.63333" lon="4.63958">
        <ele>466.4</ele>
        <time>2015-04-23T07:13:29Z</time>
      </trkpt>
      <trkpt lat="45.63338" lon="4.63963">
        <ele>466.9</ele>
        <time>2015-04-23T07:13:32Z</time>
      </trkpt>
      <trkpt lat="45.63344" lon="4.63975">
        <ele>468</ele>
        <time>2015-04-23T07:13:39Z</time>
      </trkpt>
      <trkpt lat="45.63346" lon="4.63984">
        <ele>469</ele>
        <time>2015-04-23T07:13:43Z</time>
      </trkpt>
      <trkpt lat="45.63351" lon="4.63987">
        <ele>469.9</ele>
        <time>2015-04-23T07:13:46Z</time>
      </trkpt>
      <trkpt lat="45.63357" lon="4.63983">
        <ele>470</ele>
        <time>2015-04-23T07:13:50Z</time>
      </trkpt>
      <trkpt lat="45.6336" lon="4.63978">
        <ele>470.7</ele>
        <time>2015-04-23T07:13:55Z</time>
      </trkpt>
      <trkpt lat="45.63367" lon="4.63968">
        <ele>471</ele>
        <time>2015-04-23T07:14:02Z</time>
      </trkpt>
      <trkpt lat="45.63372" lon="4.63966">
        <ele>471</ele>
        <time>2015-04-23T07:14:05Z</time>
      </trkpt>
      <trkpt lat="45.63382" lon="4.63964">
        <ele>472</ele>
        <time>2015-04-23T07:14:13Z</time>
      </trkpt>
      <trkpt lat="45.63391" lon="4.63964">
        <ele>472</ele>
        <time>2015-04-23T07:14:19Z</time>
      </trkpt>
      <trkpt lat="45.63396" lon="4.63958">
        <ele>473</ele>
        <time>2015-04-23T07:14:23Z</time>
      </trkpt>
      <trkpt lat="45.63401" lon="4.63953">
        <ele>473</ele>
        <time>2015-04-23T07:14:26Z</time>
      </trkpt>
      <trkpt lat="45.63406" lon="4.63951">
        <ele>474</ele>
        <time>2015-04-23T07:14:28Z</time>
      </trkpt>
      <trkpt lat="45.63412" lon="4.63951">
        <ele>474</ele>
        <time>2015-04-23T07:14:31Z</time>
      </trkpt>
      <trkpt lat="45.63426" lon="4.63954">
        <ele>474</ele>
        <time>2015-04-23T07:14:48Z</time>
      </trkpt>
      <trkpt lat="45.63431" lon="4.63957">
        <ele>474</ele>
        <time>2015-04-23T07:14:51Z</time>
      </trkpt>
      <trkpt lat="45.63438" lon="4.63958">
        <ele>474.5</ele>
        <time>2015-04-23T07:14:56Z</time>
      </trkpt>
      <trkpt lat="45.63442" lon="4.63961">
        <ele>474.5</ele>
        <time>2015-04-23T07:14:59Z</time>
      </trkpt>
      <trkpt lat="45.63447" lon="4.63962">
        <ele>475</ele>
        <time>2015-04-23T07:15:03Z</time>
      </trkpt>
      <trkpt lat="45.63452" lon="4.63963">
        <ele>475</ele>
        <time>2015-04-23T07:15:07Z</time>
      </trkpt>
      <trkpt lat="45.63462" lon="4.63969">
        <ele>476.7</ele>
        <time>2015-04-23T07:15:15Z</time>
      </trkpt>
      <trkpt lat="45.63472" lon="4.63974">
        <ele>477</ele>
        <time>2015-04-23T07:15:22Z</time>
      </trkpt>
      <trkpt lat="45.63481" lon="4.63978">
        <ele>478</ele>
        <time>2015-04-23T07:15:29Z</time>
      </trkpt>
      <trkpt lat="45.63485" lon="4.63984">
        <ele>478</ele>
        <time>2015-04-23T07:15:33Z</time>
      </trkpt>
      <trkpt lat="45.63494" lon="4.63989">
        <ele>478</ele>
        <time>2015-04-23T07:15:40Z</time>
      </trkpt>
      <trkpt lat="45.63501" lon="4.6399">
        <ele>478</ele>
        <time>2015-04-23T07:15:45Z</time>
      </trkpt>
      <trkpt lat="45.63506" lon="4.63993">
        <ele>478</ele>
        <time>2015-04-23T07:15:49Z</time>
      </trkpt>
      <trkpt lat="45.63517" lon="4.64006">
        <ele>478</ele>
        <time>2015-04-23T07:15:58Z</time>
      </trkpt>
      <trkpt lat="45.63525" lon="4.64016">
        <ele>478</ele>
        <time>2015-04-23T07:16:04Z</time>
      </trkpt>
      <trkpt lat="45.63529" lon="4.64019">
        <ele>478</ele>
        <time>2015-04-23T07:16:07Z</time>
      </trkpt>
      <trkpt lat="45.63535" lon="4.64021">
        <ele>478</ele>
        <time>2015-04-23T07:16:11Z</time>
      </trkpt>
      <trkpt lat="45.6354" lon="4.64024">
        <ele>478</ele>
        <time>2015-04-23T07:16:14Z</time>
      </trkpt>
      <trkpt lat="45.63544" lon="4.64027">
        <ele>478</ele>
        <time>2015-04-23T07:16:17Z</time>
      </trkpt>
      <trkpt lat="45.63548" lon="4.64031">
        <ele>478</ele>
        <time>2015-04-23T07:16:22Z</time>
      </trkpt>
      <trkpt lat="45.63553" lon="4.64033">
        <ele>478</ele>
        <time>2015-04-23T07:16:26Z</time>
      </trkpt>
      <trkpt lat="45.63562" lon="4.64041">
        <ele>478</ele>
        <time>2015-04-23T07:16:32Z</time>
      </trkpt>
      <trkpt lat="45.63565" lon="4.64046">
        <ele>478</ele>
        <time>2015-04-23T07:16:35Z</time>
      </trkpt>
      <trkpt lat="45.6357" lon="4.6405">
        <ele>478</ele>
        <time>2015-04-23T07:16:39Z</time>
      </trkpt>
      <trkpt lat="45.63574" lon="4.64052">
        <ele>478</ele>
        <time>2015-04-23T07:16:42Z</time>
      </trkpt>
      <trkpt lat="45.63579" lon="4.64053">
        <ele>478</ele>
        <time>2015-04-23T07:16:45Z</time>
      </trkpt>
      <trkpt lat="45.63583" lon="4.64057">
        <ele>478</ele>
        <time>2015-04-23T07:16:49Z</time>
      </trkpt>
      <trkpt lat="45.63586" lon="4.64062">
        <ele>478</ele>
        <time>2015-04-23T07:16:53Z</time>
      </trkpt>
      <trkpt lat="45.63593" lon="4.64063">
        <ele>478</ele>
        <time>2015-04-23T07:16:58Z</time>
      </trkpt>
      <trkpt lat="45.63606" lon="4.64068">
        <ele>477</ele>
        <time>2015-04-23T07:17:06Z</time>
      </trkpt>
      <trkpt lat="45.63608" lon="4.64075">
        <ele>477</ele>
        <time>2015-04-23T07:17:10Z</time>
      </trkpt>
      <trkpt lat="45.63613" lon="4.64072">
        <ele>477</ele>
        <time>2015-04-23T07:17:13Z</time>
      </trkpt>
      <trkpt lat="45.63617" lon="4.6407">
        <ele>475.5</ele>
        <time>2015-04-23T07:17:16Z</time>
      </trkpt>
      <trkpt lat="45.63622" lon="4.6407">
        <ele>474.2</ele>
        <time>2015-04-23T07:17:19Z</time>
      </trkpt>
      <trkpt lat="45.6363" lon="4.64072">
        <ele>473.5</ele>
        <time>2015-04-23T07:17:24Z</time>
      </trkpt>
      <trkpt lat="45.63645" lon="4.64076">
        <ele>473</ele>
        <time>2015-04-23T07:17:33Z</time>
      </trkpt>
      <trkpt lat="45.63652" lon="4.64078">
        <ele>473</ele>
        <time>2015-04-23T07:17:38Z</time>
      </trkpt>
      <trkpt lat="45.63666" lon="4.64082">
        <ele>473</ele>
        <time>2015-04-23T07:17:48Z</time>
      </trkpt>
      <trkpt lat="45.63672" lon="4.64083">
        <ele>473</ele>
        <time>2015-04-23T07:17:51Z</time>
      </trkpt>
      <trkpt lat="45.63677" lon="4.64087">
        <ele>472</ele>
        <time>2015-04-23T07:17:57Z</time>
      </trkpt>
      <trkpt lat="45.63681" lon="4.64091">
        <ele>472</ele>
        <time>2015-04-23T07:18:01Z</time>
      </trkpt>
      <trkpt lat="45.63695" lon="4.64094">
        <ele>472</ele>
        <time>2015-04-23T07:18:10Z</time>
      </trkpt>
      <trkpt lat="45.63704" lon="4.64098">
        <ele>471.1</ele>
        <time>2015-04-23T07:18:16Z</time>
      </trkpt>
      <trkpt lat="45.63714" lon="4.6411">
        <ele>471</ele>
        <time>2015-04-23T07:18:25Z</time>
      </trkpt>
      <trkpt lat="45.63718" lon="4.64118">
        <ele>471</ele>
        <time>2015-04-23T07:18:30Z</time>
      </trkpt>
      <trkpt lat="45.63726" lon="4.64125">
        <ele>471</ele>
        <time>2015-04-23T07:18:38Z</time>
      </trkpt>
      <trkpt lat="45.63733" lon="4.64135">
        <ele>471</ele>
        <time>2015-04-23T07:18:46Z</time>
      </trkpt>
      <trkpt lat="45.63737" lon="4.64139">
        <ele>471</ele>
        <time>2015-04-23T07:18:50Z</time>
      </trkpt>
      <trkpt lat="45.63738" lon="4.64146">
        <ele>471</ele>
        <time>2015-04-23T07:18:53Z</time>
      </trkpt>
      <trkpt lat="45.6374" lon="4.64153">
        <ele>471</ele>
        <time>2015-04-23T07:18:57Z</time>
      </trkpt>
      <trkpt lat="45.63743" lon="4.64167">
        <ele>471</ele>
        <time>2015-04-23T07:19:04Z</time>
      </trkpt>
      <trkpt lat="45.63749" lon="4.64178">
        <ele>471</ele>
        <time>2015-04-23T07:19:12Z</time>
      </trkpt>
      <trkpt lat="45.63753" lon="4.64189">
        <ele>471.9</ele>
        <time>2015-04-23T07:19:20Z</time>
      </trkpt>
      <trkpt lat="45.63754" lon="4.64204">
        <ele>472</ele>
        <time>2015-04-23T07:19:24Z</time>
      </trkpt>
      <trkpt lat="45.6376" lon="4.64211">
        <ele>472</ele>
        <time>2015-04-23T07:19:31Z</time>
      </trkpt>
      <trkpt lat="45.63763" lon="4.64207">
        <ele>472.8</ele>
        <time>2015-04-23T07:19:37Z</time>
      </trkpt>
      <trkpt lat="45.63767" lon="4.64202">
        <ele>473</ele>
        <time>2015-04-23T07:19:42Z</time>
      </trkpt>
      <trkpt lat="45.63774" lon="4.64191">
        <ele>474</ele>
        <time>2015-04-23T07:19:51Z</time>
      </trkpt>
      <trkpt lat="45.63776" lon="4.64184">
        <ele>474</ele>
        <time>2015-04-23T07:19:57Z</time>
      </trkpt>
      <trkpt lat="45.6378" lon="4.64178">
        <ele>474.5</ele>
        <time>2015-04-23T07:20:02Z</time>
      </trkpt>
      <trkpt lat="45.63783" lon="4.64174">
        <ele>475</ele>
        <time>2015-04-23T07:20:06Z</time>
      </trkpt>
      <trkpt lat="45.63788" lon="4.6417">
        <ele>475</ele>
        <time>2015-04-23T07:20:10Z</time>
      </trkpt>
      <trkpt lat="45.63792" lon="4.64165">
        <ele>475</ele>
        <time>2015-04-23T07:20:15Z</time>
      </trkpt>
      <trkpt lat="45.63795" lon="4.6416">
        <ele>475</ele>
        <time>2015-04-23T07:20:19Z</time>
      </trkpt>
      <trkpt lat="45.63799" lon="4.64147">
        <ele>476</ele>
        <time>2015-04-23T07:20:28Z</time>
      </trkpt>
      <trkpt lat="45.63806" lon="4.64138">
        <ele>476</ele>
        <time>2015-04-23T07:20:36Z</time>
      </trkpt>
      <trkpt lat="45.6381" lon="4.64133">
        <ele>476</ele>
        <time>2015-04-23T07:20:39Z</time>
      </trkpt>
      <trkpt lat="45.63813" lon="4.64127">
        <ele>476</ele>
        <time>2015-04-23T07:20:43Z</time>
      </trkpt>
      <trkpt lat="45.63816" lon="4.64122">
        <ele>476</ele>
        <time>2015-04-23T07:20:47Z</time>
      </trkpt>
      <trkpt lat="45.63818" lon="4.64115">
        <ele>476.8</ele>
        <time>2015-04-23T07:20:52Z</time>
      </trkpt>
      <trkpt lat="45.63821" lon="4.64108">
        <ele>477</ele>
        <time>2015-04-23T07:20:56Z</time>
      </trkpt>
      <trkpt lat="45.63825" lon="4.64101">
        <ele>477</ele>
        <time>2015-04-23T07:21:00Z</time>
      </trkpt>
      <trkpt lat="45.63827" lon="4.64094">
        <ele>477</ele>
        <time>2015-04-23T07:21:04Z</time>
      </trkpt>
      <trkpt lat="45.63828" lon="4.64087">
        <ele>479.8</ele>
        <time>2015-04-23T07:21:08Z</time>
      </trkpt>
      <trkpt lat="45.63832" lon="4.64074">
        <ele>482.6</ele>
        <time>2015-04-23T07:21:15Z</time>
      </trkpt>
      <trkpt lat="45.63835" lon="4.64054">
        <ele>485</ele>
        <time>2015-04-23T07:21:26Z</time>
      </trkpt>
      <trkpt lat="45.63837" lon="4.6404">
        <ele>485</ele>
        <time>2015-04-23T07:21:34Z</time>
      </trkpt>
      <trkpt lat="45.63838" lon="4.64033">
        <ele>485.9</ele>
        <time>2015-04-23T07:21:39Z</time>
      </trkpt>
      <trkpt lat="45.63843" lon="4.64021">
        <ele>486</ele>
        <time>2015-04-23T07:21:46Z</time>
      </trkpt>
      <trkpt lat="45.63846" lon="4.64015">
        <ele>486</ele>
        <time>2015-04-23T07:21:49Z</time>
      </trkpt>
      <trkpt lat="45.6385" lon="4.64007">
        <ele>486</ele>
        <time>2015-04-23T07:21:52Z</time>
      </trkpt>
      <trkpt lat="45.63854" lon="4.63995">
        <ele>486</ele>
        <time>2015-04-23T07:21:59Z</time>
      </trkpt>
      <trkpt lat="45.63856" lon="4.63989">
        <ele>486.9</ele>
        <time>2015-04-23T07:22:03Z</time>
      </trkpt>
      <trkpt lat="45.63858" lon="4.63983">
        <ele>487</ele>
        <time>2015-04-23T07:22:07Z</time>
      </trkpt>
      <trkpt lat="45.63859" lon="4.63976">
        <ele>487</ele>
        <time>2015-04-23T07:22:11Z</time>
      </trkpt>
      <trkpt lat="45.63862" lon="4.63963">
        <ele>487</ele>
        <time>2015-04-23T07:22:19Z</time>
      </trkpt>
      <trkpt lat="45.63863" lon="4.63956">
        <ele>487.9</ele>
        <time>2015-04-23T07:22:23Z</time>
      </trkpt>
      <trkpt lat="45.63865" lon="4.6395">
        <ele>488</ele>
        <time>2015-04-23T07:22:27Z</time>
      </trkpt>
      <trkpt lat="45.63868" lon="4.63943">
        <ele>489.5</ele>
        <time>2015-04-23T07:22:31Z</time>
      </trkpt>
      <trkpt lat="45.6387" lon="4.63931">
        <ele>490.7</ele>
        <time>2015-04-23T07:22:38Z</time>
      </trkpt>
      <trkpt lat="45.63874" lon="4.63918">
        <ele>491</ele>
        <time>2015-04-23T07:22:45Z</time>
      </trkpt>
      <trkpt lat="45.63876" lon="4.63912">
        <ele>492</ele>
        <time>2015-04-23T07:22:48Z</time>
      </trkpt>
      <trkpt lat="45.63879" lon="4.63906">
        <ele>492</ele>
        <time>2015-04-23T07:22:52Z</time>
      </trkpt>
      <trkpt lat="45.6388" lon="4.639">
        <ele>492</ele>
        <time>2015-04-23T07:22:56Z</time>
      </trkpt>
      <trkpt lat="45.63878" lon="4.63894">
        <ele>492.5</ele>
        <time>2015-04-23T07:23:00Z</time>
      </trkpt>
      <trkpt lat="45.63882" lon="4.63881">
        <ele>493</ele>
        <time>2015-04-23T07:23:08Z</time>
      </trkpt>
      <trkpt lat="45.63887" lon="4.63868">
        <ele>493</ele>
        <time>2015-04-23T07:23:12Z</time>
      </trkpt>
      <trkpt lat="45.63888" lon="4.6386">
        <ele>493</ele>
        <time>2015-04-23T07:23:15Z</time>
      </trkpt>
      <trkpt lat="45.63888" lon="4.63839">
        <ele>493</ele>
        <time>2015-04-23T07:23:26Z</time>
      </trkpt>
      <trkpt lat="45.63889" lon="4.63832">
        <ele>493</ele>
        <time>2015-04-23T07:23:29Z</time>
      </trkpt>
      <trkpt lat="45.6389" lon="4.63826">
        <ele>493</ele>
        <time>2015-04-23T07:23:32Z</time>
      </trkpt>
      <trkpt lat="45.63892" lon="4.63818">
        <ele>493</ele>
        <time>2015-04-23T07:23:36Z</time>
      </trkpt>
      <trkpt lat="45.63894" lon="4.63804">
        <ele>494</ele>
        <time>2015-04-23T07:23:44Z</time>
      </trkpt>
      <trkpt lat="45.63891" lon="4.63794">
        <ele>494</ele>
        <time>2015-04-23T07:23:50Z</time>
      </trkpt>
      <trkpt lat="45.63896" lon="4.6379">
        <ele>494</ele>
        <time>2015-04-23T07:23:55Z</time>
      </trkpt>
      <trkpt lat="45.63901" lon="4.63787">
        <ele>494.8</ele>
        <time>2015-04-23T07:23:58Z</time>
      </trkpt>
      <trkpt lat="45.6391" lon="4.63781">
        <ele>496</ele>
        <time>2015-04-23T07:24:13Z</time>
      </trkpt>
      <trkpt lat="45.63914" lon="4.63778">
        <ele>497</ele>
        <time>2015-04-23T07:24:25Z</time>
      </trkpt>
      <trkpt lat="45.6392" lon="4.63774">
        <ele>497</ele>
        <time>2015-04-23T07:24:29Z</time>
      </trkpt>
      <trkpt lat="45.63925" lon="4.63773">
        <ele>497</ele>
        <time>2015-04-23T07:24:33Z</time>
      </trkpt>
      <trkpt lat="45.63929" lon="4.63772">
        <ele>498</ele>
        <time>2015-04-23T07:24:50Z</time>
      </trkpt>
      <trkpt lat="45.63933" lon="4.6377">
        <ele>498.9</ele>
        <time>2015-04-23T07:24:54Z</time>
      </trkpt>
      <trkpt lat="45.63943" lon="4.63768">
        <ele>500.7</ele>
        <time>2015-04-23T07:25:02Z</time>
      </trkpt>
      <trkpt lat="45.63956" lon="4.63765">
        <ele>501</ele>
        <time>2015-04-23T07:25:09Z</time>
      </trkpt>
      <trkpt lat="45.6397" lon="4.63759">
        <ele>501</ele>
        <time>2015-04-23T07:25:19Z</time>
      </trkpt>
      <trkpt lat="45.63973" lon="4.63755">
        <ele>501</ele>
        <time>2015-04-23T07:25:26Z</time>
      </trkpt>
      <trkpt lat="45.63975" lon="4.63748">
        <ele>501</ele>
        <time>2015-04-23T07:25:32Z</time>
      </trkpt>
      <trkpt lat="45.63982" lon="4.63746">
        <ele>501</ele>
        <time>2015-04-23T07:25:37Z</time>
      </trkpt>
      <trkpt lat="45.63988" lon="4.63741">
        <ele>501.9</ele>
        <time>2015-04-23T07:25:43Z</time>
      </trkpt>
      <trkpt lat="45.63993" lon="4.63739">
        <ele>502</ele>
        <time>2015-04-23T07:25:51Z</time>
      </trkpt>
      <trkpt lat="45.63998" lon="4.63726">
        <ele>502.5</ele>
        <time>2015-04-23T07:25:57Z</time>
      </trkpt>
      <trkpt lat="45.64007" lon="4.63712">
        <ele>503.9</ele>
        <time>2015-04-23T07:26:07Z</time>
      </trkpt>
      <trkpt lat="45.64014" lon="4.63695">
        <ele>505</ele>
        <time>2015-04-23T07:26:19Z</time>
      </trkpt>
      <trkpt lat="45.64024" lon="4.63682">
        <ele>506</ele>
        <time>2015-04-23T07:26:28Z</time>
      </trkpt>
      <trkpt lat="45.64028" lon="4.63676">
        <ele>507</ele>
        <time>2015-04-23T07:26:32Z</time>
      </trkpt>
      <trkpt lat="45.64033" lon="4.63664">
        <ele>507</ele>
        <time>2015-04-23T07:26:40Z</time>
      </trkpt>
      <trkpt lat="45.64041" lon="4.63654">
        <ele>507</ele>
        <time>2015-04-23T07:26:47Z</time>
      </trkpt>
      <trkpt lat="45.64044" lon="4.63648">
        <ele>507</ele>
        <time>2015-04-23T07:26:52Z</time>
      </trkpt>
      <trkpt lat="45.64044" lon="4.63635">
        <ele>507</ele>
        <time>2015-04-23T07:26:59Z</time>
      </trkpt>
      <trkpt lat="45.64046" lon="4.63628">
        <ele>507</ele>
        <time>2015-04-23T07:27:03Z</time>
      </trkpt>
      <trkpt lat="45.6405" lon="4.63625">
        <ele>507.8</ele>
        <time>2015-04-23T07:27:06Z</time>
      </trkpt>
      <trkpt lat="45.64055" lon="4.63622">
        <ele>508</ele>
        <time>2015-04-23T07:27:09Z</time>
      </trkpt>
      <trkpt lat="45.64059" lon="4.63618">
        <ele>508</ele>
        <time>2015-04-23T07:27:12Z</time>
      </trkpt>
      <trkpt lat="45.64062" lon="4.63612">
        <ele>508</ele>
        <time>2015-04-23T07:27:17Z</time>
      </trkpt>
      <trkpt lat="45.64064" lon="4.63598">
        <ele>508</ele>
        <time>2015-04-23T07:27:25Z</time>
      </trkpt>
      <trkpt lat="45.64066" lon="4.6359">
        <ele>508</ele>
        <time>2015-04-23T07:27:28Z</time>
      </trkpt>
      <trkpt lat="45.64073" lon="4.63589">
        <ele>508</ele>
        <time>2015-04-23T07:27:31Z</time>
      </trkpt>
      <trkpt lat="45.64081" lon="4.63583">
        <ele>509</ele>
        <time>2015-04-23T07:27:58Z</time>
      </trkpt>
      <trkpt lat="45.64078" lon="4.63588">
        <ele>509</ele>
        <time>2015-04-23T07:27:59Z</time>
      </trkpt>
      <trkpt lat="45.64072" lon="4.63594">
        <ele>508</ele>
        <time>2015-04-23T07:28:11Z</time>
      </trkpt>
      <trkpt lat="45.64075" lon="4.63589">
        <ele>509</ele>
        <time>2015-04-23T07:28:22Z</time>
      </trkpt>
      <trkpt lat="45.64079" lon="4.63588">
        <ele>509</ele>
        <time>2015-04-23T07:28:28Z</time>
      </trkpt>
      <trkpt lat="45.64088" lon="4.63595">
        <ele>509</ele>
        <time>2015-04-23T07:28:34Z</time>
      </trkpt>
      <trkpt lat="45.64093" lon="4.63598">
        <ele>509.9</ele>
        <time>2015-04-23T07:28:40Z</time>
      </trkpt>
      <trkpt lat="45.64087" lon="4.63597">
        <ele>510</ele>
        <time>2015-04-23T07:28:55Z</time>
      </trkpt>
      <trkpt lat="45.6409" lon="4.63602">
        <ele>510</ele>
        <time>2015-04-23T07:29:09Z</time>
      </trkpt>
      <trkpt lat="45.64098" lon="4.63608">
        <ele>511</ele>
        <time>2015-04-23T07:29:14Z</time>
      </trkpt>
      <trkpt lat="45.64108" lon="4.63622">
        <ele>511.9</ele>
        <time>2015-04-23T07:29:23Z</time>
      </trkpt>
      <trkpt lat="45.64113" lon="4.6363">
        <ele>513</ele>
        <time>2015-04-23T07:29:31Z</time>
      </trkpt>
      <trkpt lat="45.64114" lon="4.63636">
        <ele>513</ele>
        <time>2015-04-23T07:29:35Z</time>
      </trkpt>
      <trkpt lat="45.64114" lon="4.63647">
        <ele>515</ele>
        <time>2015-04-23T07:29:42Z</time>
      </trkpt>
      <trkpt lat="45.64118" lon="4.63661">
        <ele>515</ele>
        <time>2015-04-23T07:29:51Z</time>
      </trkpt>
      <trkpt lat="45.64118" lon="4.63671">
        <ele>516</ele>
        <time>2015-04-23T07:29:55Z</time>
      </trkpt>
      <trkpt lat="45.64121" lon="4.63676">
        <ele>516</ele>
        <time>2015-04-23T07:29:58Z</time>
      </trkpt>
      <trkpt lat="45.6413" lon="4.63681">
        <ele>516</ele>
        <time>2015-04-23T07:30:04Z</time>
      </trkpt>
      <trkpt lat="45.64141" lon="4.63691">
        <ele>516</ele>
        <time>2015-04-23T07:30:20Z</time>
      </trkpt>
      <trkpt lat="45.64146" lon="4.63699">
        <ele>516</ele>
        <time>2015-04-23T07:30:26Z</time>
      </trkpt>
      <trkpt lat="45.64142" lon="4.63705">
        <ele>516</ele>
        <time>2015-04-23T07:30:31Z</time>
      </trkpt>
      <trkpt lat="45.64135" lon="4.63713">
        <ele>516</ele>
        <time>2015-04-23T07:30:36Z</time>
      </trkpt>
      <trkpt lat="45.64126" lon="4.63723">
        <ele>516</ele>
        <time>2015-04-23T07:30:41Z</time>
      </trkpt>
      <trkpt lat="45.64121" lon="4.63729">
        <ele>515.2</ele>
        <time>2015-04-23T07:30:44Z</time>
      </trkpt>
      <trkpt lat="45.64117" lon="4.63734">
        <ele>515.2</ele>
        <time>2015-04-23T07:30:47Z</time>
      </trkpt>
      <trkpt lat="45.64113" lon="4.63748">
        <ele>515</ele>
        <time>2015-04-23T07:30:55Z</time>
      </trkpt>
      <trkpt lat="45.6411" lon="4.63754">
        <ele>515</ele>
        <time>2015-04-23T07:30:59Z</time>
      </trkpt>
      <trkpt lat="45.64109" lon="4.6376">
        <ele>515</ele>
        <time>2015-04-23T07:31:03Z</time>
      </trkpt>
      <trkpt lat="45.64112" lon="4.63774">
        <ele>515</ele>
        <time>2015-04-23T07:31:08Z</time>
      </trkpt>
      <trkpt lat="45.64113" lon="4.63788">
        <ele>515</ele>
        <time>2015-04-23T07:31:16Z</time>
      </trkpt>
      <trkpt lat="45.64113" lon="4.63795">
        <ele>515</ele>
        <time>2015-04-23T07:31:20Z</time>
      </trkpt>
      <trkpt lat="45.6411" lon="4.638">
        <ele>515</ele>
        <time>2015-04-23T07:31:24Z</time>
      </trkpt>
      <trkpt lat="45.64109" lon="4.63808">
        <ele>515</ele>
        <time>2015-04-23T07:31:28Z</time>
      </trkpt>
      <trkpt lat="45.64113" lon="4.63814">
        <ele>515</ele>
        <time>2015-04-23T07:31:35Z</time>
      </trkpt>
      <trkpt lat="45.64111" lon="4.63821">
        <ele>515</ele>
        <time>2015-04-23T07:31:40Z</time>
      </trkpt>
      <trkpt lat="45.64111" lon="4.63828">
        <ele>515</ele>
        <time>2015-04-23T07:31:44Z</time>
      </trkpt>
      <trkpt lat="45.64116" lon="4.63832">
        <ele>515</ele>
        <time>2015-04-23T07:31:48Z</time>
      </trkpt>
      <trkpt lat="45.64118" lon="4.63837">
        <ele>515</ele>
        <time>2015-04-23T07:31:51Z</time>
      </trkpt>
      <trkpt lat="45.64121" lon="4.63844">
        <ele>515</ele>
        <time>2015-04-23T07:31:56Z</time>
      </trkpt>
      <trkpt lat="45.64125" lon="4.6385">
        <ele>515</ele>
        <time>2015-04-23T07:32:03Z</time>
      </trkpt>
      <trkpt lat="45.64129" lon="4.63855">
        <ele>517.5</ele>
        <time>2015-04-23T07:32:11Z</time>
      </trkpt>
      <trkpt lat="45.64131" lon="4.63862">
        <ele>517.7</ele>
        <time>2015-04-23T07:32:16Z</time>
      </trkpt>
      <trkpt lat="45.64131" lon="4.63869">
        <ele>518.9</ele>
        <time>2015-04-23T07:32:19Z</time>
      </trkpt>
      <trkpt lat="45.64131" lon="4.63875">
        <ele>518.9</ele>
        <time>2015-04-23T07:32:21Z</time>
      </trkpt>
      <trkpt lat="45.64128" lon="4.63888">
        <ele>519.9</ele>
        <time>2015-04-23T07:32:27Z</time>
      </trkpt>
      <trkpt lat="45.64131" lon="4.639">
        <ele>520.9</ele>
        <time>2015-04-23T07:32:36Z</time>
      </trkpt>
      <trkpt lat="45.64131" lon="4.63908">
        <ele>520.9</ele>
        <time>2015-04-23T07:32:40Z</time>
      </trkpt>
      <trkpt lat="45.64135" lon="4.63913">
        <ele>521</ele>
        <time>2015-04-23T07:32:49Z</time>
      </trkpt>
      <trkpt lat="45.64139" lon="4.63908">
        <ele>521</ele>
        <time>2015-04-23T07:32:56Z</time>
      </trkpt>
      <trkpt lat="45.64138" lon="4.639">
        <ele>521</ele>
        <time>2015-04-23T07:33:02Z</time>
      </trkpt>
      <trkpt lat="45.64135" lon="4.63894">
        <ele>521</ele>
        <time>2015-04-23T07:33:07Z</time>
      </trkpt>
      <trkpt lat="45.64136" lon="4.63882">
        <ele>520.1</ele>
        <time>2015-04-23T07:33:16Z</time>
      </trkpt>
      <trkpt lat="45.64138" lon="4.63873">
        <ele>520</ele>
        <time>2015-04-23T07:33:23Z</time>
      </trkpt>
      <trkpt lat="45.6414" lon="4.63866">
        <ele>520</ele>
        <time>2015-04-23T07:33:28Z</time>
      </trkpt>
      <trkpt lat="45.64144" lon="4.63863">
        <ele>520</ele>
        <time>2015-04-23T07:33:34Z</time>
      </trkpt>
      <trkpt lat="45.64149" lon="4.6386">
        <ele>520</ele>
        <time>2015-04-23T07:33:38Z</time>
      </trkpt>
      <trkpt lat="45.64156" lon="4.6385">
        <ele>520</ele>
        <time>2015-04-23T07:33:48Z</time>
      </trkpt>
      <trkpt lat="45.64161" lon="4.63848">
        <ele>520.5</ele>
        <time>2015-04-23T07:33:50Z</time>
      </trkpt>
      <trkpt lat="45.64165" lon="4.63843">
        <ele>520.5</ele>
        <time>2015-04-23T07:33:54Z</time>
      </trkpt>
      <trkpt lat="45.64171" lon="4.63833">
        <ele>521</ele>
        <time>2015-04-23T07:34:02Z</time>
      </trkpt>
      <trkpt lat="45.64176" lon="4.63832">
        <ele>521.8</ele>
        <time>2015-04-23T07:34:07Z</time>
      </trkpt>
      <trkpt lat="45.64182" lon="4.63835">
        <ele>522.7</ele>
        <time>2015-04-23T07:34:13Z</time>
      </trkpt>
      <trkpt lat="45.64184" lon="4.63841">
        <ele>523.9</ele>
        <time>2015-04-23T07:34:20Z</time>
      </trkpt>
      <trkpt lat="45.64188" lon="4.63844">
        <ele>524</ele>
        <time>2015-04-23T07:34:26Z</time>
      </trkpt>
      <trkpt lat="45.64191" lon="4.6385">
        <ele>524.9</ele>
        <time>2015-04-23T07:34:31Z</time>
      </trkpt>
      <trkpt lat="45.64193" lon="4.63859">
        <ele>530.3</ele>
        <time>2015-04-23T07:34:38Z</time>
      </trkpt>
      <trkpt lat="45.64192" lon="4.63866">
        <ele>530.3</ele>
        <time>2015-04-23T07:34:42Z</time>
      </trkpt>
      <trkpt lat="45.64192" lon="4.63873">
        <ele>532</ele>
        <time>2015-04-23T07:34:46Z</time>
      </trkpt>
      <trkpt lat="45.6419" lon="4.6388">
        <ele>532</ele>
        <time>2015-04-23T07:34:50Z</time>
      </trkpt>
      <trkpt lat="45.64191" lon="4.63887">
        <ele>532.9</ele>
        <time>2015-04-23T07:34:55Z</time>
      </trkpt>
      <trkpt lat="45.64194" lon="4.63891">
        <ele>533.9</ele>
        <time>2015-04-23T07:34:59Z</time>
      </trkpt>
      <trkpt lat="45.64195" lon="4.63899">
        <ele>534.7</ele>
        <time>2015-04-23T07:35:03Z</time>
      </trkpt>
      <trkpt lat="45.64195" lon="4.63906">
        <ele>535.7</ele>
        <time>2015-04-23T07:35:07Z</time>
      </trkpt>
      <trkpt lat="45.64192" lon="4.63918">
        <ele>536</ele>
        <time>2015-04-23T07:35:13Z</time>
      </trkpt>
      <trkpt lat="45.64192" lon="4.63926">
        <ele>536</ele>
        <time>2015-04-23T07:35:17Z</time>
      </trkpt>
      <trkpt lat="45.64196" lon="4.6393">
        <ele>536.7</ele>
        <time>2015-04-23T07:35:23Z</time>
      </trkpt>
      <trkpt lat="45.64204" lon="4.63936">
        <ele>537</ele>
        <time>2015-04-23T07:35:30Z</time>
      </trkpt>
      <trkpt lat="45.64209" lon="4.63938">
        <ele>537.9</ele>
        <time>2015-04-23T07:35:34Z</time>
      </trkpt>
      <trkpt lat="45.64216" lon="4.63948">
        <ele>539.9</ele>
        <time>2015-04-23T07:35:47Z</time>
      </trkpt>
      <trkpt lat="45.64222" lon="4.63954">
        <ele>540</ele>
        <time>2015-04-23T07:35:50Z</time>
      </trkpt>
      <trkpt lat="45.64228" lon="4.63957">
        <ele>540</ele>
        <time>2015-04-23T07:35:53Z</time>
      </trkpt>
      <trkpt lat="45.64237" lon="4.63964">
        <ele>541</ele>
        <time>2015-04-23T07:35:59Z</time>
      </trkpt>
      <trkpt lat="45.64242" lon="4.63968">
        <ele>541.7</ele>
        <time>2015-04-23T07:36:02Z</time>
      </trkpt>
      <trkpt lat="45.64256" lon="4.63974">
        <ele>542</ele>
        <time>2015-04-23T07:36:12Z</time>
      </trkpt>
      <trkpt lat="45.6427" lon="4.63978">
        <ele>543.9</ele>
        <time>2015-04-23T07:36:22Z</time>
      </trkpt>
      <trkpt lat="45.64277" lon="4.6398">
        <ele>549.6</ele>
        <time>2015-04-23T07:36:28Z</time>
      </trkpt>
      <trkpt lat="45.64282" lon="4.63982">
        <ele>549.6</ele>
        <time>2015-04-23T07:36:31Z</time>
      </trkpt>
      <trkpt lat="45.64287" lon="4.63984">
        <ele>550</ele>
        <time>2015-04-23T07:36:35Z</time>
      </trkpt>
      <trkpt lat="45.64295" lon="4.63987">
        <ele>550.9</ele>
        <time>2015-04-23T07:36:40Z</time>
      </trkpt>
      <trkpt lat="45.64309" lon="4.63989">
        <ele>551.9</ele>
        <time>2015-04-23T07:36:52Z</time>
      </trkpt>
      <trkpt lat="45.64318" lon="4.63992">
        <ele>552.9</ele>
        <time>2015-04-23T07:36:58Z</time>
      </trkpt>
      <trkpt lat="45.64333" lon="4.63993">
        <ele>554</ele>
        <time>2015-04-23T07:37:09Z</time>
      </trkpt>
      <trkpt lat="45.64338" lon="4.63994">
        <ele>554</ele>
        <time>2015-04-23T07:37:12Z</time>
      </trkpt>
      <trkpt lat="45.64343" lon="4.63996">
        <ele>554.9</ele>
        <time>2015-04-23T07:37:15Z</time>
      </trkpt>
      <trkpt lat="45.64348" lon="4.63995">
        <ele>555</ele>
        <time>2015-04-23T07:37:20Z</time>
      </trkpt>
      <trkpt lat="45.64353" lon="4.63996">
        <ele>556.7</ele>
        <time>2015-04-23T07:37:23Z</time>
      </trkpt>
      <trkpt lat="45.64367" lon="4.63995">
        <ele>557</ele>
        <time>2015-04-23T07:37:33Z</time>
      </trkpt>
      <trkpt lat="45.64377" lon="4.63996">
        <ele>557</ele>
        <time>2015-04-23T07:37:39Z</time>
      </trkpt>
      <trkpt lat="45.64381" lon="4.63998">
        <ele>557.5</ele>
        <time>2015-04-23T07:37:43Z</time>
      </trkpt>
      <trkpt lat="45.64386" lon="4.63998">
        <ele>558</ele>
        <time>2015-04-23T07:37:47Z</time>
      </trkpt>
      <trkpt lat="45.64392" lon="4.63997">
        <ele>558</ele>
        <time>2015-04-23T07:37:52Z</time>
      </trkpt>
      <trkpt lat="45.644" lon="4.63994">
        <ele>558</ele>
        <time>2015-04-23T07:37:59Z</time>
      </trkpt>
      <trkpt lat="45.64405" lon="4.63995">
        <ele>558</ele>
        <time>2015-04-23T07:38:02Z</time>
      </trkpt>
      <trkpt lat="45.64418" lon="4.63993">
        <ele>558</ele>
        <time>2015-04-23T07:38:12Z</time>
      </trkpt>
      <trkpt lat="45.64424" lon="4.63992">
        <ele>557</ele>
        <time>2015-04-23T07:38:17Z</time>
      </trkpt>
      <trkpt lat="45.64438" lon="4.63995">
        <ele>553.3</ele>
        <time>2015-04-23T07:38:27Z</time>
      </trkpt>
      <trkpt lat="45.64445" lon="4.63994">
        <ele>552.5</ele>
        <time>2015-04-23T07:38:31Z</time>
      </trkpt>
      <trkpt lat="45.64449" lon="4.63995">
        <ele>552</ele>
        <time>2015-04-23T07:38:34Z</time>
      </trkpt>
      <trkpt lat="45.64456" lon="4.64">
        <ele>550.3</ele>
        <time>2015-04-23T07:38:39Z</time>
      </trkpt>
      <trkpt lat="45.64461" lon="4.64003">
        <ele>549.5</ele>
        <time>2015-04-23T07:38:43Z</time>
      </trkpt>
      <trkpt lat="45.64465" lon="4.64008">
        <ele>549</ele>
        <time>2015-04-23T07:38:47Z</time>
      </trkpt>
      <trkpt lat="45.64476" lon="4.64012">
        <ele>549</ele>
        <time>2015-04-23T07:38:53Z</time>
      </trkpt>
      <trkpt lat="45.64481" lon="4.64013">
        <ele>549</ele>
        <time>2015-04-23T07:38:56Z</time>
      </trkpt>
      <trkpt lat="45.64488" lon="4.64024">
        <ele>549</ele>
        <time>2015-04-23T07:39:05Z</time>
      </trkpt>
      <trkpt lat="45.64491" lon="4.64029">
        <ele>549</ele>
        <time>2015-04-23T07:39:10Z</time>
      </trkpt>
      <trkpt lat="45.64493" lon="4.64037">
        <ele>549.5</ele>
        <time>2015-04-23T07:39:13Z</time>
      </trkpt>
      <trkpt lat="45.64495" lon="4.64043">
        <ele>549.5</ele>
        <time>2015-04-23T07:39:16Z</time>
      </trkpt>
      <trkpt lat="45.64501" lon="4.64057">
        <ele>552.7</ele>
        <time>2015-04-23T07:39:22Z</time>
      </trkpt>
      <trkpt lat="45.64502" lon="4.6407">
        <ele>553</ele>
        <time>2015-04-23T07:39:32Z</time>
      </trkpt>
      <trkpt lat="45.64502" lon="4.64083">
        <ele>553</ele>
        <time>2015-04-23T07:39:39Z</time>
      </trkpt>
      <trkpt lat="45.64498" lon="4.64096">
        <ele>553</ele>
        <time>2015-04-23T07:39:45Z</time>
      </trkpt>
      <trkpt lat="45.64501" lon="4.641">
        <ele>552.5</ele>
        <time>2015-04-23T07:39:53Z</time>
      </trkpt>
      <trkpt lat="45.64503" lon="4.6412">
        <ele>550.3</ele>
        <time>2015-04-23T07:40:02Z</time>
      </trkpt>
      <trkpt lat="45.645" lon="4.64129">
        <ele>549</ele>
        <time>2015-04-23T07:40:05Z</time>
      </trkpt>
      <trkpt lat="45.64499" lon="4.64137">
        <ele>549</ele>
        <time>2015-04-23T07:40:08Z</time>
      </trkpt>
      <trkpt lat="45.64496" lon="4.64152">
        <ele>548.1</ele>
        <time>2015-04-23T07:40:14Z</time>
      </trkpt>
      <trkpt lat="45.64495" lon="4.64159">
        <ele>548</ele>
        <time>2015-04-23T07:40:18Z</time>
      </trkpt>
      <trkpt lat="45.64494" lon="4.64173">
        <ele>547</ele>
        <time>2015-04-23T07:40:26Z</time>
      </trkpt>
      <trkpt lat="45.64491" lon="4.64188">
        <ele>547</ele>
        <time>2015-04-23T07:40:31Z</time>
      </trkpt>
      <trkpt lat="45.64489" lon="4.64203">
        <ele>546</ele>
        <time>2015-04-23T07:40:36Z</time>
      </trkpt>
      <trkpt lat="45.64489" lon="4.64218">
        <ele>545.1</ele>
        <time>2015-04-23T07:40:43Z</time>
      </trkpt>
      <trkpt lat="45.6449" lon="4.64224">
        <ele>544.1</ele>
        <time>2015-04-23T07:40:48Z</time>
      </trkpt>
      <trkpt lat="45.64493" lon="4.64231">
        <ele>544</ele>
        <time>2015-04-23T07:40:54Z</time>
      </trkpt>
      <trkpt lat="45.64496" lon="4.64237">
        <ele>544</ele>
        <time>2015-04-23T07:40:58Z</time>
      </trkpt>
      <trkpt lat="45.645" lon="4.64241">
        <ele>544</ele>
        <time>2015-04-23T07:41:02Z</time>
      </trkpt>
      <trkpt lat="45.64509" lon="4.64246">
        <ele>544</ele>
        <time>2015-04-23T07:41:10Z</time>
      </trkpt>
      <trkpt lat="45.64514" lon="4.64244">
        <ele>544</ele>
        <time>2015-04-23T07:41:20Z</time>
      </trkpt>
      <trkpt lat="45.64519" lon="4.64244">
        <ele>544</ele>
        <time>2015-04-23T07:41:23Z</time>
      </trkpt>
      <trkpt lat="45.64533" lon="4.64243">
        <ele>544.5</ele>
        <time>2015-04-23T07:41:30Z</time>
      </trkpt>
      <trkpt lat="45.64538" lon="4.64241">
        <ele>545</ele>
        <time>2015-04-23T07:41:34Z</time>
      </trkpt>
      <trkpt lat="45.64542" lon="4.64237">
        <ele>545</ele>
        <time>2015-04-23T07:41:38Z</time>
      </trkpt>
      <trkpt lat="45.64552" lon="4.64226">
        <ele>545.9</ele>
        <time>2015-04-23T07:41:48Z</time>
      </trkpt>
      <trkpt lat="45.64556" lon="4.64221">
        <ele>546.5</ele>
        <time>2015-04-23T07:41:51Z</time>
      </trkpt>
      <trkpt lat="45.64564" lon="4.64209">
        <ele>547</ele>
        <time>2015-04-23T07:42:00Z</time>
      </trkpt>
      <trkpt lat="45.64568" lon="4.64205">
        <ele>547</ele>
        <time>2015-04-23T07:42:04Z</time>
      </trkpt>
      <trkpt lat="45.64573" lon="4.64203">
        <ele>547</ele>
        <time>2015-04-23T07:42:07Z</time>
      </trkpt>
      <trkpt lat="45.64577" lon="4.64199">
        <ele>547</ele>
        <time>2015-04-23T07:42:10Z</time>
      </trkpt>
      <trkpt lat="45.64582" lon="4.64187">
        <ele>547</ele>
        <time>2015-04-23T07:42:17Z</time>
      </trkpt>
      <trkpt lat="45.64588" lon="4.64177">
        <ele>546.5</ele>
        <time>2015-04-23T07:42:23Z</time>
      </trkpt>
      <trkpt lat="45.64594" lon="4.64167">
        <ele>546</ele>
        <time>2015-04-23T07:42:28Z</time>
      </trkpt>
      <trkpt lat="45.64597" lon="4.64162">
        <ele>545.1</ele>
        <time>2015-04-23T07:42:31Z</time>
      </trkpt>
      <trkpt lat="45.64596" lon="4.64142">
        <ele>545</ele>
        <time>2015-04-23T07:42:41Z</time>
      </trkpt>
      <trkpt lat="45.64598" lon="4.64135">
        <ele>544</ele>
        <time>2015-04-23T07:42:49Z</time>
      </trkpt>
      <trkpt lat="45.64612" lon="4.64126">
        <ele>543</ele>
        <time>2015-04-23T07:42:57Z</time>
      </trkpt>
      <trkpt lat="45.64626" lon="4.64128">
        <ele>543</ele>
        <time>2015-04-23T07:43:04Z</time>
      </trkpt>
      <trkpt lat="45.64633" lon="4.64132">
        <ele>543</ele>
        <time>2015-04-23T07:43:09Z</time>
      </trkpt>
      <trkpt lat="45.64637" lon="4.64134">
        <ele>543</ele>
        <time>2015-04-23T07:43:12Z</time>
      </trkpt>
      <trkpt lat="45.64642" lon="4.64135">
        <ele>543</ele>
        <time>2015-04-23T07:43:16Z</time>
      </trkpt>
      <trkpt lat="45.64646" lon="4.6414">
        <ele>543</ele>
        <time>2015-04-23T07:43:19Z</time>
      </trkpt>
      <trkpt lat="45.64652" lon="4.6415">
        <ele>543</ele>
        <time>2015-04-23T07:43:25Z</time>
      </trkpt>
      <trkpt lat="45.64657" lon="4.64154">
        <ele>543.9</ele>
        <time>2015-04-23T07:43:28Z</time>
      </trkpt>
      <trkpt lat="45.6467" lon="4.64156">
        <ele>544</ele>
        <time>2015-04-23T07:43:40Z</time>
      </trkpt>
      <trkpt lat="45.64676" lon="4.64157">
        <ele>544</ele>
        <time>2015-04-23T07:43:44Z</time>
      </trkpt>
      <trkpt lat="45.6468" lon="4.6416">
        <ele>544</ele>
        <time>2015-04-23T07:43:47Z</time>
      </trkpt>
      <trkpt lat="45.64684" lon="4.64163">
        <ele>544.9</ele>
        <time>2015-04-23T07:43:52Z</time>
      </trkpt>
      <trkpt lat="45.64694" lon="4.64158">
        <ele>545</ele>
        <time>2015-04-23T07:44:00Z</time>
      </trkpt>
      <trkpt lat="45.64698" lon="4.64157">
        <ele>545</ele>
        <time>2015-04-23T07:44:03Z</time>
      </trkpt>
      <trkpt lat="45.64709" lon="4.64152">
        <ele>545</ele>
        <time>2015-04-23T07:44:10Z</time>
      </trkpt>
      <trkpt lat="45.64713" lon="4.64149">
        <ele>545</ele>
        <time>2015-04-23T07:44:14Z</time>
      </trkpt>
      <trkpt lat="45.64717" lon="4.64145">
        <ele>545</ele>
        <time>2015-04-23T07:44:19Z</time>
      </trkpt>
      <trkpt lat="45.64727" lon="4.64143">
        <ele>545</ele>
        <time>2015-04-23T07:44:26Z</time>
      </trkpt>
      <trkpt lat="45.6473" lon="4.64137">
        <ele>545</ele>
        <time>2015-04-23T07:44:31Z</time>
      </trkpt>
      <trkpt lat="45.64736" lon="4.64136">
        <ele>545</ele>
        <time>2015-04-23T07:44:36Z</time>
      </trkpt>
      <trkpt lat="45.64742" lon="4.64135">
        <ele>545</ele>
        <time>2015-04-23T07:44:40Z</time>
      </trkpt>
      <trkpt lat="45.64746" lon="4.64132">
        <ele>545</ele>
        <time>2015-04-23T07:44:46Z</time>
      </trkpt>
      <trkpt lat="45.64751" lon="4.6413">
        <ele>545</ele>
        <time>2015-04-23T07:44:50Z</time>
      </trkpt>
      <trkpt lat="45.64756" lon="4.64128">
        <ele>545</ele>
        <time>2015-04-23T07:44:54Z</time>
      </trkpt>
      <trkpt lat="45.64764" lon="4.64127">
        <ele>545</ele>
        <time>2015-04-23T07:44:58Z</time>
      </trkpt>
      <trkpt lat="45.64769" lon="4.64125">
        <ele>545</ele>
        <time>2015-04-23T07:45:01Z</time>
      </trkpt>
      <trkpt lat="45.64779" lon="4.64122">
        <ele>545.9</ele>
        <time>2015-04-23T07:45:08Z</time>
      </trkpt>
      <trkpt lat="45.64793" lon="4.64121">
        <ele>546</ele>
        <time>2015-04-23T07:45:23Z</time>
      </trkpt>
      <trkpt lat="45.648" lon="4.64122">
        <ele>546.8</ele>
        <time>2015-04-23T07:45:27Z</time>
      </trkpt>
      <trkpt lat="45.64805" lon="4.64125">
        <ele>546.8</ele>
        <time>2015-04-23T07:45:31Z</time>
      </trkpt>
      <trkpt lat="45.64818" lon="4.64134">
        <ele>547</ele>
        <time>2015-04-23T07:45:40Z</time>
      </trkpt>
      <trkpt lat="45.64823" lon="4.64136">
        <ele>547.5</ele>
        <time>2015-04-23T07:45:43Z</time>
      </trkpt>
      <trkpt lat="45.64828" lon="4.6414">
        <ele>548.9</ele>
        <time>2015-04-23T07:45:47Z</time>
      </trkpt>
      <trkpt lat="45.64833" lon="4.64141">
        <ele>548.9</ele>
        <time>2015-04-23T07:45:50Z</time>
      </trkpt>
      <trkpt lat="45.64837" lon="4.64144">
        <ele>549</ele>
        <time>2015-04-23T07:45:53Z</time>
      </trkpt>
      <trkpt lat="45.64842" lon="4.64147">
        <ele>549</ele>
        <time>2015-04-23T07:45:57Z</time>
      </trkpt>
      <trkpt lat="45.64852" lon="4.6415">
        <ele>549</ele>
        <time>2015-04-23T07:46:03Z</time>
      </trkpt>
      <trkpt lat="45.6486" lon="4.64155">
        <ele>549</ele>
        <time>2015-04-23T07:46:08Z</time>
      </trkpt>
      <trkpt lat="45.64863" lon="4.64159">
        <ele>549</ele>
        <time>2015-04-23T07:46:11Z</time>
      </trkpt>
      <trkpt lat="45.64875" lon="4.64169">
        <ele>550</ele>
        <time>2015-04-23T07:46:24Z</time>
      </trkpt>
      <trkpt lat="45.6488" lon="4.64172">
        <ele>551</ele>
        <time>2015-04-23T07:46:28Z</time>
      </trkpt>
      <trkpt lat="45.64883" lon="4.64177">
        <ele>551</ele>
        <time>2015-04-23T07:46:31Z</time>
      </trkpt>
      <trkpt lat="45.6489" lon="4.64194">
        <ele>552</ele>
        <time>2015-04-23T07:46:42Z</time>
      </trkpt>
      <trkpt lat="45.64893" lon="4.642">
        <ele>552</ele>
        <time>2015-04-23T07:46:47Z</time>
      </trkpt>
      <trkpt lat="45.64901" lon="4.64204">
        <ele>552.5</ele>
        <time>2015-04-23T07:46:53Z</time>
      </trkpt>
      <trkpt lat="45.64904" lon="4.64209">
        <ele>553</ele>
        <time>2015-04-23T07:46:56Z</time>
      </trkpt>
      <trkpt lat="45.64908" lon="4.64227">
        <ele>554</ele>
        <time>2015-04-23T07:47:05Z</time>
      </trkpt>
      <trkpt lat="45.64906" lon="4.64236">
        <ele>554</ele>
        <time>2015-04-23T07:47:08Z</time>
      </trkpt>
      <trkpt lat="45.64904" lon="4.64243">
        <ele>554</ele>
        <time>2015-04-23T07:47:12Z</time>
      </trkpt>
      <trkpt lat="45.64918" lon="4.64242">
        <ele>555</ele>
        <time>2015-04-23T07:47:32Z</time>
      </trkpt>
      <trkpt lat="45.64924" lon="4.64244">
        <ele>556.7</ele>
        <time>2015-04-23T07:47:34Z</time>
      </trkpt>
      <trkpt lat="45.64928" lon="4.64244">
        <ele>556.7</ele>
        <time>2015-04-23T07:47:37Z</time>
      </trkpt>
      <trkpt lat="45.64942" lon="4.64243">
        <ele>558</ele>
        <time>2015-04-23T07:47:44Z</time>
      </trkpt>
      <trkpt lat="45.64949" lon="4.64244">
        <ele>558</ele>
        <time>2015-04-23T07:47:52Z</time>
      </trkpt>
      <trkpt lat="45.64951" lon="4.64251">
        <ele>558</ele>
        <time>2015-04-23T07:47:55Z</time>
      </trkpt>
      <trkpt lat="45.64953" lon="4.64258">
        <ele>558</ele>
        <time>2015-04-23T07:47:58Z</time>
      </trkpt>
      <trkpt lat="45.6496" lon="4.64265">
        <ele>559.9</ele>
        <time>2015-04-23T07:48:04Z</time>
      </trkpt>
      <trkpt lat="45.64962" lon="4.64272">
        <ele>559.9</ele>
        <time>2015-04-23T07:48:08Z</time>
      </trkpt>
      <trkpt lat="45.64965" lon="4.64285">
        <ele>560</ele>
        <time>2015-04-23T07:48:14Z</time>
      </trkpt>
      <trkpt lat="45.64965" lon="4.64294">
        <ele>560</ele>
        <time>2015-04-23T07:48:17Z</time>
      </trkpt>
      <trkpt lat="45.64967" lon="4.643">
        <ele>560</ele>
        <time>2015-04-23T07:48:20Z</time>
      </trkpt>
      <trkpt lat="45.64976" lon="4.64307">
        <ele>560</ele>
        <time>2015-04-23T07:48:26Z</time>
      </trkpt>
      <trkpt lat="45.64979" lon="4.64314">
        <ele>560</ele>
        <time>2015-04-23T07:48:30Z</time>
      </trkpt>
      <trkpt lat="45.64985" lon="4.64326">
        <ele>560</ele>
        <time>2015-04-23T07:48:35Z</time>
      </trkpt>
      <trkpt lat="45.64988" lon="4.64331">
        <ele>559.5</ele>
        <time>2015-04-23T07:48:38Z</time>
      </trkpt>
      <trkpt lat="45.64997" lon="4.64326">
        <ele>559</ele>
        <time>2015-04-23T07:48:44Z</time>
      </trkpt>
      <trkpt lat="45.65006" lon="4.64331">
        <ele>558.3</ele>
        <time>2015-04-23T07:48:50Z</time>
      </trkpt>
      <trkpt lat="45.65008" lon="4.64339">
        <ele>558</ele>
        <time>2015-04-23T07:48:53Z</time>
      </trkpt>
      <trkpt lat="45.6501" lon="4.64345">
        <ele>558</ele>
        <time>2015-04-23T07:48:56Z</time>
      </trkpt>
      <trkpt lat="45.65015" lon="4.64359">
        <ele>557.5</ele>
        <time>2015-04-23T07:49:02Z</time>
      </trkpt>
      <trkpt lat="45.65019" lon="4.64366">
        <ele>557</ele>
        <time>2015-04-23T07:49:05Z</time>
      </trkpt>
      <trkpt lat="45.65023" lon="4.6437">
        <ele>557</ele>
        <time>2015-04-23T07:49:08Z</time>
      </trkpt>
      <trkpt lat="45.65026" lon="4.64375">
        <ele>556.1</ele>
        <time>2015-04-23T07:49:12Z</time>
      </trkpt>
      <trkpt lat="45.65029" lon="4.64381">
        <ele>555</ele>
        <time>2015-04-23T07:49:15Z</time>
      </trkpt>
      <trkpt lat="45.65033" lon="4.64385">
        <ele>555</ele>
        <time>2015-04-23T07:49:19Z</time>
      </trkpt>
      <trkpt lat="45.65037" lon="4.6439">
        <ele>554.1</ele>
        <time>2015-04-23T07:49:23Z</time>
      </trkpt>
      <trkpt lat="45.65045" lon="4.64406">
        <ele>553</ele>
        <time>2015-04-23T07:49:30Z</time>
      </trkpt>
      <trkpt lat="45.65048" lon="4.64416">
        <ele>553</ele>
        <time>2015-04-23T07:49:34Z</time>
      </trkpt>
      <trkpt lat="45.65053" lon="4.64421">
        <ele>553</ele>
        <time>2015-04-23T07:49:38Z</time>
      </trkpt>
      <trkpt lat="45.65056" lon="4.64426">
        <ele>552.1</ele>
        <time>2015-04-23T07:49:42Z</time>
      </trkpt>
      <trkpt lat="45.65058" lon="4.64433">
        <ele>552</ele>
        <time>2015-04-23T07:49:45Z</time>
      </trkpt>
      <trkpt lat="45.65061" lon="4.64446">
        <ele>552</ele>
        <time>2015-04-23T07:49:51Z</time>
      </trkpt>
      <trkpt lat="45.65059" lon="4.64457">
        <ele>552</ele>
        <time>2015-04-23T07:49:55Z</time>
      </trkpt>
      <trkpt lat="45.65063" lon="4.64463">
        <ele>552</ele>
        <time>2015-04-23T07:49:59Z</time>
      </trkpt>
      <trkpt lat="45.65077" lon="4.64462">
        <ele>552</ele>
        <time>2015-04-23T07:50:07Z</time>
      </trkpt>
      <trkpt lat="45.65091" lon="4.6446">
        <ele>552</ele>
        <time>2015-04-23T07:50:16Z</time>
      </trkpt>
      <trkpt lat="45.65098" lon="4.6445">
        <ele>552</ele>
        <time>2015-04-23T07:50:27Z</time>
      </trkpt>
      <trkpt lat="45.65103" lon="4.64448">
        <ele>552</ele>
        <time>2015-04-23T07:50:31Z</time>
      </trkpt>
      <trkpt lat="45.65117" lon="4.64449">
        <ele>551</ele>
        <time>2015-04-23T07:50:39Z</time>
      </trkpt>
      <trkpt lat="45.65121" lon="4.64447">
        <ele>551</ele>
        <time>2015-04-23T07:50:43Z</time>
      </trkpt>
      <trkpt lat="45.65127" lon="4.64444">
        <ele>551</ele>
        <time>2015-04-23T07:50:47Z</time>
      </trkpt>
      <trkpt lat="45.65131" lon="4.64441">
        <ele>550.1</ele>
        <time>2015-04-23T07:50:50Z</time>
      </trkpt>
      <trkpt lat="45.65136" lon="4.64438">
        <ele>550.1</ele>
        <time>2015-04-23T07:50:53Z</time>
      </trkpt>
      <trkpt lat="45.65142" lon="4.64433">
        <ele>550</ele>
        <time>2015-04-23T07:50:58Z</time>
      </trkpt>
      <trkpt lat="45.65146" lon="4.64428">
        <ele>550</ele>
        <time>2015-04-23T07:51:02Z</time>
      </trkpt>
      <trkpt lat="45.65158" lon="4.64418">
        <ele>548.3</ele>
        <time>2015-04-23T07:51:09Z</time>
      </trkpt>
      <trkpt lat="45.65163" lon="4.64413">
        <ele>547.5</ele>
        <time>2015-04-23T07:51:12Z</time>
      </trkpt>
      <trkpt lat="45.65168" lon="4.6441">
        <ele>547</ele>
        <time>2015-04-23T07:51:15Z</time>
      </trkpt>
      <trkpt lat="45.65178" lon="4.64395">
        <ele>546.5</ele>
        <time>2015-04-23T07:51:25Z</time>
      </trkpt>
      <trkpt lat="45.65183" lon="4.64391">
        <ele>546</ele>
        <time>2015-04-23T07:51:28Z</time>
      </trkpt>
      <trkpt lat="45.65187" lon="4.64389">
        <ele>546</ele>
        <time>2015-04-23T07:51:30Z</time>
      </trkpt>
      <trkpt lat="45.65196" lon="4.64384">
        <ele>546</ele>
        <time>2015-04-23T07:51:36Z</time>
      </trkpt>
      <trkpt lat="45.652" lon="4.64379">
        <ele>546</ele>
        <time>2015-04-23T07:51:40Z</time>
      </trkpt>
      <trkpt lat="45.65203" lon="4.64375">
        <ele>546</ele>
        <time>2015-04-23T07:51:44Z</time>
      </trkpt>
      <trkpt lat="45.65211" lon="4.64366">
        <ele>546</ele>
        <time>2015-04-23T07:51:51Z</time>
      </trkpt>
      <trkpt lat="45.6522" lon="4.64362">
        <ele>546</ele>
        <time>2015-04-23T07:51:56Z</time>
      </trkpt>
      <trkpt lat="45.65224" lon="4.64357">
        <ele>546</ele>
        <time>2015-04-23T07:52:00Z</time>
      </trkpt>
      <trkpt lat="45.65231" lon="4.64348">
        <ele>546</ele>
        <time>2015-04-23T07:52:05Z</time>
      </trkpt>
      <trkpt lat="45.65238" lon="4.64339">
        <ele>546</ele>
        <time>2015-04-23T07:52:10Z</time>
      </trkpt>
      <trkpt lat="45.65243" lon="4.64335">
        <ele>546</ele>
        <time>2015-04-23T07:52:14Z</time>
      </trkpt>
      <trkpt lat="45.65254" lon="4.64327">
        <ele>546</ele>
        <time>2015-04-23T07:52:20Z</time>
      </trkpt>
      <trkpt lat="45.65261" lon="4.64327">
        <ele>546</ele>
        <time>2015-04-23T07:52:25Z</time>
      </trkpt>
      <trkpt lat="45.65264" lon="4.64321">
        <ele>545.5</ele>
        <time>2015-04-23T07:52:31Z</time>
      </trkpt>
      <trkpt lat="45.65269" lon="4.64318">
        <ele>544.1</ele>
        <time>2015-04-23T07:52:35Z</time>
      </trkpt>
      <trkpt lat="45.65279" lon="4.64315">
        <ele>544</ele>
        <time>2015-04-23T07:52:40Z</time>
      </trkpt>
      <trkpt lat="45.65286" lon="4.64305">
        <ele>543</ele>
        <time>2015-04-23T07:52:49Z</time>
      </trkpt>
      <trkpt lat="45.65291" lon="4.64306">
        <ele>542</ele>
        <time>2015-04-23T07:52:51Z</time>
      </trkpt>
      <trkpt lat="45.653" lon="4.64309">
        <ele>542</ele>
        <time>2015-04-23T07:52:54Z</time>
      </trkpt>
      <trkpt lat="45.65308" lon="4.64308">
        <ele>540.3</ele>
        <time>2015-04-23T07:53:00Z</time>
      </trkpt>
      <trkpt lat="45.65309" lon="4.643">
        <ele>539</ele>
        <time>2015-04-23T07:53:11Z</time>
      </trkpt>
      <trkpt lat="45.65313" lon="4.64295">
        <ele>539</ele>
        <time>2015-04-23T07:53:15Z</time>
      </trkpt>
      <trkpt lat="45.65318" lon="4.64291">
        <ele>539</ele>
        <time>2015-04-23T07:53:19Z</time>
      </trkpt>
      <trkpt lat="45.65322" lon="4.64289">
        <ele>538</ele>
        <time>2015-04-23T07:53:22Z</time>
      </trkpt>
      <trkpt lat="45.65332" lon="4.64284">
        <ele>537.3</ele>
        <time>2015-04-23T07:53:29Z</time>
      </trkpt>
      <trkpt lat="45.65337" lon="4.64283">
        <ele>537</ele>
        <time>2015-04-23T07:53:32Z</time>
      </trkpt>
      <trkpt lat="45.65346" lon="4.64277">
        <ele>535.1</ele>
        <time>2015-04-23T07:53:44Z</time>
      </trkpt>
      <trkpt lat="45.65356" lon="4.64277">
        <ele>534</ele>
        <time>2015-04-23T07:53:52Z</time>
      </trkpt>
      <trkpt lat="45.65366" lon="4.64278">
        <ele>534</ele>
        <time>2015-04-23T07:54:01Z</time>
      </trkpt>
      <trkpt lat="45.65371" lon="4.64279">
        <ele>534</ele>
        <time>2015-04-23T07:54:05Z</time>
      </trkpt>
      <trkpt lat="45.65377" lon="4.6428">
        <ele>533.1</ele>
        <time>2015-04-23T07:54:13Z</time>
      </trkpt>
      <trkpt lat="45.65382" lon="4.6428">
        <ele>533</ele>
        <time>2015-04-23T07:54:19Z</time>
      </trkpt>
      <trkpt lat="45.65391" lon="4.64278">
        <ele>532.5</ele>
        <time>2015-04-23T07:54:27Z</time>
      </trkpt>
      <trkpt lat="45.65396" lon="4.6428">
        <ele>528.7</ele>
        <time>2015-04-23T07:54:30Z</time>
      </trkpt>
      <trkpt lat="45.6541" lon="4.64284">
        <ele>527</ele>
        <time>2015-04-23T07:54:38Z</time>
      </trkpt>
      <trkpt lat="45.65424" lon="4.64284">
        <ele>524.6</ele>
        <time>2015-04-23T07:54:46Z</time>
      </trkpt>
      <trkpt lat="45.65429" lon="4.64285">
        <ele>524</ele>
        <time>2015-04-23T07:54:49Z</time>
      </trkpt>
      <trkpt lat="45.65434" lon="4.64287">
        <ele>523.5</ele>
        <time>2015-04-23T07:54:53Z</time>
      </trkpt>
      <trkpt lat="45.65448" lon="4.64288">
        <ele>514.5</ele>
        <time>2015-04-23T07:55:03Z</time>
      </trkpt>
      <trkpt lat="45.65453" lon="4.64287">
        <ele>513.1</ele>
        <time>2015-04-23T07:55:06Z</time>
      </trkpt>
      <trkpt lat="45.65458" lon="4.64284">
        <ele>512.3</ele>
        <time>2015-04-23T07:55:11Z</time>
      </trkpt>
      <trkpt lat="45.65465" lon="4.6428">
        <ele>510.5</ele>
        <time>2015-04-23T07:55:15Z</time>
      </trkpt>
      <trkpt lat="45.65469" lon="4.64276">
        <ele>510.5</ele>
        <time>2015-04-23T07:55:18Z</time>
      </trkpt>
      <trkpt lat="45.65472" lon="4.6427">
        <ele>510</ele>
        <time>2015-04-23T07:55:21Z</time>
      </trkpt>
      <trkpt lat="45.65475" lon="4.64263">
        <ele>510</ele>
        <time>2015-04-23T07:55:24Z</time>
      </trkpt>
      <trkpt lat="45.6548" lon="4.6425">
        <ele>508.5</ele>
        <time>2015-04-23T07:55:32Z</time>
      </trkpt>
      <trkpt lat="45.65484" lon="4.64243">
        <ele>507.6</ele>
        <time>2015-04-23T07:55:37Z</time>
      </trkpt>
      <trkpt lat="45.65488" lon="4.64238">
        <ele>504.1</ele>
        <time>2015-04-23T07:55:41Z</time>
      </trkpt>
      <trkpt lat="45.65491" lon="4.64233">
        <ele>503.1</ele>
        <time>2015-04-23T07:55:45Z</time>
      </trkpt>
      <trkpt lat="45.65496" lon="4.64222">
        <ele>502.5</ele>
        <time>2015-04-23T07:55:52Z</time>
      </trkpt>
      <trkpt lat="45.65499" lon="4.64216">
        <ele>502</ele>
        <time>2015-04-23T07:55:56Z</time>
      </trkpt>
      <trkpt lat="45.65509" lon="4.64202">
        <ele>497.8</ele>
        <time>2015-04-23T07:56:07Z</time>
      </trkpt>
      <trkpt lat="45.65512" lon="4.64196">
        <ele>494.1</ele>
        <time>2015-04-23T07:56:11Z</time>
      </trkpt>
      <trkpt lat="45.65519" lon="4.64187">
        <ele>492.4</ele>
        <time>2015-04-23T07:56:17Z</time>
      </trkpt>
      <trkpt lat="45.65529" lon="4.64171">
        <ele>492</ele>
        <time>2015-04-23T07:56:27Z</time>
      </trkpt>
      <trkpt lat="45.65534" lon="4.64162">
        <ele>489.3</ele>
        <time>2015-04-23T07:56:33Z</time>
      </trkpt>
      <trkpt lat="45.65537" lon="4.64156">
        <ele>488.1</ele>
        <time>2015-04-23T07:56:37Z</time>
      </trkpt>
      <trkpt lat="45.65543" lon="4.64149">
        <ele>488</ele>
        <time>2015-04-23T07:56:42Z</time>
      </trkpt>
      <trkpt lat="45.65547" lon="4.64145">
        <ele>487.3</ele>
        <time>2015-04-23T07:56:46Z</time>
      </trkpt>
      <trkpt lat="45.65552" lon="4.64141">
        <ele>486.5</ele>
        <time>2015-04-23T07:56:51Z</time>
      </trkpt>
      <trkpt lat="45.65554" lon="4.64135">
        <ele>485.5</ele>
        <time>2015-04-23T07:56:55Z</time>
      </trkpt>
      <trkpt lat="45.6556" lon="4.64124">
        <ele>485</ele>
        <time>2015-04-23T07:57:04Z</time>
      </trkpt>
      <trkpt lat="45.65564" lon="4.64119">
        <ele>484.1</ele>
        <time>2015-04-23T07:57:08Z</time>
      </trkpt>
      <trkpt lat="45.65567" lon="4.64114">
        <ele>484</ele>
        <time>2015-04-23T07:57:13Z</time>
      </trkpt>
      <trkpt lat="45.65571" lon="4.64112">
        <ele>484</ele>
        <time>2015-04-23T07:57:16Z</time>
      </trkpt>
      <trkpt lat="45.65576" lon="4.64107">
        <ele>484</ele>
        <time>2015-04-23T07:57:20Z</time>
      </trkpt>
      <trkpt lat="45.65582" lon="4.64105">
        <ele>484</ele>
        <time>2015-04-23T07:57:23Z</time>
      </trkpt>
      <trkpt lat="45.65592" lon="4.64103">
        <ele>484</ele>
        <time>2015-04-23T07:57:29Z</time>
      </trkpt>
      <trkpt lat="45.65597" lon="4.64099">
        <ele>484</ele>
        <time>2015-04-23T07:57:33Z</time>
      </trkpt>
      <trkpt lat="45.65601" lon="4.64095">
        <ele>484</ele>
        <time>2015-04-23T07:57:37Z</time>
      </trkpt>
      <trkpt lat="45.6561" lon="4.64093">
        <ele>484</ele>
        <time>2015-04-23T07:57:43Z</time>
      </trkpt>
      <trkpt lat="45.65615" lon="4.64091">
        <ele>484</ele>
        <time>2015-04-23T07:57:46Z</time>
      </trkpt>
      <trkpt lat="45.65619" lon="4.64086">
        <ele>484</ele>
        <time>2015-04-23T07:57:50Z</time>
      </trkpt>
      <trkpt lat="45.65621" lon="4.6408">
        <ele>484</ele>
        <time>2015-04-23T07:57:58Z</time>
      </trkpt>
      <trkpt lat="45.65629" lon="4.64072">
        <ele>484</ele>
        <time>2015-04-23T07:58:08Z</time>
      </trkpt>
      <trkpt lat="45.65633" lon="4.64069">
        <ele>484</ele>
        <time>2015-04-23T07:58:12Z</time>
      </trkpt>
      <trkpt lat="45.65639" lon="4.64066">
        <ele>484</ele>
        <time>2015-04-23T07:58:17Z</time>
      </trkpt>
      <trkpt lat="45.65643" lon="4.64065">
        <ele>484</ele>
        <time>2015-04-23T07:58:20Z</time>
      </trkpt>
      <trkpt lat="45.65654" lon="4.64064">
        <ele>484</ele>
        <time>2015-04-23T07:58:33Z</time>
      </trkpt>
      <trkpt lat="45.65666" lon="4.64062">
        <ele>483.2</ele>
        <time>2015-04-23T07:58:38Z</time>
      </trkpt>
      <trkpt lat="45.65679" lon="4.64056">
        <ele>483</ele>
        <time>2015-04-23T07:58:45Z</time>
      </trkpt>
      <trkpt lat="45.65687" lon="4.64054">
        <ele>483</ele>
        <time>2015-04-23T07:58:50Z</time>
      </trkpt>
      <trkpt lat="45.65699" lon="4.64045">
        <ele>483</ele>
        <time>2015-04-23T07:59:03Z</time>
      </trkpt>
      <trkpt lat="45.65703" lon="4.64041">
        <ele>482.2</ele>
        <time>2015-04-23T07:59:07Z</time>
      </trkpt>
      <trkpt lat="45.65707" lon="4.64036">
        <ele>482</ele>
        <time>2015-04-23T07:59:14Z</time>
      </trkpt>
      <trkpt lat="45.65713" lon="4.64026">
        <ele>478</ele>
        <time>2015-04-23T07:59:23Z</time>
      </trkpt>
      <trkpt lat="45.65722" lon="4.64012">
        <ele>477.5</ele>
        <time>2015-04-23T07:59:35Z</time>
      </trkpt>
      <trkpt lat="45.65732" lon="4.64005">
        <ele>477</ele>
        <time>2015-04-23T07:59:43Z</time>
      </trkpt>
      <trkpt lat="45.65739" lon="4.63997">
        <ele>477</ele>
        <time>2015-04-23T07:59:49Z</time>
      </trkpt>
      <trkpt lat="45.65743" lon="4.63984">
        <ele>477</ele>
        <time>2015-04-23T07:59:55Z</time>
      </trkpt>
      <trkpt lat="45.65747" lon="4.63968">
        <ele>475.6</ele>
        <time>2015-04-23T08:00:04Z</time>
      </trkpt>
      <trkpt lat="45.65748" lon="4.63961">
        <ele>473.5</ele>
        <time>2015-04-23T08:00:09Z</time>
      </trkpt>
      <trkpt lat="45.65751" lon="4.63955">
        <ele>472.5</ele>
        <time>2015-04-23T08:00:15Z</time>
      </trkpt>
      <trkpt lat="45.65751" lon="4.63948">
        <ele>465.1</ele>
        <time>2015-04-23T08:00:21Z</time>
      </trkpt>
      <trkpt lat="45.65757" lon="4.63944">
        <ele>463</ele>
        <time>2015-04-23T08:00:26Z</time>
      </trkpt>
      <trkpt lat="45.65762" lon="4.63943">
        <ele>460.1</ele>
        <time>2015-04-23T08:00:31Z</time>
      </trkpt>
      <trkpt lat="45.65767" lon="4.6394">
        <ele>458.4</ele>
        <time>2015-04-23T08:00:37Z</time>
      </trkpt>
      <trkpt lat="45.65772" lon="4.6394">
        <ele>457</ele>
        <time>2015-04-23T08:00:41Z</time>
      </trkpt>
      <trkpt lat="45.65776" lon="4.63935">
        <ele>457</ele>
        <time>2015-04-23T08:00:45Z</time>
      </trkpt>
      <trkpt lat="45.65779" lon="4.63929">
        <ele>455.1</ele>
        <time>2015-04-23T08:00:51Z</time>
      </trkpt>
      <trkpt lat="45.65784" lon="4.63927">
        <ele>455</ele>
        <time>2015-04-23T08:00:55Z</time>
      </trkpt>
      <trkpt lat="45.65796" lon="4.63924">
        <ele>451.3</ele>
        <time>2015-04-23T08:01:09Z</time>
      </trkpt>
      <trkpt lat="45.65806" lon="4.63925">
        <ele>449</ele>
        <time>2015-04-23T08:01:15Z</time>
      </trkpt>
      <trkpt lat="45.6582" lon="4.63925">
        <ele>448</ele>
        <time>2015-04-23T08:01:26Z</time>
      </trkpt>
      <trkpt lat="45.65827" lon="4.6393">
        <ele>446.5</ele>
        <time>2015-04-23T08:01:36Z</time>
      </trkpt>
      <trkpt lat="45.65832" lon="4.63935">
        <ele>446.5</ele>
        <time>2015-04-23T08:01:40Z</time>
      </trkpt>
      <trkpt lat="45.65838" lon="4.63938">
        <ele>446</ele>
        <time>2015-04-23T08:01:43Z</time>
      </trkpt>
      <trkpt lat="45.65846" lon="4.63939">
        <ele>446</ele>
        <time>2015-04-23T08:01:49Z</time>
      </trkpt>
      <trkpt lat="45.6586" lon="4.63939">
        <ele>446</ele>
        <time>2015-04-23T08:02:03Z</time>
      </trkpt>
      <trkpt lat="45.65875" lon="4.63938">
        <ele>443.6</ele>
        <time>2015-04-23T08:02:13Z</time>
      </trkpt>
      <trkpt lat="45.6588" lon="4.63942">
        <ele>440</ele>
        <time>2015-04-23T08:02:17Z</time>
      </trkpt>
      <trkpt lat="45.65889" lon="4.63947">
        <ele>438.2</ele>
        <time>2015-04-23T08:02:23Z</time>
      </trkpt>
      <trkpt lat="45.65894" lon="4.6395">
        <ele>435.9</ele>
        <time>2015-04-23T08:02:27Z</time>
      </trkpt>
      <trkpt lat="45.65896" lon="4.63956">
        <ele>435.1</ele>
        <time>2015-04-23T08:02:32Z</time>
      </trkpt>
      <trkpt lat="45.65901" lon="4.63958">
        <ele>434</ele>
        <time>2015-04-23T08:02:38Z</time>
      </trkpt>
      <trkpt lat="45.6591" lon="4.63962">
        <ele>432.1</ele>
        <time>2015-04-23T08:02:45Z</time>
      </trkpt>
      <trkpt lat="45.65916" lon="4.63952">
        <ele>431</ele>
        <time>2015-04-23T08:02:53Z</time>
      </trkpt>
      <trkpt lat="45.65924" lon="4.63943">
        <ele>430.3</ele>
        <time>2015-04-23T08:02:58Z</time>
      </trkpt>
      <trkpt lat="45.65933" lon="4.63938">
        <ele>430</ele>
        <time>2015-04-23T08:03:02Z</time>
      </trkpt>
      <trkpt lat="45.65938" lon="4.63935">
        <ele>430</ele>
        <time>2015-04-23T08:03:05Z</time>
      </trkpt>
      <trkpt lat="45.65947" lon="4.63931">
        <ele>430</ele>
        <time>2015-04-23T08:03:09Z</time>
      </trkpt>
      <trkpt lat="45.65953" lon="4.63929">
        <ele>428.3</ele>
        <time>2015-04-23T08:03:12Z</time>
      </trkpt>
      <trkpt lat="45.65962" lon="4.63926">
        <ele>426.5</ele>
        <time>2015-04-23T08:03:18Z</time>
      </trkpt>
      <trkpt lat="45.65966" lon="4.63922">
        <ele>425.1</ele>
        <time>2015-04-23T08:03:22Z</time>
      </trkpt>
      <trkpt lat="45.65974" lon="4.63916">
        <ele>420.4</ele>
        <time>2015-04-23T08:03:29Z</time>
      </trkpt>
      <trkpt lat="45.65977" lon="4.63909">
        <ele>418.6</ele>
        <time>2015-04-23T08:03:34Z</time>
      </trkpt>
      <trkpt lat="45.65978" lon="4.63903">
        <ele>417</ele>
        <time>2015-04-23T08:03:39Z</time>
      </trkpt>
      <trkpt lat="45.65976" lon="4.63896">
        <ele>417</ele>
        <time>2015-04-23T08:03:44Z</time>
      </trkpt>
      <trkpt lat="45.65974" lon="4.6389">
        <ele>415.1</ele>
        <time>2015-04-23T08:03:49Z</time>
      </trkpt>
      <trkpt lat="45.65969" lon="4.6389">
        <ele>415.1</ele>
        <time>2015-04-23T08:03:53Z</time>
      </trkpt>
      <trkpt lat="45.65966" lon="4.63898">
        <ele>414</ele>
        <time>2015-04-23T08:03:58Z</time>
      </trkpt>
      <trkpt lat="45.65967" lon="4.63906">
        <ele>413.5</ele>
        <time>2015-04-23T08:04:03Z</time>
      </trkpt>
      <trkpt lat="45.6597" lon="4.6392">
        <ele>411.3</ele>
        <time>2015-04-23T08:04:09Z</time>
      </trkpt>
      <trkpt lat="45.65974" lon="4.63928">
        <ele>408.4</ele>
        <time>2015-04-23T08:04:12Z</time>
      </trkpt>
      <trkpt lat="45.65978" lon="4.63933">
        <ele>408.4</ele>
        <time>2015-04-23T08:04:15Z</time>
      </trkpt>
      <trkpt lat="45.65985" lon="4.63943">
        <ele>407.1</ele>
        <time>2015-04-23T08:04:22Z</time>
      </trkpt>
      <trkpt lat="45.65986" lon="4.63949">
        <ele>406.1</ele>
        <time>2015-04-23T08:04:26Z</time>
      </trkpt>
      <trkpt lat="45.65984" lon="4.63956">
        <ele>406.1</ele>
        <time>2015-04-23T08:04:30Z</time>
      </trkpt>
      <trkpt lat="45.65984" lon="4.63963">
        <ele>406</ele>
        <time>2015-04-23T08:04:35Z</time>
      </trkpt>
      <trkpt lat="45.65985" lon="4.6397">
        <ele>406</ele>
        <time>2015-04-23T08:04:41Z</time>
      </trkpt>
      <trkpt lat="45.65987" lon="4.63978">
        <ele>405</ele>
        <time>2015-04-23T08:04:46Z</time>
      </trkpt>
      <trkpt lat="45.65986" lon="4.63985">
        <ele>405</ele>
        <time>2015-04-23T08:04:51Z</time>
      </trkpt>
      <trkpt lat="45.65989" lon="4.63991">
        <ele>404.3</ele>
        <time>2015-04-23T08:04:55Z</time>
      </trkpt>
      <trkpt lat="45.65992" lon="4.63996">
        <ele>404</ele>
        <time>2015-04-23T08:04:58Z</time>
      </trkpt>
      <trkpt lat="45.65993" lon="4.64002">
        <ele>404</ele>
        <time>2015-04-23T08:05:00Z</time>
      </trkpt>
      <trkpt lat="45.65998" lon="4.64004">
        <ele>404</ele>
        <time>2015-04-23T08:05:06Z</time>
      </trkpt>
      <trkpt lat="45.66009" lon="4.64014">
        <ele>404</ele>
        <time>2015-04-23T08:05:15Z</time>
      </trkpt>
      <trkpt lat="45.66011" lon="4.64021">
        <ele>404</ele>
        <time>2015-04-23T08:05:19Z</time>
      </trkpt>
      <trkpt lat="45.66011" lon="4.64034">
        <ele>404</ele>
        <time>2015-04-23T08:05:30Z</time>
      </trkpt>
      <trkpt lat="45.6601" lon="4.64041">
        <ele>407.6</ele>
        <time>2015-04-23T08:05:41Z</time>
      </trkpt>
      <trkpt lat="45.66004" lon="4.64052">
        <ele>408</ele>
        <time>2015-04-23T08:05:48Z</time>
      </trkpt>
      <trkpt lat="45.66015" lon="4.64059">
        <ele>408</ele>
        <time>2015-04-23T08:05:55Z</time>
      </trkpt>
      <trkpt lat="45.66018" lon="4.64065">
        <ele>408.9</ele>
        <time>2015-04-23T08:05:59Z</time>
      </trkpt>
      <trkpt lat="45.66019" lon="4.64079">
        <ele>410</ele>
        <time>2015-04-23T08:06:10Z</time>
      </trkpt>
      <trkpt lat="45.66022" lon="4.64085">
        <ele>410</ele>
        <time>2015-04-23T08:06:14Z</time>
      </trkpt>
      <trkpt lat="45.66024" lon="4.64092">
        <ele>410</ele>
        <time>2015-04-23T08:06:18Z</time>
      </trkpt>
      <trkpt lat="45.66031" lon="4.64106">
        <ele>411</ele>
        <time>2015-04-23T08:06:25Z</time>
      </trkpt>
      <trkpt lat="45.66027" lon="4.64112">
        <ele>411</ele>
        <time>2015-04-23T08:06:31Z</time>
      </trkpt>
      <trkpt lat="45.66023" lon="4.64112">
        <ele>412.5</ele>
        <time>2015-04-23T08:06:39Z</time>
      </trkpt>
      <trkpt lat="45.66017" lon="4.64108">
        <ele>413.9</ele>
        <time>2015-04-23T08:06:43Z</time>
      </trkpt>
      <trkpt lat="45.66012" lon="4.64107">
        <ele>414.9</ele>
        <time>2015-04-23T08:06:47Z</time>
      </trkpt>
      <trkpt lat="45.6601" lon="4.64113">
        <ele>417.5</ele>
        <time>2015-04-23T08:06:53Z</time>
      </trkpt>
      <trkpt lat="45.66006" lon="4.64117">
        <ele>419</ele>
        <time>2015-04-23T08:06:59Z</time>
      </trkpt>
      <trkpt lat="45.66001" lon="4.6412">
        <ele>420</ele>
        <time>2015-04-23T08:07:03Z</time>
      </trkpt>
      <trkpt lat="45.65997" lon="4.64116">
        <ele>420.5</ele>
        <time>2015-04-23T08:07:08Z</time>
      </trkpt>
      <trkpt lat="45.65992" lon="4.64119">
        <ele>421</ele>
        <time>2015-04-23T08:07:17Z</time>
      </trkpt>
      <trkpt lat="45.65988" lon="4.64117">
        <ele>421</ele>
        <time>2015-04-23T08:07:20Z</time>
      </trkpt>
      <trkpt lat="45.65977" lon="4.6411">
        <ele>422</ele>
        <time>2015-04-23T08:07:30Z</time>
      </trkpt>
      <trkpt lat="45.65967" lon="4.64111">
        <ele>422.9</ele>
        <time>2015-04-23T08:07:41Z</time>
      </trkpt>
      <trkpt lat="45.65963" lon="4.64118">
        <ele>426.7</ele>
        <time>2015-04-23T08:07:52Z</time>
      </trkpt>
      <trkpt lat="45.65958" lon="4.64117">
        <ele>426.7</ele>
        <time>2015-04-23T08:07:56Z</time>
      </trkpt>
      <trkpt lat="45.65954" lon="4.64112">
        <ele>428</ele>
        <time>2015-04-23T08:07:58Z</time>
      </trkpt>
      <trkpt lat="45.6595" lon="4.64108">
        <ele>428</ele>
        <time>2015-04-23T08:08:00Z</time>
      </trkpt>
      <trkpt lat="45.65945" lon="4.64107">
        <ele>428</ele>
        <time>2015-04-23T08:08:02Z</time>
      </trkpt>
      <trkpt lat="45.65941" lon="4.64118">
        <ele>428.7</ele>
        <time>2015-04-23T08:08:09Z</time>
      </trkpt>
      <trkpt lat="45.65937" lon="4.64123">
        <ele>430</ele>
        <time>2015-04-23T08:08:14Z</time>
      </trkpt>
      <trkpt lat="45.65928" lon="4.64125">
        <ele>432.4</ele>
        <time>2015-04-23T08:08:19Z</time>
      </trkpt>
      <trkpt lat="45.65925" lon="4.6413">
        <ele>433.5</ele>
        <time>2015-04-23T08:08:23Z</time>
      </trkpt>
      <trkpt lat="45.65923" lon="4.64137">
        <ele>434</ele>
        <time>2015-04-23T08:08:30Z</time>
      </trkpt>
      <trkpt lat="45.65923" lon="4.6415">
        <ele>435.9</ele>
        <time>2015-04-23T08:08:40Z</time>
      </trkpt>
      <trkpt lat="45.65924" lon="4.64158">
        <ele>438.7</ele>
        <time>2015-04-23T08:08:46Z</time>
      </trkpt>
      <trkpt lat="45.65922" lon="4.64165">
        <ele>440.4</ele>
        <time>2015-04-23T08:08:52Z</time>
      </trkpt>
      <trkpt lat="45.65919" lon="4.6417">
        <ele>441.8</ele>
        <time>2015-04-23T08:08:56Z</time>
      </trkpt>
      <trkpt lat="45.65919" lon="4.64177">
        <ele>442.9</ele>
        <time>2015-04-23T08:09:00Z</time>
      </trkpt>
      <trkpt lat="45.65918" lon="4.64191">
        <ele>444</ele>
        <time>2015-04-23T08:09:09Z</time>
      </trkpt>
      <trkpt lat="45.65917" lon="4.64197">
        <ele>444</ele>
        <time>2015-04-23T08:09:13Z</time>
      </trkpt>
      <trkpt lat="45.65915" lon="4.64203">
        <ele>444</ele>
        <time>2015-04-23T08:09:17Z</time>
      </trkpt>
      <trkpt lat="45.65915" lon="4.6421">
        <ele>445</ele>
        <time>2015-04-23T08:09:23Z</time>
      </trkpt>
      <trkpt lat="45.6592" lon="4.64214">
        <ele>445</ele>
        <time>2015-04-23T08:09:27Z</time>
      </trkpt>
      <trkpt lat="45.65925" lon="4.64222">
        <ele>446</ele>
        <time>2015-04-23T08:09:32Z</time>
      </trkpt>
      <trkpt lat="45.65927" lon="4.64228">
        <ele>448.9</ele>
        <time>2015-04-23T08:09:43Z</time>
      </trkpt>
      <trkpt lat="45.65931" lon="4.64232">
        <ele>449</ele>
        <time>2015-04-23T08:09:48Z</time>
      </trkpt>
      <trkpt lat="45.65934" lon="4.64238">
        <ele>449</ele>
        <time>2015-04-23T08:09:55Z</time>
      </trkpt>
      <trkpt lat="45.65938" lon="4.64242">
        <ele>449</ele>
        <time>2015-04-23T08:10:01Z</time>
      </trkpt>
      <trkpt lat="45.65946" lon="4.6425">
        <ele>449.8</ele>
        <time>2015-04-23T08:10:10Z</time>
      </trkpt>
      <trkpt lat="45.65949" lon="4.64255">
        <ele>450</ele>
        <time>2015-04-23T08:10:16Z</time>
      </trkpt>
      <trkpt lat="45.6595" lon="4.64264">
        <ele>450</ele>
        <time>2015-04-23T08:10:24Z</time>
      </trkpt>
      <trkpt lat="45.65952" lon="4.64272">
        <ele>450</ele>
        <time>2015-04-23T08:10:31Z</time>
      </trkpt>
      <trkpt lat="45.65954" lon="4.64278">
        <ele>451.4</ele>
        <time>2015-04-23T08:10:36Z</time>
      </trkpt>
      <trkpt lat="45.65967" lon="4.64289">
        <ele>453.7</ele>
        <time>2015-04-23T08:10:45Z</time>
      </trkpt>
      <trkpt lat="45.65974" lon="4.64297">
        <ele>455.9</ele>
        <time>2015-04-23T08:10:52Z</time>
      </trkpt>
      <trkpt lat="45.65979" lon="4.643">
        <ele>456.9</ele>
        <time>2015-04-23T08:10:57Z</time>
      </trkpt>
      <trkpt lat="45.65982" lon="4.64306">
        <ele>456.9</ele>
        <time>2015-04-23T08:11:01Z</time>
      </trkpt>
      <trkpt lat="45.65988" lon="4.64317">
        <ele>457</ele>
        <time>2015-04-23T08:11:09Z</time>
      </trkpt>
      <trkpt lat="45.65988" lon="4.64325">
        <ele>457</ele>
        <time>2015-04-23T08:11:14Z</time>
      </trkpt>
      <trkpt lat="45.65985" lon="4.64331">
        <ele>457</ele>
        <time>2015-04-23T08:11:21Z</time>
      </trkpt>
      <trkpt lat="45.65983" lon="4.64339">
        <ele>457</ele>
        <time>2015-04-23T08:11:27Z</time>
      </trkpt>
      <trkpt lat="45.65981" lon="4.64346">
        <ele>457</ele>
        <time>2015-04-23T08:11:30Z</time>
      </trkpt>
      <trkpt lat="45.65977" lon="4.64353">
        <ele>457</ele>
        <time>2015-04-23T08:11:32Z</time>
      </trkpt>
      <trkpt lat="45.65972" lon="4.64365">
        <ele>457</ele>
        <time>2015-04-23T08:11:39Z</time>
      </trkpt>
      <trkpt lat="45.65973" lon="4.64372">
        <ele>457</ele>
        <time>2015-04-23T08:11:47Z</time>
      </trkpt>
      <trkpt lat="45.65973" lon="4.64379">
        <ele>457.8</ele>
        <time>2015-04-23T08:11:52Z</time>
      </trkpt>
      <trkpt lat="45.65966" lon="4.64396">
        <ele>460</ele>
        <time>2015-04-23T08:12:05Z</time>
      </trkpt>
      <trkpt lat="45.65962" lon="4.64403">
        <ele>462.5</ele>
        <time>2015-04-23T08:12:10Z</time>
      </trkpt>
      <trkpt lat="45.65962" lon="4.6441">
        <ele>463.5</ele>
        <time>2015-04-23T08:12:16Z</time>
      </trkpt>
      <trkpt lat="45.6596" lon="4.64417">
        <ele>464</ele>
        <time>2015-04-23T08:12:22Z</time>
      </trkpt>
      <trkpt lat="45.65955" lon="4.64423">
        <ele>464.5</ele>
        <time>2015-04-23T08:12:27Z</time>
      </trkpt>
      <trkpt lat="45.65952" lon="4.64429">
        <ele>464.5</ele>
        <time>2015-04-23T08:12:31Z</time>
      </trkpt>
      <trkpt lat="45.6595" lon="4.64435">
        <ele>467.7</ele>
        <time>2015-04-23T08:12:36Z</time>
      </trkpt>
      <trkpt lat="45.65953" lon="4.6444">
        <ele>468.5</ele>
        <time>2015-04-23T08:12:43Z</time>
      </trkpt>
      <trkpt lat="45.65954" lon="4.64447">
        <ele>470</ele>
        <time>2015-04-23T08:12:49Z</time>
      </trkpt>
      <trkpt lat="45.65951" lon="4.64453">
        <ele>470</ele>
        <time>2015-04-23T08:12:53Z</time>
      </trkpt>
      <trkpt lat="45.65943" lon="4.64459">
        <ele>471</ele>
        <time>2015-04-23T08:13:00Z</time>
      </trkpt>
      <trkpt lat="45.65927" lon="4.64453">
        <ele>471</ele>
        <time>2015-04-23T08:13:05Z</time>
      </trkpt>
      <trkpt lat="45.65918" lon="4.6445">
        <ele>471</ele>
        <time>2015-04-23T08:13:12Z</time>
      </trkpt>
      <trkpt lat="45.65917" lon="4.64458">
        <ele>471</ele>
        <time>2015-04-23T08:13:19Z</time>
      </trkpt>
      <trkpt lat="45.65915" lon="4.64465">
        <ele>471</ele>
        <time>2015-04-23T08:13:24Z</time>
      </trkpt>
      <trkpt lat="45.65914" lon="4.64471">
        <ele>471.5</ele>
        <time>2015-04-23T08:13:28Z</time>
      </trkpt>
      <trkpt lat="45.65914" lon="4.64479">
        <ele>472</ele>
        <time>2015-04-23T08:13:33Z</time>
      </trkpt>
      <trkpt lat="45.65913" lon="4.64498">
        <ele>474</ele>
        <time>2015-04-23T08:13:50Z</time>
      </trkpt>
      <trkpt lat="45.65908" lon="4.64508">
        <ele>475.7</ele>
        <time>2015-04-23T08:13:58Z</time>
      </trkpt>
      <trkpt lat="45.65907" lon="4.64521">
        <ele>476</ele>
        <time>2015-04-23T08:14:05Z</time>
      </trkpt>
      <trkpt lat="45.65912" lon="4.64524">
        <ele>476.7</ele>
        <time>2015-04-23T08:14:10Z</time>
      </trkpt>
      <trkpt lat="45.65916" lon="4.6453">
        <ele>477</ele>
        <time>2015-04-23T08:14:15Z</time>
      </trkpt>
      <trkpt lat="45.65922" lon="4.64541">
        <ele>479.7</ele>
        <time>2015-04-23T08:14:22Z</time>
      </trkpt>
      <trkpt lat="45.65922" lon="4.64548">
        <ele>480.9</ele>
        <time>2015-04-23T08:14:26Z</time>
      </trkpt>
      <trkpt lat="45.6592" lon="4.64561">
        <ele>482</ele>
        <time>2015-04-23T08:14:35Z</time>
      </trkpt>
      <trkpt lat="45.65922" lon="4.64575">
        <ele>483.7</ele>
        <time>2015-04-23T08:14:44Z</time>
      </trkpt>
      <trkpt lat="45.65923" lon="4.64582">
        <ele>486</ele>
        <time>2015-04-23T08:14:50Z</time>
      </trkpt>
      <trkpt lat="45.6592" lon="4.64588">
        <ele>486</ele>
        <time>2015-04-23T08:14:54Z</time>
      </trkpt>
      <trkpt lat="45.65918" lon="4.64594">
        <ele>487</ele>
        <time>2015-04-23T08:14:59Z</time>
      </trkpt>
      <trkpt lat="45.6592" lon="4.646">
        <ele>489</ele>
        <time>2015-04-23T08:15:09Z</time>
      </trkpt>
      <trkpt lat="45.6592" lon="4.64618">
        <ele>490.7</ele>
        <time>2015-04-23T08:15:22Z</time>
      </trkpt>
      <trkpt lat="45.65917" lon="4.64631">
        <ele>491</ele>
        <time>2015-04-23T08:15:27Z</time>
      </trkpt>
      <trkpt lat="45.65914" lon="4.64637">
        <ele>492.5</ele>
        <time>2015-04-23T08:15:30Z</time>
      </trkpt>
      <trkpt lat="45.65913" lon="4.64643">
        <ele>493</ele>
        <time>2015-04-23T08:15:38Z</time>
      </trkpt>
      <trkpt lat="45.65916" lon="4.64649">
        <ele>493.9</ele>
        <time>2015-04-23T08:15:43Z</time>
      </trkpt>
      <trkpt lat="45.65915" lon="4.64656">
        <ele>494.5</ele>
        <time>2015-04-23T08:15:49Z</time>
      </trkpt>
      <trkpt lat="45.65914" lon="4.64662">
        <ele>494.5</ele>
        <time>2015-04-23T08:15:51Z</time>
      </trkpt>
      <trkpt lat="45.65913" lon="4.64671">
        <ele>495</ele>
        <time>2015-04-23T08:15:54Z</time>
      </trkpt>
      <trkpt lat="45.65915" lon="4.64678">
        <ele>495</ele>
        <time>2015-04-23T08:15:57Z</time>
      </trkpt>
      <trkpt lat="45.6592" lon="4.6469">
        <ele>495</ele>
        <time>2015-04-23T08:16:05Z</time>
      </trkpt>
      <trkpt lat="45.65914" lon="4.64708">
        <ele>495</ele>
        <time>2015-04-23T08:16:12Z</time>
      </trkpt>
      <trkpt lat="45.65914" lon="4.64714">
        <ele>495</ele>
        <time>2015-04-23T08:16:15Z</time>
      </trkpt>
      <trkpt lat="45.65912" lon="4.64735">
        <ele>496</ele>
        <time>2015-04-23T08:16:28Z</time>
      </trkpt>
      <trkpt lat="45.65909" lon="4.64741">
        <ele>496</ele>
        <time>2015-04-23T08:16:30Z</time>
      </trkpt>
      <trkpt lat="45.65906" lon="4.64749">
        <ele>496</ele>
        <time>2015-04-23T08:16:33Z</time>
      </trkpt>
      <trkpt lat="45.65907" lon="4.64755">
        <ele>496</ele>
        <time>2015-04-23T08:16:38Z</time>
      </trkpt>
      <trkpt lat="45.65908" lon="4.64763">
        <ele>496.8</ele>
        <time>2015-04-23T08:16:44Z</time>
      </trkpt>
      <trkpt lat="45.6591" lon="4.64769">
        <ele>498.9</ele>
        <time>2015-04-23T08:16:49Z</time>
      </trkpt>
      <trkpt lat="45.65909" lon="4.64776">
        <ele>498.9</ele>
        <time>2015-04-23T08:16:53Z</time>
      </trkpt>
      <trkpt lat="45.65905" lon="4.64789">
        <ele>500.5</ele>
        <time>2015-04-23T08:17:01Z</time>
      </trkpt>
      <trkpt lat="45.65902" lon="4.64796">
        <ele>501</ele>
        <time>2015-04-23T08:17:05Z</time>
      </trkpt>
      <trkpt lat="45.65899" lon="4.648">
        <ele>501</ele>
        <time>2015-04-23T08:17:09Z</time>
      </trkpt>
      <trkpt lat="45.65889" lon="4.64804">
        <ele>501.9</ele>
        <time>2015-04-23T08:17:19Z</time>
      </trkpt>
      <trkpt lat="45.65883" lon="4.64805">
        <ele>502.7</ele>
        <time>2015-04-23T08:17:22Z</time>
      </trkpt>
      <trkpt lat="45.65878" lon="4.64808">
        <ele>502.7</ele>
        <time>2015-04-23T08:17:25Z</time>
      </trkpt>
      <trkpt lat="45.65871" lon="4.64818">
        <ele>503</ele>
        <time>2015-04-23T08:17:32Z</time>
      </trkpt>
      <trkpt lat="45.6587" lon="4.64826">
        <ele>506.8</ele>
        <time>2015-04-23T08:17:36Z</time>
      </trkpt>
      <trkpt lat="45.65867" lon="4.64832">
        <ele>506.8</ele>
        <time>2015-04-23T08:17:39Z</time>
      </trkpt>
      <trkpt lat="45.65862" lon="4.64835">
        <ele>507.9</ele>
        <time>2015-04-23T08:17:42Z</time>
      </trkpt>
      <trkpt lat="45.6586" lon="4.6484">
        <ele>508</ele>
        <time>2015-04-23T08:17:47Z</time>
      </trkpt>
      <trkpt lat="45.6586" lon="4.64847">
        <ele>508.7</ele>
        <time>2015-04-23T08:17:52Z</time>
      </trkpt>
      <trkpt lat="45.65857" lon="4.64853">
        <ele>509</ele>
        <time>2015-04-23T08:17:59Z</time>
      </trkpt>
      <trkpt lat="45.65853" lon="4.64858">
        <ele>509</ele>
        <time>2015-04-23T08:18:07Z</time>
      </trkpt>
      <trkpt lat="45.6585" lon="4.64863">
        <ele>509</ele>
        <time>2015-04-23T08:18:14Z</time>
      </trkpt>
      <trkpt lat="45.65845" lon="4.64865">
        <ele>509</ele>
        <time>2015-04-23T08:18:20Z</time>
      </trkpt>
      <trkpt lat="45.65841" lon="4.64877">
        <ele>508.2</ele>
        <time>2015-04-23T08:18:29Z</time>
      </trkpt>
      <trkpt lat="45.65837" lon="4.64883">
        <ele>508.9</ele>
        <time>2015-04-23T08:18:32Z</time>
      </trkpt>
      <trkpt lat="45.65831" lon="4.64892">
        <ele>509</ele>
        <time>2015-04-23T08:18:38Z</time>
      </trkpt>
      <trkpt lat="45.65823" lon="4.64895">
        <ele>509</ele>
        <time>2015-04-23T08:18:44Z</time>
      </trkpt>
      <trkpt lat="45.65818" lon="4.64897">
        <ele>509</ele>
        <time>2015-04-23T08:18:47Z</time>
      </trkpt>
      <trkpt lat="45.65808" lon="4.64901">
        <ele>509</ele>
        <time>2015-04-23T08:18:57Z</time>
      </trkpt>
      <trkpt lat="45.65801" lon="4.64898">
        <ele>509.9</ele>
        <time>2015-04-23T08:18:59Z</time>
      </trkpt>
      <trkpt lat="45.65796" lon="4.649">
        <ele>509.9</ele>
        <time>2015-04-23T08:19:03Z</time>
      </trkpt>
      <trkpt lat="45.65793" lon="4.64912">
        <ele>510.9</ele>
        <time>2015-04-23T08:19:11Z</time>
      </trkpt>
      <trkpt lat="45.6579" lon="4.6492">
        <ele>511</ele>
        <time>2015-04-23T08:19:17Z</time>
      </trkpt>
      <trkpt lat="45.65787" lon="4.64928">
        <ele>511</ele>
        <time>2015-04-23T08:19:23Z</time>
      </trkpt>
      <trkpt lat="45.65785" lon="4.64935">
        <ele>511</ele>
        <time>2015-04-23T08:19:27Z</time>
      </trkpt>
      <trkpt lat="45.65776" lon="4.64938">
        <ele>512</ele>
        <time>2015-04-23T08:19:32Z</time>
      </trkpt>
      <trkpt lat="45.65772" lon="4.64941">
        <ele>512</ele>
        <time>2015-04-23T08:19:35Z</time>
      </trkpt>
      <trkpt lat="45.65767" lon="4.64952">
        <ele>514.4</ele>
        <time>2015-04-23T08:19:47Z</time>
      </trkpt>
      <trkpt lat="45.65763" lon="4.64957">
        <ele>515.5</ele>
        <time>2015-04-23T08:19:52Z</time>
      </trkpt>
      <trkpt lat="45.65759" lon="4.64961">
        <ele>521</ele>
        <time>2015-04-23T08:20:23Z</time>
      </trkpt>
      <trkpt lat="45.65751" lon="4.64969">
        <ele>521</ele>
        <time>2015-04-23T08:20:36Z</time>
      </trkpt>
      <trkpt lat="45.65744" lon="4.64978">
        <ele>521</ele>
        <time>2015-04-23T08:20:43Z</time>
      </trkpt>
      <trkpt lat="45.65739" lon="4.64981">
        <ele>521</ele>
        <time>2015-04-23T08:20:47Z</time>
      </trkpt>
      <trkpt lat="45.65735" lon="4.64985">
        <ele>521</ele>
        <time>2015-04-23T08:20:51Z</time>
      </trkpt>
      <trkpt lat="45.65727" lon="4.64992">
        <ele>521.8</ele>
        <time>2015-04-23T08:20:59Z</time>
      </trkpt>
      <trkpt lat="45.65724" lon="4.65003">
        <ele>522</ele>
        <time>2015-04-23T08:21:07Z</time>
      </trkpt>
      <trkpt lat="45.6572" lon="4.65009">
        <ele>522</ele>
        <time>2015-04-23T08:21:11Z</time>
      </trkpt>
      <trkpt lat="45.65713" lon="4.65017">
        <ele>522</ele>
        <time>2015-04-23T08:21:18Z</time>
      </trkpt>
      <trkpt lat="45.6571" lon="4.6503">
        <ele>522</ele>
        <time>2015-04-23T08:21:25Z</time>
      </trkpt>
      <trkpt lat="45.65711" lon="4.65037">
        <ele>522</ele>
        <time>2015-04-23T08:21:28Z</time>
      </trkpt>
      <trkpt lat="45.65701" lon="4.6504">
        <ele>519.8</ele>
        <time>2015-04-23T08:21:35Z</time>
      </trkpt>
      <trkpt lat="45.65696" lon="4.65041">
        <ele>518.3</ele>
        <time>2015-04-23T08:21:38Z</time>
      </trkpt>
      <trkpt lat="45.65689" lon="4.6505">
        <ele>517.1</ele>
        <time>2015-04-23T08:21:45Z</time>
      </trkpt>
      <trkpt lat="45.65681" lon="4.65056">
        <ele>516</ele>
        <time>2015-04-23T08:21:51Z</time>
      </trkpt>
      <trkpt lat="45.65668" lon="4.65064">
        <ele>512</ele>
        <time>2015-04-23T08:22:00Z</time>
      </trkpt>
      <trkpt lat="45.6566" lon="4.65071">
        <ele>512</ele>
        <time>2015-04-23T08:22:09Z</time>
      </trkpt>
      <trkpt lat="45.65648" lon="4.65082">
        <ele>512</ele>
        <time>2015-04-23T08:22:19Z</time>
      </trkpt>
      <trkpt lat="45.65647" lon="4.6509">
        <ele>513.9</ele>
        <time>2015-04-23T08:22:26Z</time>
      </trkpt>
      <trkpt lat="45.65642" lon="4.65094">
        <ele>513.9</ele>
        <time>2015-04-23T08:22:30Z</time>
      </trkpt>
      <trkpt lat="45.6564" lon="4.65099">
        <ele>516</ele>
        <time>2015-04-23T08:22:33Z</time>
      </trkpt>
      <trkpt lat="45.65637" lon="4.65106">
        <ele>516</ele>
        <time>2015-04-23T08:22:37Z</time>
      </trkpt>
      <trkpt lat="45.65632" lon="4.65113">
        <ele>518.7</ele>
        <time>2015-04-23T08:22:42Z</time>
      </trkpt>
      <trkpt lat="45.65621" lon="4.65125">
        <ele>519.7</ele>
        <time>2015-04-23T08:22:50Z</time>
      </trkpt>
      <trkpt lat="45.65618" lon="4.6513">
        <ele>520</ele>
        <time>2015-04-23T08:22:54Z</time>
      </trkpt>
      <trkpt lat="45.65614" lon="4.65134">
        <ele>520</ele>
        <time>2015-04-23T08:22:57Z</time>
      </trkpt>
      <trkpt lat="45.65605" lon="4.65142">
        <ele>521</ele>
        <time>2015-04-23T08:23:03Z</time>
      </trkpt>
      <trkpt lat="45.65601" lon="4.65148">
        <ele>521.9</ele>
        <time>2015-04-23T08:23:08Z</time>
      </trkpt>
      <trkpt lat="45.65593" lon="4.65155">
        <ele>522.5</ele>
        <time>2015-04-23T08:23:14Z</time>
      </trkpt>
      <trkpt lat="45.65592" lon="4.65163">
        <ele>524</ele>
        <time>2015-04-23T08:23:19Z</time>
      </trkpt>
      <trkpt lat="45.6559" lon="4.65169">
        <ele>525.4</ele>
        <time>2015-04-23T08:23:25Z</time>
      </trkpt>
      <trkpt lat="45.65589" lon="4.65175">
        <ele>526</ele>
        <time>2015-04-23T08:23:31Z</time>
      </trkpt>
      <trkpt lat="45.6558" lon="4.65183">
        <ele>527</ele>
        <time>2015-04-23T08:23:39Z</time>
      </trkpt>
      <trkpt lat="45.6557" lon="4.65197">
        <ele>527</ele>
        <time>2015-04-23T08:23:48Z</time>
      </trkpt>
      <trkpt lat="45.65567" lon="4.65202">
        <ele>527</ele>
        <time>2015-04-23T08:23:52Z</time>
      </trkpt>
      <trkpt lat="45.65559" lon="4.65209">
        <ele>528.7</ele>
        <time>2015-04-23T08:24:00Z</time>
      </trkpt>
      <trkpt lat="45.65554" lon="4.6521">
        <ele>530</ele>
        <time>2015-04-23T08:24:05Z</time>
      </trkpt>
      <trkpt lat="45.65547" lon="4.65224">
        <ele>531</ele>
        <time>2015-04-23T08:24:13Z</time>
      </trkpt>
      <trkpt lat="45.65544" lon="4.65234">
        <ele>532.7</ele>
        <time>2015-04-23T08:24:18Z</time>
      </trkpt>
      <trkpt lat="45.65541" lon="4.65241">
        <ele>532.7</ele>
        <time>2015-04-23T08:24:22Z</time>
      </trkpt>
      <trkpt lat="45.65542" lon="4.65247">
        <ele>534</ele>
        <time>2015-04-23T08:24:29Z</time>
      </trkpt>
      <trkpt lat="45.65536" lon="4.65257">
        <ele>535</ele>
        <time>2015-04-23T08:24:37Z</time>
      </trkpt>
      <trkpt lat="45.65527" lon="4.65262">
        <ele>536</ele>
        <time>2015-04-23T08:24:47Z</time>
      </trkpt>
      <trkpt lat="45.65522" lon="4.65266">
        <ele>536.9</ele>
        <time>2015-04-23T08:24:51Z</time>
      </trkpt>
      <trkpt lat="45.6552" lon="4.65273">
        <ele>536.9</ele>
        <time>2015-04-23T08:24:55Z</time>
      </trkpt>
      <trkpt lat="45.65516" lon="4.65276">
        <ele>537</ele>
        <time>2015-04-23T08:25:00Z</time>
      </trkpt>
      <trkpt lat="45.65511" lon="4.65278">
        <ele>537</ele>
        <time>2015-04-23T08:25:04Z</time>
      </trkpt>
      <trkpt lat="45.65505" lon="4.6529">
        <ele>538</ele>
        <time>2015-04-23T08:25:14Z</time>
      </trkpt>
      <trkpt lat="45.655" lon="4.65296">
        <ele>538</ele>
        <time>2015-04-23T08:25:18Z</time>
      </trkpt>
      <trkpt lat="45.65491" lon="4.6531">
        <ele>538</ele>
        <time>2015-04-23T08:25:28Z</time>
      </trkpt>
      <trkpt lat="45.65486" lon="4.65314">
        <ele>538</ele>
        <time>2015-04-23T08:25:31Z</time>
      </trkpt>
      <trkpt lat="45.65482" lon="4.65318">
        <ele>538</ele>
        <time>2015-04-23T08:25:34Z</time>
      </trkpt>
      <trkpt lat="45.65475" lon="4.65327">
        <ele>539</ele>
        <time>2015-04-23T08:25:42Z</time>
      </trkpt>
      <trkpt lat="45.65468" lon="4.65328">
        <ele>539</ele>
        <time>2015-04-23T08:25:44Z</time>
      </trkpt>
      <trkpt lat="45.65463" lon="4.65332">
        <ele>539</ele>
        <time>2015-04-23T08:25:46Z</time>
      </trkpt>
      <trkpt lat="45.65459" lon="4.65336">
        <ele>539</ele>
        <time>2015-04-23T08:25:48Z</time>
      </trkpt>
      <trkpt lat="45.65456" lon="4.65343">
        <ele>539.8</ele>
        <time>2015-04-23T08:25:52Z</time>
      </trkpt>
      <trkpt lat="45.65456" lon="4.65363">
        <ele>540</ele>
        <time>2015-04-23T08:26:02Z</time>
      </trkpt>
      <trkpt lat="45.65456" lon="4.6538">
        <ele>540</ele>
        <time>2015-04-23T08:26:10Z</time>
      </trkpt>
      <trkpt lat="45.65452" lon="4.65385">
        <ele>540</ele>
        <time>2015-04-23T08:26:15Z</time>
      </trkpt>
      <trkpt lat="45.6544" lon="4.65395">
        <ele>540</ele>
        <time>2015-04-23T08:26:26Z</time>
      </trkpt>
      <trkpt lat="45.65431" lon="4.65393">
        <ele>539</ele>
        <time>2015-04-23T08:26:34Z</time>
      </trkpt>
      <trkpt lat="45.65426" lon="4.65391">
        <ele>538.3</ele>
        <time>2015-04-23T08:26:40Z</time>
      </trkpt>
      <trkpt lat="45.65422" lon="4.65387">
        <ele>538</ele>
        <time>2015-04-23T08:26:44Z</time>
      </trkpt>
      <trkpt lat="45.6541" lon="4.65377">
        <ele>535.1</ele>
        <time>2015-04-23T08:26:57Z</time>
      </trkpt>
      <trkpt lat="45.65402" lon="4.65369">
        <ele>533.3</ele>
        <time>2015-04-23T08:27:03Z</time>
      </trkpt>
      <trkpt lat="45.65398" lon="4.65365">
        <ele>531.1</ele>
        <time>2015-04-23T08:27:07Z</time>
      </trkpt>
      <trkpt lat="45.65388" lon="4.65362">
        <ele>531</ele>
        <time>2015-04-23T08:27:16Z</time>
      </trkpt>
      <trkpt lat="45.65383" lon="4.6536">
        <ele>530.1</ele>
        <time>2015-04-23T08:27:20Z</time>
      </trkpt>
      <trkpt lat="45.65377" lon="4.65361">
        <ele>529.5</ele>
        <time>2015-04-23T08:27:25Z</time>
      </trkpt>
      <trkpt lat="45.65371" lon="4.65363">
        <ele>529</ele>
        <time>2015-04-23T08:27:28Z</time>
      </trkpt>
      <trkpt lat="45.6536" lon="4.65364">
        <ele>527.5</ele>
        <time>2015-04-23T08:27:34Z</time>
      </trkpt>
      <trkpt lat="45.65358" lon="4.65369">
        <ele>527</ele>
        <time>2015-04-23T08:27:40Z</time>
      </trkpt>
      <trkpt lat="45.65356" lon="4.65376">
        <ele>523.5</ele>
        <time>2015-04-23T08:27:47Z</time>
      </trkpt>
      <trkpt lat="45.65353" lon="4.65396">
        <ele>523</ele>
        <time>2015-04-23T08:28:01Z</time>
      </trkpt>
      <trkpt lat="45.65351" lon="4.65402">
        <ele>522</ele>
        <time>2015-04-23T08:28:05Z</time>
      </trkpt>
      <trkpt lat="45.6535" lon="4.6541">
        <ele>522</ele>
        <time>2015-04-23T08:28:09Z</time>
      </trkpt>
      <trkpt lat="45.6535" lon="4.65417">
        <ele>522</ele>
        <time>2015-04-23T08:28:13Z</time>
      </trkpt>
      <trkpt lat="45.65351" lon="4.6543">
        <ele>522</ele>
        <time>2015-04-23T08:28:18Z</time>
      </trkpt>
      <trkpt lat="45.6535" lon="4.65438">
        <ele>522</ele>
        <time>2015-04-23T08:28:21Z</time>
      </trkpt>
      <trkpt lat="45.65346" lon="4.65451">
        <ele>522</ele>
        <time>2015-04-23T08:28:27Z</time>
      </trkpt>
      <trkpt lat="45.65342" lon="4.65467">
        <ele>522</ele>
        <time>2015-04-23T08:28:37Z</time>
      </trkpt>
      <trkpt lat="45.65338" lon="4.65466">
        <ele>522</ele>
        <time>2015-04-23T08:28:44Z</time>
      </trkpt>
      <trkpt lat="45.65335" lon="4.65471">
        <ele>522</ele>
        <time>2015-04-23T08:28:48Z</time>
      </trkpt>
      <trkpt lat="45.65327" lon="4.65487">
        <ele>522</ele>
        <time>2015-04-23T08:28:54Z</time>
      </trkpt>
      <trkpt lat="45.65325" lon="4.65494">
        <ele>523</ele>
        <time>2015-04-23T08:28:56Z</time>
      </trkpt>
      <trkpt lat="45.65322" lon="4.655">
        <ele>523</ele>
        <time>2015-04-23T08:28:58Z</time>
      </trkpt>
      <trkpt lat="45.65319" lon="4.65506">
        <ele>523</ele>
        <time>2015-04-23T08:29:01Z</time>
      </trkpt>
      <trkpt lat="45.65315" lon="4.65513">
        <ele>523</ele>
        <time>2015-04-23T08:29:10Z</time>
      </trkpt>
      <trkpt lat="45.65314" lon="4.65519">
        <ele>523.9</ele>
        <time>2015-04-23T08:29:15Z</time>
      </trkpt>
      <trkpt lat="45.65307" lon="4.65528">
        <ele>524.7</ele>
        <time>2015-04-23T08:29:24Z</time>
      </trkpt>
      <trkpt lat="45.65298" lon="4.65534">
        <ele>525</ele>
        <time>2015-04-23T08:29:29Z</time>
      </trkpt>
      <trkpt lat="45.65293" lon="4.65536">
        <ele>525</ele>
        <time>2015-04-23T08:29:33Z</time>
      </trkpt>
      <trkpt lat="45.65283" lon="4.65537">
        <ele>525.9</ele>
        <time>2015-04-23T08:29:42Z</time>
      </trkpt>
      <trkpt lat="45.65278" lon="4.65539">
        <ele>526</ele>
        <time>2015-04-23T08:29:46Z</time>
      </trkpt>
      <trkpt lat="45.65273" lon="4.65541">
        <ele>526</ele>
        <time>2015-04-23T08:29:51Z</time>
      </trkpt>
      <trkpt lat="45.65264" lon="4.65545">
        <ele>525.2</ele>
        <time>2015-04-23T08:29:59Z</time>
      </trkpt>
      <trkpt lat="45.65259" lon="4.65545">
        <ele>525</ele>
        <time>2015-04-23T08:30:03Z</time>
      </trkpt>
      <trkpt lat="45.6525" lon="4.65542">
        <ele>525</ele>
        <time>2015-04-23T08:30:09Z</time>
      </trkpt>
      <trkpt lat="45.6524" lon="4.6554">
        <ele>525</ele>
        <time>2015-04-23T08:30:15Z</time>
      </trkpt>
      <trkpt lat="45.65234" lon="4.6554">
        <ele>525</ele>
        <time>2015-04-23T08:30:18Z</time>
      </trkpt>
      <trkpt lat="45.65228" lon="4.65539">
        <ele>525</ele>
        <time>2015-04-23T08:30:20Z</time>
      </trkpt>
      <trkpt lat="45.6522" lon="4.65539">
        <ele>525</ele>
        <time>2015-04-23T08:30:25Z</time>
      </trkpt>
      <trkpt lat="45.65219" lon="4.65532">
        <ele>525.9</ele>
        <time>2015-04-23T08:30:32Z</time>
      </trkpt>
      <trkpt lat="45.65215" lon="4.65531">
        <ele>526</ele>
        <time>2015-04-23T08:30:39Z</time>
      </trkpt>
      <trkpt lat="45.65211" lon="4.65534">
        <ele>526.7</ele>
        <time>2015-04-23T08:30:44Z</time>
      </trkpt>
      <trkpt lat="45.65197" lon="4.65536">
        <ele>528</ele>
        <time>2015-04-23T08:30:55Z</time>
      </trkpt>
      <trkpt lat="45.65183" lon="4.65533">
        <ele>529.4</ele>
        <time>2015-04-23T08:31:01Z</time>
      </trkpt>
      <trkpt lat="45.65177" lon="4.65534">
        <ele>531</ele>
        <time>2015-04-23T08:31:04Z</time>
      </trkpt>
      <trkpt lat="45.65174" lon="4.65538">
        <ele>531</ele>
        <time>2015-04-23T08:31:06Z</time>
      </trkpt>
      <trkpt lat="45.65166" lon="4.65546">
        <ele>531.5</ele>
        <time>2015-04-23T08:31:09Z</time>
      </trkpt>
      <trkpt lat="45.65156" lon="4.65551">
        <ele>532</ele>
        <time>2015-04-23T08:31:15Z</time>
      </trkpt>
      <trkpt lat="45.65152" lon="4.6556">
        <ele>532</ele>
        <time>2015-04-23T08:31:25Z</time>
      </trkpt>
      <trkpt lat="45.65153" lon="4.65568">
        <ele>532</ele>
        <time>2015-04-23T08:31:35Z</time>
      </trkpt>
      <trkpt lat="45.6516" lon="4.65577">
        <ele>532</ele>
        <time>2015-04-23T08:31:41Z</time>
      </trkpt>
      <trkpt lat="45.65163" lon="4.6559">
        <ele>532</ele>
        <time>2015-04-23T08:31:48Z</time>
      </trkpt>
      <trkpt lat="45.65168" lon="4.65603">
        <ele>532</ele>
        <time>2015-04-23T08:31:55Z</time>
      </trkpt>
      <trkpt lat="45.65168" lon="4.6561">
        <ele>532</ele>
        <time>2015-04-23T08:31:58Z</time>
      </trkpt>
      <trkpt lat="45.65166" lon="4.65623">
        <ele>532</ele>
        <time>2015-04-23T08:32:05Z</time>
      </trkpt>
      <trkpt lat="45.65165" lon="4.6563">
        <ele>531.5</ele>
        <time>2015-04-23T08:32:10Z</time>
      </trkpt>
      <trkpt lat="45.65164" lon="4.65637">
        <ele>531</ele>
        <time>2015-04-23T08:32:16Z</time>
      </trkpt>
      <trkpt lat="45.65163" lon="4.65644">
        <ele>531</ele>
        <time>2015-04-23T08:32:21Z</time>
      </trkpt>
      <trkpt lat="45.6516" lon="4.65649">
        <ele>531</ele>
        <time>2015-04-23T08:32:27Z</time>
      </trkpt>
      <trkpt lat="45.65155" lon="4.65653">
        <ele>530</ele>
        <time>2015-04-23T08:32:30Z</time>
      </trkpt>
      <trkpt lat="45.65151" lon="4.65657">
        <ele>530</ele>
        <time>2015-04-23T08:32:34Z</time>
      </trkpt>
      <trkpt lat="45.65147" lon="4.65661">
        <ele>530</ele>
        <time>2015-04-23T08:32:39Z</time>
      </trkpt>
      <trkpt lat="45.65144" lon="4.65675">
        <ele>530</ele>
        <time>2015-04-23T08:32:46Z</time>
      </trkpt>
      <trkpt lat="45.65141" lon="4.65682">
        <ele>529.5</ele>
        <time>2015-04-23T08:32:50Z</time>
      </trkpt>
      <trkpt lat="45.65137" lon="4.65694">
        <ele>528.3</ele>
        <time>2015-04-23T08:32:57Z</time>
      </trkpt>
      <trkpt lat="45.65137" lon="4.65701">
        <ele>526.4</ele>
        <time>2015-04-23T08:33:01Z</time>
      </trkpt>
      <trkpt lat="45.65137" lon="4.65708">
        <ele>526</ele>
        <time>2015-04-23T08:33:04Z</time>
      </trkpt>
      <trkpt lat="45.6514" lon="4.65716">
        <ele>526</ele>
        <time>2015-04-23T08:33:08Z</time>
      </trkpt>
      <trkpt lat="45.65138" lon="4.65723">
        <ele>526</ele>
        <time>2015-04-23T08:33:13Z</time>
      </trkpt>
      <trkpt lat="45.65139" lon="4.65729">
        <ele>526</ele>
        <time>2015-04-23T08:33:17Z</time>
      </trkpt>
      <trkpt lat="45.65143" lon="4.65735">
        <ele>526</ele>
        <time>2015-04-23T08:33:23Z</time>
      </trkpt>
      <trkpt lat="45.65147" lon="4.65742">
        <ele>525</ele>
        <time>2015-04-23T08:33:27Z</time>
      </trkpt>
      <trkpt lat="45.65153" lon="4.65747">
        <ele>525</ele>
        <time>2015-04-23T08:33:31Z</time>
      </trkpt>
      <trkpt lat="45.65155" lon="4.65755">
        <ele>525</ele>
        <time>2015-04-23T08:33:38Z</time>
      </trkpt>
      <trkpt lat="45.65159" lon="4.6576">
        <ele>525</ele>
        <time>2015-04-23T08:33:42Z</time>
      </trkpt>
      <trkpt lat="45.65163" lon="4.65763">
        <ele>524</ele>
        <time>2015-04-23T08:33:46Z</time>
      </trkpt>
      <trkpt lat="45.65165" lon="4.6577">
        <ele>524</ele>
        <time>2015-04-23T08:33:51Z</time>
      </trkpt>
      <trkpt lat="45.65163" lon="4.65779">
        <ele>524</ele>
        <time>2015-04-23T08:33:55Z</time>
      </trkpt>
      <trkpt lat="45.65161" lon="4.65786">
        <ele>524</ele>
        <time>2015-04-23T08:33:59Z</time>
      </trkpt>
      <trkpt lat="45.6516" lon="4.65794">
        <ele>524</ele>
        <time>2015-04-23T08:34:05Z</time>
      </trkpt>
      <trkpt lat="45.65158" lon="4.658">
        <ele>524</ele>
        <time>2015-04-23T08:34:08Z</time>
      </trkpt>
      <trkpt lat="45.65155" lon="4.65812">
        <ele>524</ele>
        <time>2015-04-23T08:34:14Z</time>
      </trkpt>
      <trkpt lat="45.65153" lon="4.65818">
        <ele>524</ele>
        <time>2015-04-23T08:34:17Z</time>
      </trkpt>
      <trkpt lat="45.6515" lon="4.65825">
        <ele>524</ele>
        <time>2015-04-23T08:34:20Z</time>
      </trkpt>
      <trkpt lat="45.65146" lon="4.65829">
        <ele>524</ele>
        <time>2015-04-23T08:34:24Z</time>
      </trkpt>
      <trkpt lat="45.65138" lon="4.6584">
        <ele>524</ele>
        <time>2015-04-23T08:34:33Z</time>
      </trkpt>
      <trkpt lat="45.65133" lon="4.6584">
        <ele>524</ele>
        <time>2015-04-23T08:34:37Z</time>
      </trkpt>
      <trkpt lat="45.65129" lon="4.65844">
        <ele>524</ele>
        <time>2015-04-23T08:34:41Z</time>
      </trkpt>
      <trkpt lat="45.65135" lon="4.65855">
        <ele>524</ele>
        <time>2015-04-23T08:34:47Z</time>
      </trkpt>
      <trkpt lat="45.6513" lon="4.65858">
        <ele>526.2</ele>
        <time>2015-04-23T08:34:50Z</time>
      </trkpt>
      <trkpt lat="45.65121" lon="4.65862">
        <ele>527.9</ele>
        <time>2015-04-23T08:34:56Z</time>
      </trkpt>
      <trkpt lat="45.65116" lon="4.65866">
        <ele>528.9</ele>
        <time>2015-04-23T08:34:59Z</time>
      </trkpt>
      <trkpt lat="45.65112" lon="4.65871">
        <ele>528.9</ele>
        <time>2015-04-23T08:35:02Z</time>
      </trkpt>
      <trkpt lat="45.65108" lon="4.65883">
        <ele>529.5</ele>
        <time>2015-04-23T08:35:10Z</time>
      </trkpt>
      <trkpt lat="45.65103" lon="4.65888">
        <ele>530</ele>
        <time>2015-04-23T08:35:14Z</time>
      </trkpt>
      <trkpt lat="45.65095" lon="4.65901">
        <ele>530.7</ele>
        <time>2015-04-23T08:35:23Z</time>
      </trkpt>
      <trkpt lat="45.6509" lon="4.65904">
        <ele>532</ele>
        <time>2015-04-23T08:35:26Z</time>
      </trkpt>
      <trkpt lat="45.65086" lon="4.6591">
        <ele>532</ele>
        <time>2015-04-23T08:35:29Z</time>
      </trkpt>
      <trkpt lat="45.65084" lon="4.65917">
        <ele>532</ele>
        <time>2015-04-23T08:35:33Z</time>
      </trkpt>
      <trkpt lat="45.65079" lon="4.65922">
        <ele>532</ele>
        <time>2015-04-23T08:35:40Z</time>
      </trkpt>
      <trkpt lat="45.65076" lon="4.65928">
        <ele>532</ele>
        <time>2015-04-23T08:35:45Z</time>
      </trkpt>
      <trkpt lat="45.65065" lon="4.6594">
        <ele>532</ele>
        <time>2015-04-23T08:35:54Z</time>
      </trkpt>
      <trkpt lat="45.65064" lon="4.65948">
        <ele>532</ele>
        <time>2015-04-23T08:36:00Z</time>
      </trkpt>
      <trkpt lat="45.65055" lon="4.65958">
        <ele>531.1</ele>
        <time>2015-04-23T08:36:08Z</time>
      </trkpt>
      <trkpt lat="45.65045" lon="4.65964">
        <ele>531</ele>
        <time>2015-04-23T08:36:14Z</time>
      </trkpt>
      <trkpt lat="45.65035" lon="4.65968">
        <ele>530.3</ele>
        <time>2015-04-23T08:36:19Z</time>
      </trkpt>
      <trkpt lat="45.6503" lon="4.65968">
        <ele>530</ele>
        <time>2015-04-23T08:36:22Z</time>
      </trkpt>
      <trkpt lat="45.65025" lon="4.65965">
        <ele>530</ele>
        <time>2015-04-23T08:36:26Z</time>
      </trkpt>
      <trkpt lat="45.65022" lon="4.65971">
        <ele>530</ele>
        <time>2015-04-23T08:36:32Z</time>
      </trkpt>
      <trkpt lat="45.65021" lon="4.65979">
        <ele>530</ele>
        <time>2015-04-23T08:36:34Z</time>
      </trkpt>
      <trkpt lat="45.6502" lon="4.65986">
        <ele>530</ele>
        <time>2015-04-23T08:36:37Z</time>
      </trkpt>
      <trkpt lat="45.65018" lon="4.65993">
        <ele>530</ele>
        <time>2015-04-23T08:36:40Z</time>
      </trkpt>
      <trkpt lat="45.65011" lon="4.66003">
        <ele>530</ele>
        <time>2015-04-23T08:36:46Z</time>
      </trkpt>
      <trkpt lat="45.65009" lon="4.66008">
        <ele>530</ele>
        <time>2015-04-23T08:36:49Z</time>
      </trkpt>
      <trkpt lat="45.65004" lon="4.66012">
        <ele>530</ele>
        <time>2015-04-23T08:36:53Z</time>
      </trkpt>
      <trkpt lat="45.65001" lon="4.6602">
        <ele>529</ele>
        <time>2015-04-23T08:36:58Z</time>
      </trkpt>
      <trkpt lat="45.64998" lon="4.66025">
        <ele>529</ele>
        <time>2015-04-23T08:37:02Z</time>
      </trkpt>
      <trkpt lat="45.64992" lon="4.66036">
        <ele>529</ele>
        <time>2015-04-23T08:37:08Z</time>
      </trkpt>
      <trkpt lat="45.64986" lon="4.66046">
        <ele>529</ele>
        <time>2015-04-23T08:37:14Z</time>
      </trkpt>
      <trkpt lat="45.6498" lon="4.66058">
        <ele>529</ele>
        <time>2015-04-23T08:37:20Z</time>
      </trkpt>
      <trkpt lat="45.64972" lon="4.66066">
        <ele>529.9</ele>
        <time>2015-04-23T08:37:27Z</time>
      </trkpt>
      <trkpt lat="45.64975" lon="4.66072">
        <ele>530</ele>
        <time>2015-04-23T08:37:33Z</time>
      </trkpt>
      <trkpt lat="45.64973" lon="4.66078">
        <ele>530</ele>
        <time>2015-04-23T08:37:37Z</time>
      </trkpt>
      <trkpt lat="45.64964" lon="4.66094">
        <ele>530.9</ele>
        <time>2015-04-23T08:37:46Z</time>
      </trkpt>
      <trkpt lat="45.6496" lon="4.66101">
        <ele>531</ele>
        <time>2015-04-23T08:37:49Z</time>
      </trkpt>
      <trkpt lat="45.64957" lon="4.66108">
        <ele>531</ele>
        <time>2015-04-23T08:37:52Z</time>
      </trkpt>
      <trkpt lat="45.64955" lon="4.66115">
        <ele>531</ele>
        <time>2015-04-23T08:37:56Z</time>
      </trkpt>
      <trkpt lat="45.64951" lon="4.6612">
        <ele>531</ele>
        <time>2015-04-23T08:38:00Z</time>
      </trkpt>
      <trkpt lat="45.64945" lon="4.66123">
        <ele>531</ele>
        <time>2015-04-23T08:38:03Z</time>
      </trkpt>
      <trkpt lat="45.64941" lon="4.66126">
        <ele>531</ele>
        <time>2015-04-23T08:38:06Z</time>
      </trkpt>
      <trkpt lat="45.64937" lon="4.6613">
        <ele>531</ele>
        <time>2015-04-23T08:38:10Z</time>
      </trkpt>
      <trkpt lat="45.64932" lon="4.66132">
        <ele>531.9</ele>
        <time>2015-04-23T08:38:14Z</time>
      </trkpt>
      <trkpt lat="45.64928" lon="4.66136">
        <ele>532</ele>
        <time>2015-04-23T08:38:17Z</time>
      </trkpt>
      <trkpt lat="45.64925" lon="4.66142">
        <ele>532</ele>
        <time>2015-04-23T08:38:20Z</time>
      </trkpt>
      <trkpt lat="45.64917" lon="4.66158">
        <ele>532</ele>
        <time>2015-04-23T08:38:29Z</time>
      </trkpt>
      <trkpt lat="45.64913" lon="4.6616">
        <ele>532</ele>
        <time>2015-04-23T08:38:34Z</time>
      </trkpt>
      <trkpt lat="45.64906" lon="4.66169">
        <ele>532.9</ele>
        <time>2015-04-23T08:38:43Z</time>
      </trkpt>
      <trkpt lat="45.649" lon="4.66187">
        <ele>533</ele>
        <time>2015-04-23T08:38:55Z</time>
      </trkpt>
      <trkpt lat="45.64904" lon="4.6619">
        <ele>533</ele>
        <time>2015-04-23T08:39:02Z</time>
      </trkpt>
      <trkpt lat="45.64908" lon="4.66195">
        <ele>533</ele>
        <time>2015-04-23T08:39:07Z</time>
      </trkpt>
      <trkpt lat="45.64916" lon="4.66196">
        <ele>533</ele>
        <time>2015-04-23T08:39:12Z</time>
      </trkpt>
      <trkpt lat="45.64919" lon="4.662">
        <ele>533</ele>
        <time>2015-04-23T08:39:15Z</time>
      </trkpt>
      <trkpt lat="45.64922" lon="4.66206">
        <ele>532</ele>
        <time>2015-04-23T08:39:18Z</time>
      </trkpt>
      <trkpt lat="45.64932" lon="4.66219">
        <ele>532</ele>
        <time>2015-04-23T08:39:29Z</time>
      </trkpt>
      <trkpt lat="45.64937" lon="4.66221">
        <ele>532</ele>
        <time>2015-04-23T08:39:33Z</time>
      </trkpt>
      <trkpt lat="45.64942" lon="4.66223">
        <ele>531</ele>
        <time>2015-04-23T08:39:37Z</time>
      </trkpt>
      <trkpt lat="45.6495" lon="4.66231">
        <ele>531</ele>
        <time>2015-04-23T08:39:44Z</time>
      </trkpt>
      <trkpt lat="45.64956" lon="4.66234">
        <ele>531</ele>
        <time>2015-04-23T08:39:49Z</time>
      </trkpt>
      <trkpt lat="45.6496" lon="4.66237">
        <ele>531</ele>
        <time>2015-04-23T08:39:52Z</time>
      </trkpt>
      <trkpt lat="45.64965" lon="4.66242">
        <ele>531</ele>
        <time>2015-04-23T08:39:57Z</time>
      </trkpt>
      <trkpt lat="45.6497" lon="4.66243">
        <ele>531</ele>
        <time>2015-04-23T08:40:04Z</time>
      </trkpt>
      <trkpt lat="45.64976" lon="4.66243">
        <ele>530.1</ele>
        <time>2015-04-23T08:40:09Z</time>
      </trkpt>
      <trkpt lat="45.6498" lon="4.66247">
        <ele>530.1</ele>
        <time>2015-04-23T08:40:12Z</time>
      </trkpt>
      <trkpt lat="45.6499" lon="4.66254">
        <ele>530</ele>
        <time>2015-04-23T08:40:18Z</time>
      </trkpt>
      <trkpt lat="45.64995" lon="4.66257">
        <ele>530</ele>
        <time>2015-04-23T08:40:24Z</time>
      </trkpt>
      <trkpt lat="45.65005" lon="4.66258">
        <ele>530</ele>
        <time>2015-04-23T08:40:33Z</time>
      </trkpt>
      <trkpt lat="45.65014" lon="4.66264">
        <ele>529.2</ele>
        <time>2015-04-23T08:40:42Z</time>
      </trkpt>
      <trkpt lat="45.65019" lon="4.66266">
        <ele>529</ele>
        <time>2015-04-23T08:40:48Z</time>
      </trkpt>
      <trkpt lat="45.65028" lon="4.66264">
        <ele>528.2</ele>
        <time>2015-04-23T08:40:54Z</time>
      </trkpt>
      <trkpt lat="45.65033" lon="4.66261">
        <ele>528.2</ele>
        <time>2015-04-23T08:40:58Z</time>
      </trkpt>
      <trkpt lat="45.65038" lon="4.6626">
        <ele>527.1</ele>
        <time>2015-04-23T08:41:07Z</time>
      </trkpt>
      <trkpt lat="45.65045" lon="4.6625">
        <ele>527</ele>
        <time>2015-04-23T08:41:17Z</time>
      </trkpt>
      <trkpt lat="45.65053" lon="4.66242">
        <ele>526</ele>
        <time>2015-04-23T08:41:23Z</time>
      </trkpt>
      <trkpt lat="45.65061" lon="4.66234">
        <ele>525.1</ele>
        <time>2015-04-23T08:41:28Z</time>
      </trkpt>
      <trkpt lat="45.65067" lon="4.66228">
        <ele>525</ele>
        <time>2015-04-23T08:41:33Z</time>
      </trkpt>
      <trkpt lat="45.65074" lon="4.66217">
        <ele>524</ele>
        <time>2015-04-23T08:41:42Z</time>
      </trkpt>
      <trkpt lat="45.65076" lon="4.6621">
        <ele>522.2</ele>
        <time>2015-04-23T08:41:50Z</time>
      </trkpt>
      <trkpt lat="45.65081" lon="4.66205">
        <ele>519.3</ele>
        <time>2015-04-23T08:41:54Z</time>
      </trkpt>
      <trkpt lat="45.65085" lon="4.66203">
        <ele>519.3</ele>
        <time>2015-04-23T08:41:57Z</time>
      </trkpt>
      <trkpt lat="45.65095" lon="4.66199">
        <ele>518.1</ele>
        <time>2015-04-23T08:42:02Z</time>
      </trkpt>
      <trkpt lat="45.65104" lon="4.66197">
        <ele>518</ele>
        <time>2015-04-23T08:42:09Z</time>
      </trkpt>
      <trkpt lat="45.65112" lon="4.66196">
        <ele>518</ele>
        <time>2015-04-23T08:42:15Z</time>
      </trkpt>
      <trkpt lat="45.65116" lon="4.66193">
        <ele>518</ele>
        <time>2015-04-23T08:42:20Z</time>
      </trkpt>
      <trkpt lat="45.65123" lon="4.66186">
        <ele>518</ele>
        <time>2015-04-23T08:42:27Z</time>
      </trkpt>
      <trkpt lat="45.65128" lon="4.66183">
        <ele>518</ele>
        <time>2015-04-23T08:42:31Z</time>
      </trkpt>
      <trkpt lat="45.65137" lon="4.6618">
        <ele>518.9</ele>
        <time>2015-04-23T08:42:40Z</time>
      </trkpt>
      <trkpt lat="45.65145" lon="4.66178">
        <ele>523</ele>
        <time>2015-04-23T08:42:47Z</time>
      </trkpt>
      <trkpt lat="45.65157" lon="4.66177">
        <ele>523</ele>
        <time>2015-04-23T08:42:55Z</time>
      </trkpt>
      <trkpt lat="45.65162" lon="4.66177">
        <ele>523</ele>
        <time>2015-04-23T08:42:58Z</time>
      </trkpt>
      <trkpt lat="45.65167" lon="4.66177">
        <ele>523.8</ele>
        <time>2015-04-23T08:43:01Z</time>
      </trkpt>
      <trkpt lat="45.65172" lon="4.66178">
        <ele>523.8</ele>
        <time>2015-04-23T08:43:05Z</time>
      </trkpt>
      <trkpt lat="45.6518" lon="4.66182">
        <ele>524</ele>
        <time>2015-04-23T08:43:11Z</time>
      </trkpt>
      <trkpt lat="45.65186" lon="4.66184">
        <ele>524</ele>
        <time>2015-04-23T08:43:15Z</time>
      </trkpt>
      <trkpt lat="45.65197" lon="4.66182">
        <ele>524</ele>
        <time>2015-04-23T08:43:25Z</time>
      </trkpt>
      <trkpt lat="45.65204" lon="4.66184">
        <ele>523</ele>
        <time>2015-04-23T08:43:31Z</time>
      </trkpt>
      <trkpt lat="45.65209" lon="4.66187">
        <ele>523</ele>
        <time>2015-04-23T08:43:34Z</time>
      </trkpt>
      <trkpt lat="45.65214" lon="4.6619">
        <ele>523</ele>
        <time>2015-04-23T08:43:37Z</time>
      </trkpt>
      <trkpt lat="45.65221" lon="4.6619">
        <ele>523</ele>
        <time>2015-04-23T08:43:40Z</time>
      </trkpt>
      <trkpt lat="45.65226" lon="4.66188">
        <ele>523</ele>
        <time>2015-04-23T08:43:43Z</time>
      </trkpt>
      <trkpt lat="45.6524" lon="4.66188">
        <ele>523</ele>
        <time>2015-04-23T08:43:56Z</time>
      </trkpt>
      <trkpt lat="45.6525" lon="4.6619">
        <ele>521.3</ele>
        <time>2015-04-23T08:44:05Z</time>
      </trkpt>
      <trkpt lat="45.65259" lon="4.66183">
        <ele>520.1</ele>
        <time>2015-04-23T08:44:13Z</time>
      </trkpt>
      <trkpt lat="45.65273" lon="4.66179">
        <ele>520</ele>
        <time>2015-04-23T08:44:20Z</time>
      </trkpt>
      <trkpt lat="45.65285" lon="4.66176">
        <ele>520</ele>
        <time>2015-04-23T08:44:28Z</time>
      </trkpt>
      <trkpt lat="45.65298" lon="4.6617">
        <ele>516.3</ele>
        <time>2015-04-23T08:44:38Z</time>
      </trkpt>
      <trkpt lat="45.65303" lon="4.66167">
        <ele>515.3</ele>
        <time>2015-04-23T08:44:42Z</time>
      </trkpt>
      <trkpt lat="45.65307" lon="4.66162">
        <ele>514.5</ele>
        <time>2015-04-23T08:44:47Z</time>
      </trkpt>
      <trkpt lat="45.65312" lon="4.66159">
        <ele>513.6</ele>
        <time>2015-04-23T08:44:51Z</time>
      </trkpt>
      <trkpt lat="45.65317" lon="4.66159">
        <ele>511.1</ele>
        <time>2015-04-23T08:44:57Z</time>
      </trkpt>
      <trkpt lat="45.65321" lon="4.66164">
        <ele>509.3</ele>
        <time>2015-04-23T08:45:03Z</time>
      </trkpt>
      <trkpt lat="45.65328" lon="4.66165">
        <ele>507.1</ele>
        <time>2015-04-23T08:45:11Z</time>
      </trkpt>
      <trkpt lat="45.65331" lon="4.6617">
        <ele>506.1</ele>
        <time>2015-04-23T08:45:17Z</time>
      </trkpt>
      <trkpt lat="45.6534" lon="4.66172">
        <ele>506</ele>
        <time>2015-04-23T08:45:23Z</time>
      </trkpt>
      <trkpt lat="45.65347" lon="4.66175">
        <ele>503.3</ele>
        <time>2015-04-23T08:45:27Z</time>
      </trkpt>
      <trkpt lat="45.65352" lon="4.66178">
        <ele>503.3</ele>
        <time>2015-04-23T08:45:30Z</time>
      </trkpt>
      <trkpt lat="45.65361" lon="4.66179">
        <ele>502</ele>
        <time>2015-04-23T08:45:38Z</time>
      </trkpt>
      <trkpt lat="45.65364" lon="4.66183">
        <ele>502</ele>
        <time>2015-04-23T08:45:41Z</time>
      </trkpt>
      <trkpt lat="45.65371" lon="4.66188">
        <ele>500.2</ele>
        <time>2015-04-23T08:45:46Z</time>
      </trkpt>
      <trkpt lat="45.65376" lon="4.66192">
        <ele>500.2</ele>
        <time>2015-04-23T08:45:50Z</time>
      </trkpt>
      <trkpt lat="45.6538" lon="4.66196">
        <ele>500</ele>
        <time>2015-04-23T08:45:54Z</time>
      </trkpt>
      <trkpt lat="45.6539" lon="4.66198">
        <ele>500</ele>
        <time>2015-04-23T08:46:01Z</time>
      </trkpt>
      <trkpt lat="45.65393" lon="4.66202">
        <ele>500</ele>
        <time>2015-04-23T08:46:05Z</time>
      </trkpt>
      <trkpt lat="45.65397" lon="4.66215">
        <ele>499</ele>
        <time>2015-04-23T08:46:15Z</time>
      </trkpt>
      <trkpt lat="45.65397" lon="4.66228">
        <ele>499</ele>
        <time>2015-04-23T08:46:22Z</time>
      </trkpt>
      <trkpt lat="45.65401" lon="4.66242">
        <ele>499</ele>
        <time>2015-04-23T08:46:29Z</time>
      </trkpt>
      <trkpt lat="45.65404" lon="4.66248">
        <ele>499</ele>
        <time>2015-04-23T08:46:32Z</time>
      </trkpt>
      <trkpt lat="45.65409" lon="4.66252">
        <ele>498.5</ele>
        <time>2015-04-23T08:46:36Z</time>
      </trkpt>
      <trkpt lat="45.65411" lon="4.66259">
        <ele>498.5</ele>
        <time>2015-04-23T08:46:40Z</time>
      </trkpt>
      <trkpt lat="45.65415" lon="4.66267">
        <ele>496.6</ele>
        <time>2015-04-23T08:46:44Z</time>
      </trkpt>
      <trkpt lat="45.65421" lon="4.66278">
        <ele>493.6</ele>
        <time>2015-04-23T08:46:52Z</time>
      </trkpt>
      <trkpt lat="45.65424" lon="4.66285">
        <ele>492.1</ele>
        <time>2015-04-23T08:46:56Z</time>
      </trkpt>
      <trkpt lat="45.65426" lon="4.66292">
        <ele>492</ele>
        <time>2015-04-23T08:47:00Z</time>
      </trkpt>
      <trkpt lat="45.65429" lon="4.66297">
        <ele>491.3</ele>
        <time>2015-04-23T08:47:03Z</time>
      </trkpt>
      <trkpt lat="45.65433" lon="4.66301">
        <ele>491.3</ele>
        <time>2015-04-23T08:47:06Z</time>
      </trkpt>
      <trkpt lat="45.65439" lon="4.66311">
        <ele>486.9</ele>
        <time>2015-04-23T08:47:16Z</time>
      </trkpt>
      <trkpt lat="45.6544" lon="4.66318">
        <ele>485.3</ele>
        <time>2015-04-23T08:47:20Z</time>
      </trkpt>
      <trkpt lat="45.65446" lon="4.66329">
        <ele>484.3</ele>
        <time>2015-04-23T08:47:28Z</time>
      </trkpt>
      <trkpt lat="45.65455" lon="4.66343">
        <ele>481</ele>
        <time>2015-04-23T08:47:37Z</time>
      </trkpt>
      <trkpt lat="45.65463" lon="4.66361">
        <ele>479.1</ele>
        <time>2015-04-23T08:47:44Z</time>
      </trkpt>
      <trkpt lat="45.65468" lon="4.66374">
        <ele>479</ele>
        <time>2015-04-23T08:47:49Z</time>
      </trkpt>
      <trkpt lat="45.65472" lon="4.66378">
        <ele>478.1</ele>
        <time>2015-04-23T08:47:52Z</time>
      </trkpt>
      <trkpt lat="45.65481" lon="4.6638">
        <ele>477.1</ele>
        <time>2015-04-23T08:48:00Z</time>
      </trkpt>
      <trkpt lat="45.65487" lon="4.66388">
        <ele>476</ele>
        <time>2015-04-23T08:48:05Z</time>
      </trkpt>
      <trkpt lat="45.65491" lon="4.66393">
        <ele>473.6</ele>
        <time>2015-04-23T08:48:09Z</time>
      </trkpt>
      <trkpt lat="45.65492" lon="4.664">
        <ele>473.3</ele>
        <time>2015-04-23T08:48:14Z</time>
      </trkpt>
      <trkpt lat="45.6549" lon="4.66406">
        <ele>471.3</ele>
        <time>2015-04-23T08:48:17Z</time>
      </trkpt>
      <trkpt lat="45.65488" lon="4.66413">
        <ele>471.3</ele>
        <time>2015-04-23T08:48:20Z</time>
      </trkpt>
      <trkpt lat="45.65484" lon="4.66417">
        <ele>470.1</ele>
        <time>2015-04-23T08:48:26Z</time>
      </trkpt>
      <trkpt lat="45.6548" lon="4.66417">
        <ele>470</ele>
        <time>2015-04-23T08:48:31Z</time>
      </trkpt>
      <trkpt lat="45.65475" lon="4.66419">
        <ele>469</ele>
        <time>2015-04-23T08:48:37Z</time>
      </trkpt>
      <trkpt lat="45.6547" lon="4.66419">
        <ele>469</ele>
        <time>2015-04-23T08:48:41Z</time>
      </trkpt>
      <trkpt lat="45.65455" lon="4.66419">
        <ele>468</ele>
        <time>2015-04-23T08:48:50Z</time>
      </trkpt>
      <trkpt lat="45.65441" lon="4.66421">
        <ele>468</ele>
        <time>2015-04-23T08:48:58Z</time>
      </trkpt>
      <trkpt lat="45.65428" lon="4.66428">
        <ele>466.5</ele>
        <time>2015-04-23T08:49:11Z</time>
      </trkpt>
      <trkpt lat="45.6542" lon="4.66435">
        <ele>465.5</ele>
        <time>2015-04-23T08:49:18Z</time>
      </trkpt>
      <trkpt lat="45.65411" lon="4.66439">
        <ele>464</ele>
        <time>2015-04-23T08:49:24Z</time>
      </trkpt>
      <trkpt lat="45.65407" lon="4.66446">
        <ele>463</ele>
        <time>2015-04-23T08:49:29Z</time>
      </trkpt>
      <trkpt lat="45.65404" lon="4.66451">
        <ele>462.5</ele>
        <time>2015-04-23T08:49:36Z</time>
      </trkpt>
      <trkpt lat="45.654" lon="4.66455">
        <ele>462</ele>
        <time>2015-04-23T08:49:39Z</time>
      </trkpt>
      <trkpt lat="45.65396" lon="4.6646">
        <ele>462</ele>
        <time>2015-04-23T08:49:43Z</time>
      </trkpt>
      <trkpt lat="45.65388" lon="4.66468">
        <ele>462</ele>
        <time>2015-04-23T08:49:52Z</time>
      </trkpt>
      <trkpt lat="45.65385" lon="4.66472">
        <ele>461.1</ele>
        <time>2015-04-23T08:49:55Z</time>
      </trkpt>
      <trkpt lat="45.65383" lon="4.66478">
        <ele>461.1</ele>
        <time>2015-04-23T08:49:58Z</time>
      </trkpt>
      <trkpt lat="45.65378" lon="4.6649">
        <ele>461</ele>
        <time>2015-04-23T08:50:05Z</time>
      </trkpt>
      <trkpt lat="45.65378" lon="4.66497">
        <ele>459.3</ele>
        <time>2015-04-23T08:50:11Z</time>
      </trkpt>
      <trkpt lat="45.65373" lon="4.66509">
        <ele>459</ele>
        <time>2015-04-23T08:50:16Z</time>
      </trkpt>
      <trkpt lat="45.65367" lon="4.6652">
        <ele>458</ele>
        <time>2015-04-23T08:50:21Z</time>
      </trkpt>
      <trkpt lat="45.65364" lon="4.66525">
        <ele>458</ele>
        <time>2015-04-23T08:50:24Z</time>
      </trkpt>
      <trkpt lat="45.65362" lon="4.66531">
        <ele>458</ele>
        <time>2015-04-23T08:50:28Z</time>
      </trkpt>
      <trkpt lat="45.65358" lon="4.6655">
        <ele>458</ele>
        <time>2015-04-23T08:50:38Z</time>
      </trkpt>
      <trkpt lat="45.65358" lon="4.6656">
        <ele>458</ele>
        <time>2015-04-23T08:50:42Z</time>
      </trkpt>
      <trkpt lat="45.65355" lon="4.66565">
        <ele>458</ele>
        <time>2015-04-23T08:50:48Z</time>
      </trkpt>
      <trkpt lat="45.65346" lon="4.6657">
        <ele>458</ele>
        <time>2015-04-23T08:50:55Z</time>
      </trkpt>
      <trkpt lat="45.65336" lon="4.66576">
        <ele>458</ele>
        <time>2015-04-23T08:51:03Z</time>
      </trkpt>
      <trkpt lat="45.65326" lon="4.66583">
        <ele>457.2</ele>
        <time>2015-04-23T08:51:09Z</time>
      </trkpt>
      <trkpt lat="45.65321" lon="4.66588">
        <ele>457</ele>
        <time>2015-04-23T08:51:12Z</time>
      </trkpt>
      <trkpt lat="45.65316" lon="4.666">
        <ele>457</ele>
        <time>2015-04-23T08:51:20Z</time>
      </trkpt>
      <trkpt lat="45.65308" lon="4.66607">
        <ele>457</ele>
        <time>2015-04-23T08:51:28Z</time>
      </trkpt>
      <trkpt lat="45.65304" lon="4.66611">
        <ele>457</ele>
        <time>2015-04-23T08:51:32Z</time>
      </trkpt>
      <trkpt lat="45.65295" lon="4.66617">
        <ele>457</ele>
        <time>2015-04-23T08:51:38Z</time>
      </trkpt>
      <trkpt lat="45.65289" lon="4.66625">
        <ele>457</ele>
        <time>2015-04-23T08:51:44Z</time>
      </trkpt>
      <trkpt lat="45.65287" lon="4.66632">
        <ele>458</ele>
        <time>2015-04-23T08:51:49Z</time>
      </trkpt>
      <trkpt lat="45.65284" lon="4.66637">
        <ele>458</ele>
        <time>2015-04-23T08:51:54Z</time>
      </trkpt>
      <trkpt lat="45.65281" lon="4.66643">
        <ele>458</ele>
        <time>2015-04-23T08:51:58Z</time>
      </trkpt>
      <trkpt lat="45.65275" lon="4.66656">
        <ele>460</ele>
        <time>2015-04-23T08:52:08Z</time>
      </trkpt>
      <trkpt lat="45.65265" lon="4.6667">
        <ele>460</ele>
        <time>2015-04-23T08:52:17Z</time>
      </trkpt>
      <trkpt lat="45.6526" lon="4.66673">
        <ele>460</ele>
        <time>2015-04-23T08:52:21Z</time>
      </trkpt>
      <trkpt lat="45.65257" lon="4.66676">
        <ele>460</ele>
        <time>2015-04-23T08:52:27Z</time>
      </trkpt>
      <trkpt lat="45.65252" lon="4.66688">
        <ele>460</ele>
        <time>2015-04-23T08:52:35Z</time>
      </trkpt>
      <trkpt lat="45.65244" lon="4.66692">
        <ele>460</ele>
        <time>2015-04-23T08:52:43Z</time>
      </trkpt>
      <trkpt lat="45.65238" lon="4.66694">
        <ele>460</ele>
        <time>2015-04-23T08:52:49Z</time>
      </trkpt>
      <trkpt lat="45.65225" lon="4.66702">
        <ele>459.2</ele>
        <time>2015-04-23T08:52:58Z</time>
      </trkpt>
      <trkpt lat="45.65221" lon="4.66705">
        <ele>459</ele>
        <time>2015-04-23T08:53:02Z</time>
      </trkpt>
      <trkpt lat="45.65215" lon="4.66705">
        <ele>459</ele>
        <time>2015-04-23T08:53:05Z</time>
      </trkpt>
      <trkpt lat="45.65204" lon="4.6671">
        <ele>458.1</ele>
        <time>2015-04-23T08:53:12Z</time>
      </trkpt>
      <trkpt lat="45.65191" lon="4.66703">
        <ele>457</ele>
        <time>2015-04-23T08:53:20Z</time>
      </trkpt>
      <trkpt lat="45.65187" lon="4.66703">
        <ele>457</ele>
        <time>2015-04-23T08:53:26Z</time>
      </trkpt>
      <trkpt lat="45.65178" lon="4.667">
        <ele>456</ele>
        <time>2015-04-23T08:53:36Z</time>
      </trkpt>
      <trkpt lat="45.65173" lon="4.66699">
        <ele>456</ele>
        <time>2015-04-23T08:53:41Z</time>
      </trkpt>
      <trkpt lat="45.65168" lon="4.66698">
        <ele>454.4</ele>
        <time>2015-04-23T08:53:45Z</time>
      </trkpt>
      <trkpt lat="45.65164" lon="4.667">
        <ele>453.1</ele>
        <time>2015-04-23T08:53:52Z</time>
      </trkpt>
      <trkpt lat="45.65162" lon="4.66707">
        <ele>452.3</ele>
        <time>2015-04-23T08:53:57Z</time>
      </trkpt>
      <trkpt lat="45.65162" lon="4.66714">
        <ele>452</ele>
        <time>2015-04-23T08:54:01Z</time>
      </trkpt>
      <trkpt lat="45.65157" lon="4.66716">
        <ele>452</ele>
        <time>2015-04-23T08:54:05Z</time>
      </trkpt>
      <trkpt lat="45.65157" lon="4.66723">
        <ele>452</ele>
        <time>2015-04-23T08:54:11Z</time>
      </trkpt>
      <trkpt lat="45.65167" lon="4.66739">
        <ele>452</ele>
        <time>2015-04-23T08:54:21Z</time>
      </trkpt>
      <trkpt lat="45.65181" lon="4.66746">
        <ele>452</ele>
        <time>2015-04-23T08:54:29Z</time>
      </trkpt>
      <trkpt lat="45.65185" lon="4.66749">
        <ele>452</ele>
        <time>2015-04-23T08:54:32Z</time>
      </trkpt>
      <trkpt lat="45.65186" lon="4.66756">
        <ele>452</ele>
        <time>2015-04-23T08:54:35Z</time>
      </trkpt>
      <trkpt lat="45.6519" lon="4.6677">
        <ele>452</ele>
        <time>2015-04-23T08:54:41Z</time>
      </trkpt>
      <trkpt lat="45.65193" lon="4.66775">
        <ele>452</ele>
        <time>2015-04-23T08:54:47Z</time>
      </trkpt>
      <trkpt lat="45.65193" lon="4.66784">
        <ele>452</ele>
        <time>2015-04-23T08:54:57Z</time>
      </trkpt>
      <trkpt lat="45.65195" lon="4.66797">
        <ele>452</ele>
        <time>2015-04-23T08:55:02Z</time>
      </trkpt>
      <trkpt lat="45.65192" lon="4.66803">
        <ele>452</ele>
        <time>2015-04-23T08:55:11Z</time>
      </trkpt>
      <trkpt lat="45.65191" lon="4.66811">
        <ele>452</ele>
        <time>2015-04-23T08:55:17Z</time>
      </trkpt>
      <trkpt lat="45.65192" lon="4.66817">
        <ele>451.2</ele>
        <time>2015-04-23T08:55:24Z</time>
      </trkpt>
      <trkpt lat="45.65192" lon="4.66825">
        <ele>451</ele>
        <time>2015-04-23T08:55:28Z</time>
      </trkpt>
      <trkpt lat="45.65195" lon="4.6683">
        <ele>451</ele>
        <time>2015-04-23T08:55:32Z</time>
      </trkpt>
      <trkpt lat="45.65201" lon="4.66841">
        <ele>451</ele>
        <time>2015-04-23T08:55:38Z</time>
      </trkpt>
      <trkpt lat="45.65202" lon="4.66848">
        <ele>451</ele>
        <time>2015-04-23T08:55:45Z</time>
      </trkpt>
      <trkpt lat="45.65196" lon="4.66858">
        <ele>451</ele>
        <time>2015-04-23T08:55:54Z</time>
      </trkpt>
      <trkpt lat="45.65196" lon="4.66865">
        <ele>452</ele>
        <time>2015-04-23T08:55:59Z</time>
      </trkpt>
      <trkpt lat="45.65195" lon="4.66873">
        <ele>452.5</ele>
        <time>2015-04-23T08:56:04Z</time>
      </trkpt>
      <trkpt lat="45.65192" lon="4.66878">
        <ele>455</ele>
        <time>2015-04-23T08:56:09Z</time>
      </trkpt>
      <trkpt lat="45.65188" lon="4.66881">
        <ele>456.5</ele>
        <time>2015-04-23T08:56:13Z</time>
      </trkpt>
      <trkpt lat="45.65183" lon="4.66892">
        <ele>458.4</ele>
        <time>2015-04-23T08:56:21Z</time>
      </trkpt>
      <trkpt lat="45.65181" lon="4.66899">
        <ele>459</ele>
        <time>2015-04-23T08:56:26Z</time>
      </trkpt>
      <trkpt lat="45.65176" lon="4.66917">
        <ele>459</ele>
        <time>2015-04-23T08:56:38Z</time>
      </trkpt>
      <trkpt lat="45.65172" lon="4.66929">
        <ele>460</ele>
        <time>2015-04-23T08:56:46Z</time>
      </trkpt>
      <trkpt lat="45.65163" lon="4.66945">
        <ele>460</ele>
        <time>2015-04-23T08:56:55Z</time>
      </trkpt>
      <trkpt lat="45.65159" lon="4.66952">
        <ele>460</ele>
        <time>2015-04-23T08:57:00Z</time>
      </trkpt>
      <trkpt lat="45.65153" lon="4.66964">
        <ele>462.6</ele>
        <time>2015-04-23T08:57:07Z</time>
      </trkpt>
      <trkpt lat="45.6515" lon="4.66971">
        <ele>464.7</ele>
        <time>2015-04-23T08:57:13Z</time>
      </trkpt>
      <trkpt lat="45.65143" lon="4.66979">
        <ele>466.7</ele>
        <time>2015-04-23T08:57:20Z</time>
      </trkpt>
      <trkpt lat="45.65137" lon="4.66981">
        <ele>467</ele>
        <time>2015-04-23T08:57:24Z</time>
      </trkpt>
      <trkpt lat="45.65127" lon="4.66979">
        <ele>467</ele>
        <time>2015-04-23T08:57:29Z</time>
      </trkpt>
      <trkpt lat="45.65121" lon="4.6698">
        <ele>467</ele>
        <time>2015-04-23T08:57:32Z</time>
      </trkpt>
      <trkpt lat="45.65117" lon="4.66984">
        <ele>467.5</ele>
        <time>2015-04-23T08:57:36Z</time>
      </trkpt>
      <trkpt lat="45.65113" lon="4.66988">
        <ele>468</ele>
        <time>2015-04-23T08:57:40Z</time>
      </trkpt>
      <trkpt lat="45.65108" lon="4.66989">
        <ele>468</ele>
        <time>2015-04-23T08:57:44Z</time>
      </trkpt>
      <trkpt lat="45.65103" lon="4.66988">
        <ele>468</ele>
        <time>2015-04-23T08:57:50Z</time>
      </trkpt>
      <trkpt lat="45.65098" lon="4.66991">
        <ele>468</ele>
        <time>2015-04-23T08:57:55Z</time>
      </trkpt>
      <trkpt lat="45.65093" lon="4.66992">
        <ele>468</ele>
        <time>2015-04-23T08:58:00Z</time>
      </trkpt>
      <trkpt lat="45.65088" lon="4.66995">
        <ele>468</ele>
        <time>2015-04-23T08:58:04Z</time>
      </trkpt>
      <trkpt lat="45.65073" lon="4.66997">
        <ele>468</ele>
        <time>2015-04-23T08:58:11Z</time>
      </trkpt>
      <trkpt lat="45.65068" lon="4.67">
        <ele>468</ele>
        <time>2015-04-23T08:58:14Z</time>
      </trkpt>
      <trkpt lat="45.65065" lon="4.67004">
        <ele>468</ele>
        <time>2015-04-23T08:58:16Z</time>
      </trkpt>
      <trkpt lat="45.65058" lon="4.67014">
        <ele>468</ele>
        <time>2015-04-23T08:58:21Z</time>
      </trkpt>
      <trkpt lat="45.65053" lon="4.67017">
        <ele>468</ele>
        <time>2015-04-23T08:58:25Z</time>
      </trkpt>
      <trkpt lat="45.65048" lon="4.67019">
        <ele>468</ele>
        <time>2015-04-23T08:58:30Z</time>
      </trkpt>
      <trkpt lat="45.65045" lon="4.67024">
        <ele>468</ele>
        <time>2015-04-23T08:58:34Z</time>
      </trkpt>
      <trkpt lat="45.65042" lon="4.67029">
        <ele>468</ele>
        <time>2015-04-23T08:58:38Z</time>
      </trkpt>
      <trkpt lat="45.6504" lon="4.67038">
        <ele>468</ele>
        <time>2015-04-23T08:58:44Z</time>
      </trkpt>
      <trkpt lat="45.65035" lon="4.6705">
        <ele>468</ele>
        <time>2015-04-23T08:58:49Z</time>
      </trkpt>
      <trkpt lat="45.65033" lon="4.67057">
        <ele>468</ele>
        <time>2015-04-23T08:58:53Z</time>
      </trkpt>
      <trkpt lat="45.65026" lon="4.67067">
        <ele>468</ele>
        <time>2015-04-23T08:58:59Z</time>
      </trkpt>
      <trkpt lat="45.65022" lon="4.67069">
        <ele>468.5</ele>
        <time>2015-04-23T08:59:03Z</time>
      </trkpt>
      <trkpt lat="45.65019" lon="4.67076">
        <ele>468.9</ele>
        <time>2015-04-23T08:59:07Z</time>
      </trkpt>
      <trkpt lat="45.65012" lon="4.67085">
        <ele>469.5</ele>
        <time>2015-04-23T08:59:13Z</time>
      </trkpt>
      <trkpt lat="45.65008" lon="4.67088">
        <ele>469.9</ele>
        <time>2015-04-23T08:59:16Z</time>
      </trkpt>
      <trkpt lat="45.65" lon="4.67092">
        <ele>470</ele>
        <time>2015-04-23T08:59:22Z</time>
      </trkpt>
      <trkpt lat="45.64995" lon="4.67092">
        <ele>470</ele>
        <time>2015-04-23T08:59:24Z</time>
      </trkpt>
      <trkpt lat="45.6499" lon="4.67094">
        <ele>470</ele>
        <time>2015-04-23T08:59:26Z</time>
      </trkpt>
      <trkpt lat="45.64984" lon="4.67102">
        <ele>470</ele>
        <time>2015-04-23T08:59:31Z</time>
      </trkpt>
      <trkpt lat="45.6498" lon="4.67105">
        <ele>470</ele>
        <time>2015-04-23T08:59:35Z</time>
      </trkpt>
      <trkpt lat="45.64975" lon="4.67102">
        <ele>470</ele>
        <time>2015-04-23T08:59:40Z</time>
      </trkpt>
      <trkpt lat="45.64971" lon="4.67109">
        <ele>470</ele>
        <time>2015-04-23T08:59:44Z</time>
      </trkpt>
      <trkpt lat="45.64957" lon="4.67121">
        <ele>470</ele>
        <time>2015-04-23T08:59:52Z</time>
      </trkpt>
      <trkpt lat="45.64952" lon="4.67124">
        <ele>470</ele>
        <time>2015-04-23T08:59:54Z</time>
      </trkpt>
      <trkpt lat="45.64947" lon="4.67124">
        <ele>470</ele>
        <time>2015-04-23T08:59:56Z</time>
      </trkpt>
      <trkpt lat="45.64943" lon="4.67127">
        <ele>469</ele>
        <time>2015-04-23T08:59:59Z</time>
      </trkpt>
      <trkpt lat="45.64938" lon="4.67129">
        <ele>469</ele>
        <time>2015-04-23T09:00:10Z</time>
      </trkpt>
      <trkpt lat="45.64934" lon="4.67132">
        <ele>469</ele>
        <time>2015-04-23T09:00:13Z</time>
      </trkpt>
      <trkpt lat="45.64931" lon="4.67137">
        <ele>469</ele>
        <time>2015-04-23T09:00:15Z</time>
      </trkpt>
      <trkpt lat="45.64927" lon="4.67143">
        <ele>469</ele>
        <time>2015-04-23T09:00:18Z</time>
      </trkpt>
      <trkpt lat="45.64921" lon="4.67146">
        <ele>469</ele>
        <time>2015-04-23T09:00:21Z</time>
      </trkpt>
      <trkpt lat="45.64908" lon="4.67152">
        <ele>469</ele>
        <time>2015-04-23T09:00:30Z</time>
      </trkpt>
      <trkpt lat="45.64899" lon="4.67158">
        <ele>469</ele>
        <time>2015-04-23T09:00:37Z</time>
      </trkpt>
      <trkpt lat="45.64886" lon="4.67156">
        <ele>469</ele>
        <time>2015-04-23T09:00:43Z</time>
      </trkpt>
      <trkpt lat="45.64882" lon="4.6716">
        <ele>468</ele>
        <time>2015-04-23T09:00:47Z</time>
      </trkpt>
      <trkpt lat="45.64875" lon="4.67173">
        <ele>469</ele>
        <time>2015-04-23T09:00:57Z</time>
      </trkpt>
      <trkpt lat="45.64872" lon="4.67187">
        <ele>469</ele>
        <time>2015-04-23T09:01:04Z</time>
      </trkpt>
      <trkpt lat="45.64873" lon="4.67201">
        <ele>469</ele>
        <time>2015-04-23T09:01:09Z</time>
      </trkpt>
      <trkpt lat="45.64871" lon="4.67207">
        <ele>469</ele>
        <time>2015-04-23T09:01:12Z</time>
      </trkpt>
      <trkpt lat="45.64864" lon="4.67219">
        <ele>468.1</ele>
        <time>2015-04-23T09:01:20Z</time>
      </trkpt>
      <trkpt lat="45.6486" lon="4.67223">
        <ele>468</ele>
        <time>2015-04-23T09:01:23Z</time>
      </trkpt>
      <trkpt lat="45.64857" lon="4.67229">
        <ele>468</ele>
        <time>2015-04-23T09:01:29Z</time>
      </trkpt>
      <trkpt lat="45.64854" lon="4.67241">
        <ele>468</ele>
        <time>2015-04-23T09:01:34Z</time>
      </trkpt>
      <trkpt lat="45.64851" lon="4.67249">
        <ele>468.5</ele>
        <time>2015-04-23T09:01:37Z</time>
      </trkpt>
      <trkpt lat="45.64842" lon="4.67264">
        <ele>469</ele>
        <time>2015-04-23T09:01:46Z</time>
      </trkpt>
      <trkpt lat="45.64841" lon="4.67272">
        <ele>469.9</ele>
        <time>2015-04-23T09:01:49Z</time>
      </trkpt>
      <trkpt lat="45.64842" lon="4.6728">
        <ele>469.9</ele>
        <time>2015-04-23T09:01:52Z</time>
      </trkpt>
      <trkpt lat="45.64845" lon="4.67287">
        <ele>473.4</ele>
        <time>2015-04-23T09:01:57Z</time>
      </trkpt>
      <trkpt lat="45.64839" lon="4.67296">
        <ele>474</ele>
        <time>2015-04-23T09:02:06Z</time>
      </trkpt>
      <trkpt lat="45.64832" lon="4.67303">
        <ele>474</ele>
        <time>2015-04-23T09:02:13Z</time>
      </trkpt>
      <trkpt lat="45.64827" lon="4.67308">
        <ele>474</ele>
        <time>2015-04-23T09:02:16Z</time>
      </trkpt>
      <trkpt lat="45.64825" lon="4.67315">
        <ele>474</ele>
        <time>2015-04-23T09:02:20Z</time>
      </trkpt>
      <trkpt lat="45.64824" lon="4.67322">
        <ele>474</ele>
        <time>2015-04-23T09:02:25Z</time>
      </trkpt>
      <trkpt lat="45.64827" lon="4.67328">
        <ele>474</ele>
        <time>2015-04-23T09:02:28Z</time>
      </trkpt>
      <trkpt lat="45.64832" lon="4.67341">
        <ele>474</ele>
        <time>2015-04-23T09:02:36Z</time>
      </trkpt>
      <trkpt lat="45.64835" lon="4.67356">
        <ele>474</ele>
        <time>2015-04-23T09:02:41Z</time>
      </trkpt>
      <trkpt lat="45.64834" lon="4.67371">
        <ele>474</ele>
        <time>2015-04-23T09:02:47Z</time>
      </trkpt>
      <trkpt lat="45.64835" lon="4.67379">
        <ele>474.5</ele>
        <time>2015-04-23T09:02:51Z</time>
      </trkpt>
      <trkpt lat="45.64842" lon="4.67397">
        <ele>474.5</ele>
        <time>2015-04-23T09:03:01Z</time>
      </trkpt>
      <trkpt lat="45.64846" lon="4.6741">
        <ele>475</ele>
        <time>2015-04-23T09:03:08Z</time>
      </trkpt>
      <trkpt lat="45.64847" lon="4.67422">
        <ele>475</ele>
        <time>2015-04-23T09:03:15Z</time>
      </trkpt>
      <trkpt lat="45.64852" lon="4.67428">
        <ele>475</ele>
        <time>2015-04-23T09:03:21Z</time>
      </trkpt>
      <trkpt lat="45.64852" lon="4.67436">
        <ele>475</ele>
        <time>2015-04-23T09:03:23Z</time>
      </trkpt>
      <trkpt lat="45.64851" lon="4.67443">
        <ele>475</ele>
        <time>2015-04-23T09:03:25Z</time>
      </trkpt>
      <trkpt lat="45.64849" lon="4.67452">
        <ele>474</ele>
        <time>2015-04-23T09:03:28Z</time>
      </trkpt>
      <trkpt lat="45.64848" lon="4.67461">
        <ele>474</ele>
        <time>2015-04-23T09:03:31Z</time>
      </trkpt>
      <trkpt lat="45.64849" lon="4.67474">
        <ele>474</ele>
        <time>2015-04-23T09:03:37Z</time>
      </trkpt>
      <trkpt lat="45.64849" lon="4.67489">
        <ele>472.5</ele>
        <time>2015-04-23T09:03:44Z</time>
      </trkpt>
      <trkpt lat="45.64848" lon="4.67495">
        <ele>472</ele>
        <time>2015-04-23T09:03:47Z</time>
      </trkpt>
      <trkpt lat="45.64846" lon="4.67503">
        <ele>472</ele>
        <time>2015-04-23T09:03:50Z</time>
      </trkpt>
      <trkpt lat="45.64841" lon="4.67517">
        <ele>471</ele>
        <time>2015-04-23T09:03:58Z</time>
      </trkpt>
      <trkpt lat="45.64839" lon="4.67523">
        <ele>471</ele>
        <time>2015-04-23T09:04:03Z</time>
      </trkpt>
      <trkpt lat="45.64834" lon="4.67523">
        <ele>471</ele>
        <time>2015-04-23T09:04:06Z</time>
      </trkpt>
      <trkpt lat="45.64821" lon="4.67528">
        <ele>471</ele>
        <time>2015-04-23T09:04:24Z</time>
      </trkpt>
      <trkpt lat="45.64815" lon="4.67528">
        <ele>471</ele>
        <time>2015-04-23T09:04:28Z</time>
      </trkpt>
      <trkpt lat="45.6481" lon="4.67529">
        <ele>471.8</ele>
        <time>2015-04-23T09:04:31Z</time>
      </trkpt>
      <trkpt lat="45.64804" lon="4.67529">
        <ele>471.8</ele>
        <time>2015-04-23T09:04:35Z</time>
      </trkpt>
      <trkpt lat="45.64797" lon="4.6753">
        <ele>472</ele>
        <time>2015-04-23T09:04:41Z</time>
      </trkpt>
      <trkpt lat="45.64787" lon="4.6753">
        <ele>472.8</ele>
        <time>2015-04-23T09:04:49Z</time>
      </trkpt>
      <trkpt lat="45.64781" lon="4.67529">
        <ele>473</ele>
        <time>2015-04-23T09:04:53Z</time>
      </trkpt>
      <trkpt lat="45.64767" lon="4.67532">
        <ele>473.9</ele>
        <time>2015-04-23T09:05:03Z</time>
      </trkpt>
      <trkpt lat="45.64762" lon="4.67532">
        <ele>474</ele>
        <time>2015-04-23T09:05:07Z</time>
      </trkpt>
      <trkpt lat="45.64758" lon="4.67531">
        <ele>474</ele>
        <time>2015-04-23T09:05:11Z</time>
      </trkpt>
      <trkpt lat="45.64752" lon="4.67531">
        <ele>474</ele>
        <time>2015-04-23T09:05:19Z</time>
      </trkpt>
      <trkpt lat="45.64747" lon="4.67533">
        <ele>474</ele>
        <time>2015-04-23T09:05:25Z</time>
      </trkpt>
      <trkpt lat="45.64741" lon="4.67531">
        <ele>474</ele>
        <time>2015-04-23T09:05:29Z</time>
      </trkpt>
      <trkpt lat="45.64736" lon="4.6753">
        <ele>474</ele>
        <time>2015-04-23T09:05:32Z</time>
      </trkpt>
      <trkpt lat="45.64731" lon="4.67531">
        <ele>474</ele>
        <time>2015-04-23T09:05:37Z</time>
      </trkpt>
      <trkpt lat="45.64727" lon="4.67536">
        <ele>474</ele>
        <time>2015-04-23T09:05:41Z</time>
      </trkpt>
      <trkpt lat="45.64724" lon="4.67541">
        <ele>474</ele>
        <time>2015-04-23T09:05:46Z</time>
      </trkpt>
      <trkpt lat="45.64717" lon="4.67535">
        <ele>474</ele>
        <time>2015-04-23T09:06:02Z</time>
      </trkpt>
      <trkpt lat="45.64712" lon="4.67535">
        <ele>474</ele>
        <time>2015-04-23T09:06:09Z</time>
      </trkpt>
      <trkpt lat="45.64707" lon="4.6753">
        <ele>474</ele>
        <time>2015-04-23T09:06:13Z</time>
      </trkpt>
      <trkpt lat="45.64702" lon="4.67527">
        <ele>474</ele>
        <time>2015-04-23T09:06:17Z</time>
      </trkpt>
      <trkpt lat="45.64697" lon="4.67525">
        <ele>474</ele>
        <time>2015-04-23T09:06:27Z</time>
      </trkpt>
      <trkpt lat="45.64684" lon="4.67518">
        <ele>473</ele>
        <time>2015-04-23T09:06:37Z</time>
      </trkpt>
      <trkpt lat="45.6468" lon="4.67515">
        <ele>473</ele>
        <time>2015-04-23T09:06:42Z</time>
      </trkpt>
      <trkpt lat="45.64677" lon="4.67509">
        <ele>473</ele>
        <time>2015-04-23T09:06:47Z</time>
      </trkpt>
      <trkpt lat="45.64674" lon="4.67503">
        <ele>473</ele>
        <time>2015-04-23T09:06:52Z</time>
      </trkpt>
      <trkpt lat="45.64665" lon="4.67497">
        <ele>473</ele>
        <time>2015-04-23T09:07:00Z</time>
      </trkpt>
      <trkpt lat="45.64656" lon="4.67494">
        <ele>472</ele>
        <time>2015-04-23T09:07:07Z</time>
      </trkpt>
      <trkpt lat="45.64651" lon="4.67493">
        <ele>472</ele>
        <time>2015-04-23T09:07:10Z</time>
      </trkpt>
      <trkpt lat="45.64646" lon="4.67494">
        <ele>472</ele>
        <time>2015-04-23T09:07:14Z</time>
      </trkpt>
      <trkpt lat="45.64636" lon="4.67499">
        <ele>472</ele>
        <time>2015-04-23T09:07:19Z</time>
      </trkpt>
      <trkpt lat="45.6463" lon="4.67501">
        <ele>472</ele>
        <time>2015-04-23T09:07:23Z</time>
      </trkpt>
      <trkpt lat="45.64624" lon="4.67501">
        <ele>472</ele>
        <time>2015-04-23T09:07:27Z</time>
      </trkpt>
      <trkpt lat="45.64618" lon="4.67501">
        <ele>471.5</ele>
        <time>2015-04-23T09:07:30Z</time>
      </trkpt>
      <trkpt lat="45.64608" lon="4.675">
        <ele>471.1</ele>
        <time>2015-04-23T09:07:35Z</time>
      </trkpt>
      <trkpt lat="45.64597" lon="4.67497">
        <ele>470.3</ele>
        <time>2015-04-23T09:07:40Z</time>
      </trkpt>
      <trkpt lat="45.64584" lon="4.67492">
        <ele>469.1</ele>
        <time>2015-04-23T09:07:48Z</time>
      </trkpt>
      <trkpt lat="45.64575" lon="4.67488">
        <ele>468.1</ele>
        <time>2015-04-23T09:07:54Z</time>
      </trkpt>
      <trkpt lat="45.64562" lon="4.6748">
        <ele>465.3</ele>
        <time>2015-04-23T09:08:07Z</time>
      </trkpt>
      <trkpt lat="45.64556" lon="4.67477">
        <ele>464.5</ele>
        <time>2015-04-23T09:08:10Z</time>
      </trkpt>
      <trkpt lat="45.6455" lon="4.67477">
        <ele>464.5</ele>
        <time>2015-04-23T09:08:13Z</time>
      </trkpt>
      <trkpt lat="45.64545" lon="4.67479">
        <ele>464</ele>
        <time>2015-04-23T09:08:18Z</time>
      </trkpt>
      <trkpt lat="45.64541" lon="4.67475">
        <ele>463.5</ele>
        <time>2015-04-23T09:08:24Z</time>
      </trkpt>
      <trkpt lat="45.64531" lon="4.67476">
        <ele>461.7</ele>
        <time>2015-04-23T09:08:30Z</time>
      </trkpt>
      <trkpt lat="45.64526" lon="4.67477">
        <ele>460.1</ele>
        <time>2015-04-23T09:08:32Z</time>
      </trkpt>
      <trkpt lat="45.64521" lon="4.67475">
        <ele>460.1</ele>
        <time>2015-04-23T09:08:35Z</time>
      </trkpt>
      <trkpt lat="45.64511" lon="4.67476">
        <ele>459</ele>
        <time>2015-04-23T09:08:43Z</time>
      </trkpt>
      <trkpt lat="45.64506" lon="4.67473">
        <ele>459</ele>
        <time>2015-04-23T09:08:46Z</time>
      </trkpt>
      <trkpt lat="45.645" lon="4.6747">
        <ele>459</ele>
        <time>2015-04-23T09:08:49Z</time>
      </trkpt>
      <trkpt lat="45.64486" lon="4.67465">
        <ele>457.4</ele>
        <time>2015-04-23T09:09:03Z</time>
      </trkpt>
      <trkpt lat="45.64481" lon="4.67463">
        <ele>456</ele>
        <time>2015-04-23T09:09:08Z</time>
      </trkpt>
      <trkpt lat="45.64464" lon="4.67458">
        <ele>456</ele>
        <time>2015-04-23T09:09:16Z</time>
      </trkpt>
      <trkpt lat="45.64451" lon="4.67445">
        <ele>456</ele>
        <time>2015-04-23T09:09:19Z</time>
      </trkpt>
      <trkpt lat="45.64447" lon="4.67439">
        <ele>456</ele>
        <time>2015-04-23T09:09:20Z</time>
      </trkpt>
      <trkpt lat="45.64448" lon="4.67429">
        <ele>456</ele>
        <time>2015-04-23T09:09:22Z</time>
      </trkpt>
      <trkpt lat="45.64451" lon="4.67424">
        <ele>456</ele>
        <time>2015-04-23T09:09:26Z</time>
      </trkpt>
      <trkpt lat="45.64449" lon="4.67418">
        <ele>455.1</ele>
        <time>2015-04-23T09:09:33Z</time>
      </trkpt>
      <trkpt lat="45.64443" lon="4.67407">
        <ele>455</ele>
        <time>2015-04-23T09:09:40Z</time>
      </trkpt>
      <trkpt lat="45.64439" lon="4.67403">
        <ele>455</ele>
        <time>2015-04-23T09:09:45Z</time>
      </trkpt>
      <trkpt lat="45.64437" lon="4.67391">
        <ele>455.8</ele>
        <time>2015-04-23T09:09:55Z</time>
      </trkpt>
      <trkpt lat="45.64435" lon="4.67382">
        <ele>456</ele>
        <time>2015-04-23T09:09:57Z</time>
      </trkpt>
      <trkpt lat="45.64431" lon="4.67371">
        <ele>456</ele>
        <time>2015-04-23T09:10:00Z</time>
      </trkpt>
      <trkpt lat="45.64429" lon="4.67365">
        <ele>456</ele>
        <time>2015-04-23T09:10:02Z</time>
      </trkpt>
      <trkpt lat="45.64429" lon="4.67358">
        <ele>456</ele>
        <time>2015-04-23T09:10:04Z</time>
      </trkpt>
      <trkpt lat="45.64428" lon="4.67349">
        <ele>457</ele>
        <time>2015-04-23T09:10:07Z</time>
      </trkpt>
      <trkpt lat="45.64424" lon="4.67342">
        <ele>457</ele>
        <time>2015-04-23T09:10:10Z</time>
      </trkpt>
      <trkpt lat="45.64421" lon="4.67336">
        <ele>457.9</ele>
        <time>2015-04-23T09:10:14Z</time>
      </trkpt>
      <trkpt lat="45.64419" lon="4.6733">
        <ele>458</ele>
        <time>2015-04-23T09:10:21Z</time>
      </trkpt>
      <trkpt lat="45.64415" lon="4.67325">
        <ele>461.8</ele>
        <time>2015-04-23T09:10:27Z</time>
      </trkpt>
      <trkpt lat="45.64416" lon="4.67308">
        <ele>462</ele>
        <time>2015-04-23T09:10:34Z</time>
      </trkpt>
      <trkpt lat="45.64414" lon="4.67295">
        <ele>462.9</ele>
        <time>2015-04-23T09:10:42Z</time>
      </trkpt>
      <trkpt lat="45.64413" lon="4.67286">
        <ele>463</ele>
        <time>2015-04-23T09:10:47Z</time>
      </trkpt>
      <trkpt lat="45.6441" lon="4.67279">
        <ele>463</ele>
        <time>2015-04-23T09:10:51Z</time>
      </trkpt>
      <trkpt lat="45.64411" lon="4.6727">
        <ele>463</ele>
        <time>2015-04-23T09:10:53Z</time>
      </trkpt>
      <trkpt lat="45.64413" lon="4.67262">
        <ele>463</ele>
        <time>2015-04-23T09:10:55Z</time>
      </trkpt>
      <trkpt lat="45.64412" lon="4.67254">
        <ele>465</ele>
        <time>2015-04-23T09:11:08Z</time>
      </trkpt>
      <trkpt lat="45.64409" lon="4.67248">
        <ele>466.7</ele>
        <time>2015-04-23T09:11:11Z</time>
      </trkpt>
      <trkpt lat="45.64406" lon="4.67243">
        <ele>466.7</ele>
        <time>2015-04-23T09:11:14Z</time>
      </trkpt>
      <trkpt lat="45.64403" lon="4.67235">
        <ele>467</ele>
        <time>2015-04-23T09:11:17Z</time>
      </trkpt>
      <trkpt lat="45.644" lon="4.67222">
        <ele>468</ele>
        <time>2015-04-23T09:11:23Z</time>
      </trkpt>
      <trkpt lat="45.644" lon="4.67209">
        <ele>468</ele>
        <time>2015-04-23T09:11:30Z</time>
      </trkpt>
      <trkpt lat="45.64396" lon="4.67201">
        <ele>468</ele>
        <time>2015-04-23T09:11:34Z</time>
      </trkpt>
      <trkpt lat="45.64394" lon="4.67188">
        <ele>468</ele>
        <time>2015-04-23T09:11:42Z</time>
      </trkpt>
      <trkpt lat="45.64389" lon="4.67173">
        <ele>468</ele>
        <time>2015-04-23T09:11:51Z</time>
      </trkpt>
      <trkpt lat="45.64391" lon="4.67159">
        <ele>468</ele>
        <time>2015-04-23T09:11:56Z</time>
      </trkpt>
      <trkpt lat="45.64391" lon="4.67152">
        <ele>468</ele>
        <time>2015-04-23T09:11:58Z</time>
      </trkpt>
      <trkpt lat="45.6439" lon="4.67145">
        <ele>468</ele>
        <time>2015-04-23T09:12:01Z</time>
      </trkpt>
      <trkpt lat="45.64386" lon="4.6713">
        <ele>467</ele>
        <time>2015-04-23T09:12:08Z</time>
      </trkpt>
      <trkpt lat="45.64386" lon="4.67124">
        <ele>467</ele>
        <time>2015-04-23T09:12:12Z</time>
      </trkpt>
      <trkpt lat="45.64387" lon="4.67116">
        <ele>466.1</ele>
        <time>2015-04-23T09:12:15Z</time>
      </trkpt>
      <trkpt lat="45.64387" lon="4.67109">
        <ele>466.1</ele>
        <time>2015-04-23T09:12:18Z</time>
      </trkpt>
      <trkpt lat="45.64385" lon="4.67096">
        <ele>466</ele>
        <time>2015-04-23T09:12:25Z</time>
      </trkpt>
      <trkpt lat="45.64388" lon="4.67089">
        <ele>466</ele>
        <time>2015-04-23T09:12:29Z</time>
      </trkpt>
      <trkpt lat="45.64389" lon="4.67081">
        <ele>466</ele>
        <time>2015-04-23T09:12:33Z</time>
      </trkpt>
      <trkpt lat="45.64386" lon="4.67068">
        <ele>466</ele>
        <time>2015-04-23T09:12:40Z</time>
      </trkpt>
      <trkpt lat="45.64381" lon="4.67057">
        <ele>466</ele>
        <time>2015-04-23T09:12:47Z</time>
      </trkpt>
      <trkpt lat="45.64377" lon="4.67052">
        <ele>467</ele>
        <time>2015-04-23T09:12:53Z</time>
      </trkpt>
      <trkpt lat="45.64377" lon="4.67044">
        <ele>467</ele>
        <time>2015-04-23T09:12:56Z</time>
      </trkpt>
      <trkpt lat="45.6438" lon="4.67023">
        <ele>467</ele>
        <time>2015-04-23T09:13:03Z</time>
      </trkpt>
      <trkpt lat="45.64384" lon="4.6701">
        <ele>467</ele>
        <time>2015-04-23T09:13:08Z</time>
      </trkpt>
      <trkpt lat="45.64384" lon="4.67003">
        <ele>467</ele>
        <time>2015-04-23T09:13:11Z</time>
      </trkpt>
      <trkpt lat="45.64383" lon="4.66996">
        <ele>467</ele>
        <time>2015-04-23T09:13:14Z</time>
      </trkpt>
      <trkpt lat="45.64388" lon="4.66988">
        <ele>467</ele>
        <time>2015-04-23T09:13:17Z</time>
      </trkpt>
      <trkpt lat="45.64401" lon="4.6698">
        <ele>466.2</ele>
        <time>2015-04-23T09:13:26Z</time>
      </trkpt>
      <trkpt lat="45.64407" lon="4.66968">
        <ele>461</ele>
        <time>2015-04-23T09:13:31Z</time>
      </trkpt>
      <trkpt lat="45.64403" lon="4.66963">
        <ele>460.1</ele>
        <time>2015-04-23T09:13:38Z</time>
      </trkpt>
      <trkpt lat="45.64398" lon="4.66959">
        <ele>459</ele>
        <time>2015-04-23T09:13:45Z</time>
      </trkpt>
      <trkpt lat="45.64397" lon="4.66953">
        <ele>459</ele>
        <time>2015-04-23T09:13:49Z</time>
      </trkpt>
      <trkpt lat="45.64399" lon="4.66947">
        <ele>459</ele>
        <time>2015-04-23T09:13:54Z</time>
      </trkpt>
      <trkpt lat="45.64407" lon="4.66931">
        <ele>459</ele>
        <time>2015-04-23T09:14:04Z</time>
      </trkpt>
      <trkpt lat="45.64416" lon="4.66916">
        <ele>459</ele>
        <time>2015-04-23T09:14:13Z</time>
      </trkpt>
      <trkpt lat="45.64423" lon="4.66907">
        <ele>459</ele>
        <time>2015-04-23T09:14:19Z</time>
      </trkpt>
      <trkpt lat="45.64427" lon="4.66899">
        <ele>460</ele>
        <time>2015-04-23T09:14:23Z</time>
      </trkpt>
      <trkpt lat="45.64427" lon="4.66892">
        <ele>460</ele>
        <time>2015-04-23T09:14:29Z</time>
      </trkpt>
      <trkpt lat="45.6443" lon="4.66887">
        <ele>460</ele>
        <time>2015-04-23T09:14:32Z</time>
      </trkpt>
      <trkpt lat="45.64433" lon="4.66879">
        <ele>460</ele>
        <time>2015-04-23T09:14:36Z</time>
      </trkpt>
      <trkpt lat="45.64436" lon="4.66872">
        <ele>460</ele>
        <time>2015-04-23T09:14:40Z</time>
      </trkpt>
      <trkpt lat="45.64441" lon="4.66861">
        <ele>460</ele>
        <time>2015-04-23T09:14:47Z</time>
      </trkpt>
      <trkpt lat="45.64452" lon="4.66849">
        <ele>459.5</ele>
        <time>2015-04-23T09:14:56Z</time>
      </trkpt>
      <trkpt lat="45.64459" lon="4.66841">
        <ele>459</ele>
        <time>2015-04-23T09:15:02Z</time>
      </trkpt>
      <trkpt lat="45.64464" lon="4.66837">
        <ele>459</ele>
        <time>2015-04-23T09:15:06Z</time>
      </trkpt>
      <trkpt lat="45.64472" lon="4.66828">
        <ele>459</ele>
        <time>2015-04-23T09:15:12Z</time>
      </trkpt>
      <trkpt lat="45.64477" lon="4.66816">
        <ele>459</ele>
        <time>2015-04-23T09:15:21Z</time>
      </trkpt>
      <trkpt lat="45.64481" lon="4.66803">
        <ele>459</ele>
        <time>2015-04-23T09:15:29Z</time>
      </trkpt>
      <trkpt lat="45.64484" lon="4.66797">
        <ele>459</ele>
        <time>2015-04-23T09:15:32Z</time>
      </trkpt>
      <trkpt lat="45.64489" lon="4.66794">
        <ele>459</ele>
        <time>2015-04-23T09:15:35Z</time>
      </trkpt>
      <trkpt lat="45.64495" lon="4.6679">
        <ele>459</ele>
        <time>2015-04-23T09:15:38Z</time>
      </trkpt>
      <trkpt lat="45.64499" lon="4.66786">
        <ele>459</ele>
        <time>2015-04-23T09:15:41Z</time>
      </trkpt>
      <trkpt lat="45.64506" lon="4.66777">
        <ele>459</ele>
        <time>2015-04-23T09:15:47Z</time>
      </trkpt>
      <trkpt lat="45.64513" lon="4.66766">
        <ele>459.8</ele>
        <time>2015-04-23T09:15:52Z</time>
      </trkpt>
      <trkpt lat="45.64516" lon="4.6676">
        <ele>460</ele>
        <time>2015-04-23T09:15:58Z</time>
      </trkpt>
      <trkpt lat="45.64519" lon="4.66755">
        <ele>460</ele>
        <time>2015-04-23T09:16:02Z</time>
      </trkpt>
      <trkpt lat="45.64526" lon="4.66747">
        <ele>460</ele>
        <time>2015-04-23T09:16:07Z</time>
      </trkpt>
      <trkpt lat="45.64529" lon="4.66741">
        <ele>460.5</ele>
        <time>2015-04-23T09:16:11Z</time>
      </trkpt>
      <trkpt lat="45.64533" lon="4.66736">
        <ele>460.5</ele>
        <time>2015-04-23T09:16:15Z</time>
      </trkpt>
      <trkpt lat="45.64535" lon="4.66729">
        <ele>461</ele>
        <time>2015-04-23T09:16:20Z</time>
      </trkpt>
      <trkpt lat="45.64538" lon="4.66723">
        <ele>461</ele>
        <time>2015-04-23T09:16:24Z</time>
      </trkpt>
      <trkpt lat="45.64543" lon="4.66702">
        <ele>462</ele>
        <time>2015-04-23T09:16:34Z</time>
      </trkpt>
      <trkpt lat="45.64544" lon="4.66696">
        <ele>462</ele>
        <time>2015-04-23T09:16:36Z</time>
      </trkpt>
      <trkpt lat="45.64542" lon="4.66689">
        <ele>462</ele>
        <time>2015-04-23T09:16:40Z</time>
      </trkpt>
      <trkpt lat="45.6454" lon="4.66676">
        <ele>462.9</ele>
        <time>2015-04-23T09:16:47Z</time>
      </trkpt>
      <trkpt lat="45.6454" lon="4.66666">
        <ele>463.9</ele>
        <time>2015-04-23T09:16:52Z</time>
      </trkpt>
      <trkpt lat="45.64538" lon="4.66659">
        <ele>463.9</ele>
        <time>2015-04-23T09:16:56Z</time>
      </trkpt>
      <trkpt lat="45.64536" lon="4.66644">
        <ele>465.7</ele>
        <time>2015-04-23T09:17:01Z</time>
      </trkpt>
      <trkpt lat="45.64537" lon="4.66637">
        <ele>466</ele>
        <time>2015-04-23T09:17:04Z</time>
      </trkpt>
      <trkpt lat="45.6454" lon="4.6663">
        <ele>466</ele>
        <time>2015-04-23T09:17:09Z</time>
      </trkpt>
      <trkpt lat="45.64536" lon="4.66617">
        <ele>466</ele>
        <time>2015-04-23T09:17:16Z</time>
      </trkpt>
      <trkpt lat="45.64535" lon="4.6661">
        <ele>467</ele>
        <time>2015-04-23T09:17:20Z</time>
      </trkpt>
      <trkpt lat="45.64531" lon="4.66589">
        <ele>467</ele>
        <time>2015-04-23T09:17:28Z</time>
      </trkpt>
      <trkpt lat="45.64529" lon="4.66569">
        <ele>467.9</ele>
        <time>2015-04-23T09:17:36Z</time>
      </trkpt>
      <trkpt lat="45.64531" lon="4.6655">
        <ele>468</ele>
        <time>2015-04-23T09:17:45Z</time>
      </trkpt>
      <trkpt lat="45.64532" lon="4.66542">
        <ele>468</ele>
        <time>2015-04-23T09:17:48Z</time>
      </trkpt>
      <trkpt lat="45.64533" lon="4.66535">
        <ele>468</ele>
        <time>2015-04-23T09:17:51Z</time>
      </trkpt>
      <trkpt lat="45.64532" lon="4.66528">
        <ele>468</ele>
        <time>2015-04-23T09:17:55Z</time>
      </trkpt>
      <trkpt lat="45.6453" lon="4.6652">
        <ele>468</ele>
        <time>2015-04-23T09:17:59Z</time>
      </trkpt>
      <trkpt lat="45.64527" lon="4.66513">
        <ele>468</ele>
        <time>2015-04-23T09:18:03Z</time>
      </trkpt>
      <trkpt lat="45.64518" lon="4.66496">
        <ele>467.2</ele>
        <time>2015-04-23T09:18:14Z</time>
      </trkpt>
      <trkpt lat="45.64514" lon="4.66489">
        <ele>467</ele>
        <time>2015-04-23T09:18:17Z</time>
      </trkpt>
      <trkpt lat="45.64509" lon="4.66477">
        <ele>467</ele>
        <time>2015-04-23T09:18:23Z</time>
      </trkpt>
      <trkpt lat="45.64501" lon="4.66471">
        <ele>467</ele>
        <time>2015-04-23T09:18:30Z</time>
      </trkpt>
      <trkpt lat="45.64497" lon="4.66465">
        <ele>467</ele>
        <time>2015-04-23T09:18:34Z</time>
      </trkpt>
      <trkpt lat="45.64496" lon="4.66459">
        <ele>467</ele>
        <time>2015-04-23T09:18:37Z</time>
      </trkpt>
      <trkpt lat="45.64491" lon="4.66448">
        <ele>467</ele>
        <time>2015-04-23T09:18:44Z</time>
      </trkpt>
      <trkpt lat="45.64486" lon="4.66442">
        <ele>467</ele>
        <time>2015-04-23T09:18:48Z</time>
      </trkpt>
      <trkpt lat="45.64483" lon="4.66434">
        <ele>467</ele>
        <time>2015-04-23T09:18:51Z</time>
      </trkpt>
      <trkpt lat="45.6448" lon="4.66428">
        <ele>467</ele>
        <time>2015-04-23T09:18:54Z</time>
      </trkpt>
      <trkpt lat="45.64477" lon="4.66423">
        <ele>467.8</ele>
        <time>2015-04-23T09:18:58Z</time>
      </trkpt>
      <trkpt lat="45.64468" lon="4.66417">
        <ele>468</ele>
        <time>2015-04-23T09:19:07Z</time>
      </trkpt>
      <trkpt lat="45.64465" lon="4.66411">
        <ele>468</ele>
        <time>2015-04-23T09:19:11Z</time>
      </trkpt>
      <trkpt lat="45.64464" lon="4.66404">
        <ele>468</ele>
        <time>2015-04-23T09:19:15Z</time>
      </trkpt>
      <trkpt lat="45.64462" lon="4.66398">
        <ele>469</ele>
        <time>2015-04-23T09:19:18Z</time>
      </trkpt>
      <trkpt lat="45.64459" lon="4.66392">
        <ele>469</ele>
        <time>2015-04-23T09:19:21Z</time>
      </trkpt>
      <trkpt lat="45.64458" lon="4.66385">
        <ele>469</ele>
        <time>2015-04-23T09:19:24Z</time>
      </trkpt>
      <trkpt lat="45.64456" lon="4.66377">
        <ele>469.9</ele>
        <time>2015-04-23T09:19:27Z</time>
      </trkpt>
      <trkpt lat="45.64453" lon="4.66371">
        <ele>469.9</ele>
        <time>2015-04-23T09:19:30Z</time>
      </trkpt>
      <trkpt lat="45.64446" lon="4.66361">
        <ele>470</ele>
        <time>2015-04-23T09:19:35Z</time>
      </trkpt>
      <trkpt lat="45.64448" lon="4.66352">
        <ele>470</ele>
        <time>2015-04-23T09:19:41Z</time>
      </trkpt>
      <trkpt lat="45.64448" lon="4.66344">
        <ele>470.8</ele>
        <time>2015-04-23T09:19:47Z</time>
      </trkpt>
      <trkpt lat="45.64447" lon="4.66337">
        <ele>471.5</ele>
        <time>2015-04-23T09:19:51Z</time>
      </trkpt>
      <trkpt lat="45.64443" lon="4.66332">
        <ele>471.5</ele>
        <time>2015-04-23T09:19:54Z</time>
      </trkpt>
      <trkpt lat="45.64441" lon="4.66326">
        <ele>472</ele>
        <time>2015-04-23T09:19:57Z</time>
      </trkpt>
      <trkpt lat="45.64438" lon="4.66318">
        <ele>472</ele>
        <time>2015-04-23T09:20:00Z</time>
      </trkpt>
      <trkpt lat="45.64434" lon="4.66313">
        <ele>472</ele>
        <time>2015-04-23T09:20:03Z</time>
      </trkpt>
      <trkpt lat="45.64431" lon="4.66307">
        <ele>474.9</ele>
        <time>2015-04-23T09:20:06Z</time>
      </trkpt>
      <trkpt lat="45.64426" lon="4.66306">
        <ele>474.9</ele>
        <time>2015-04-23T09:20:11Z</time>
      </trkpt>
      <trkpt lat="45.64419" lon="4.66303">
        <ele>475</ele>
        <time>2015-04-23T09:20:15Z</time>
      </trkpt>
      <trkpt lat="45.64407" lon="4.66292">
        <ele>475.5</ele>
        <time>2015-04-23T09:20:22Z</time>
      </trkpt>
      <trkpt lat="45.644" lon="4.66281">
        <ele>476</ele>
        <time>2015-04-23T09:20:29Z</time>
      </trkpt>
      <trkpt lat="45.64393" lon="4.66274">
        <ele>476</ele>
        <time>2015-04-23T09:20:34Z</time>
      </trkpt>
      <trkpt lat="45.64387" lon="4.66262">
        <ele>476</ele>
        <time>2015-04-23T09:20:40Z</time>
      </trkpt>
      <trkpt lat="45.64384" lon="4.66256">
        <ele>476</ele>
        <time>2015-04-23T09:20:44Z</time>
      </trkpt>
      <trkpt lat="45.64371" lon="4.66247">
        <ele>476</ele>
        <time>2015-04-23T09:20:54Z</time>
      </trkpt>
      <trkpt lat="45.64365" lon="4.66246">
        <ele>475.1</ele>
        <time>2015-04-23T09:21:01Z</time>
      </trkpt>
      <trkpt lat="45.64352" lon="4.66239">
        <ele>474</ele>
        <time>2015-04-23T09:21:09Z</time>
      </trkpt>
      <trkpt lat="45.64349" lon="4.66233">
        <ele>474</ele>
        <time>2015-04-23T09:21:12Z</time>
      </trkpt>
      <trkpt lat="45.64346" lon="4.66227">
        <ele>474</ele>
        <time>2015-04-23T09:21:15Z</time>
      </trkpt>
      <trkpt lat="45.64341" lon="4.66222">
        <ele>473.1</ele>
        <time>2015-04-23T09:21:23Z</time>
      </trkpt>
      <trkpt lat="45.64338" lon="4.66217">
        <ele>470.4</ele>
        <time>2015-04-23T09:21:26Z</time>
      </trkpt>
      <trkpt lat="45.64335" lon="4.66212">
        <ele>470.4</ele>
        <time>2015-04-23T09:21:29Z</time>
      </trkpt>
      <trkpt lat="45.64332" lon="4.66204">
        <ele>469</ele>
        <time>2015-04-23T09:21:33Z</time>
      </trkpt>
      <trkpt lat="45.64329" lon="4.66198">
        <ele>469</ele>
        <time>2015-04-23T09:21:36Z</time>
      </trkpt>
      <trkpt lat="45.64324" lon="4.66191">
        <ele>468</ele>
        <time>2015-04-23T09:21:41Z</time>
      </trkpt>
      <trkpt lat="45.64319" lon="4.66187">
        <ele>468</ele>
        <time>2015-04-23T09:21:44Z</time>
      </trkpt>
      <trkpt lat="45.64311" lon="4.6618">
        <ele>468</ele>
        <time>2015-04-23T09:21:49Z</time>
      </trkpt>
      <trkpt lat="45.64307" lon="4.66176">
        <ele>468</ele>
        <time>2015-04-23T09:21:52Z</time>
      </trkpt>
      <trkpt lat="45.64303" lon="4.66172">
        <ele>468</ele>
        <time>2015-04-23T09:21:55Z</time>
      </trkpt>
      <trkpt lat="45.64299" lon="4.66169">
        <ele>468</ele>
        <time>2015-04-23T09:21:59Z</time>
      </trkpt>
      <trkpt lat="45.64288" lon="4.66156">
        <ele>468</ele>
        <time>2015-04-23T09:22:08Z</time>
      </trkpt>
      <trkpt lat="45.64283" lon="4.66151">
        <ele>468</ele>
        <time>2015-04-23T09:22:12Z</time>
      </trkpt>
      <trkpt lat="45.64279" lon="4.66146">
        <ele>467.5</ele>
        <time>2015-04-23T09:22:16Z</time>
      </trkpt>
      <trkpt lat="45.64271" lon="4.6614">
        <ele>467</ele>
        <time>2015-04-23T09:22:23Z</time>
      </trkpt>
      <trkpt lat="45.64268" lon="4.6613">
        <ele>467</ele>
        <time>2015-04-23T09:22:26Z</time>
      </trkpt>
      <trkpt lat="45.64267" lon="4.66121">
        <ele>467</ele>
        <time>2015-04-23T09:22:28Z</time>
      </trkpt>
      <trkpt lat="45.64262" lon="4.66115">
        <ele>467.5</ele>
        <time>2015-04-23T09:22:31Z</time>
      </trkpt>
      <trkpt lat="45.64258" lon="4.66112">
        <ele>467.5</ele>
        <time>2015-04-23T09:22:34Z</time>
      </trkpt>
      <trkpt lat="45.64248" lon="4.66106">
        <ele>468</ele>
        <time>2015-04-23T09:22:41Z</time>
      </trkpt>
      <trkpt lat="45.64243" lon="4.66103">
        <ele>468</ele>
        <time>2015-04-23T09:22:44Z</time>
      </trkpt>
      <trkpt lat="45.64241" lon="4.66096">
        <ele>468</ele>
        <time>2015-04-23T09:22:48Z</time>
      </trkpt>
      <trkpt lat="45.64241" lon="4.66089">
        <ele>468.5</ele>
        <time>2015-04-23T09:22:50Z</time>
      </trkpt>
      <trkpt lat="45.64237" lon="4.66084">
        <ele>468.5</ele>
        <time>2015-04-23T09:22:52Z</time>
      </trkpt>
      <trkpt lat="45.64232" lon="4.66079">
        <ele>469</ele>
        <time>2015-04-23T09:22:55Z</time>
      </trkpt>
      <trkpt lat="45.64226" lon="4.66076">
        <ele>469</ele>
        <time>2015-04-23T09:22:58Z</time>
      </trkpt>
      <trkpt lat="45.64216" lon="4.66074">
        <ele>470</ele>
        <time>2015-04-23T09:23:06Z</time>
      </trkpt>
      <trkpt lat="45.64211" lon="4.66071">
        <ele>471</ele>
        <time>2015-04-23T09:23:12Z</time>
      </trkpt>
      <trkpt lat="45.64205" lon="4.66061">
        <ele>471</ele>
        <time>2015-04-23T09:23:18Z</time>
      </trkpt>
      <trkpt lat="45.64201" lon="4.66056">
        <ele>471</ele>
        <time>2015-04-23T09:23:21Z</time>
      </trkpt>
      <trkpt lat="45.64196" lon="4.66055">
        <ele>471</ele>
        <time>2015-04-23T09:23:26Z</time>
      </trkpt>
      <trkpt lat="45.64191" lon="4.66054">
        <ele>471</ele>
        <time>2015-04-23T09:23:30Z</time>
      </trkpt>
      <trkpt lat="45.64186" lon="4.66051">
        <ele>471</ele>
        <time>2015-04-23T09:23:33Z</time>
      </trkpt>
      <trkpt lat="45.64181" lon="4.6605">
        <ele>471</ele>
        <time>2015-04-23T09:23:36Z</time>
      </trkpt>
      <trkpt lat="45.64178" lon="4.66044">
        <ele>471</ele>
        <time>2015-04-23T09:23:38Z</time>
      </trkpt>
      <trkpt lat="45.64169" lon="4.66029">
        <ele>469.3</ele>
        <time>2015-04-23T09:23:45Z</time>
      </trkpt>
      <trkpt lat="45.64162" lon="4.66021">
        <ele>468.5</ele>
        <time>2015-04-23T09:23:50Z</time>
      </trkpt>
      <trkpt lat="45.64158" lon="4.66017">
        <ele>468</ele>
        <time>2015-04-23T09:23:54Z</time>
      </trkpt>
      <trkpt lat="45.64151" lon="4.66007">
        <ele>468</ele>
        <time>2015-04-23T09:24:02Z</time>
      </trkpt>
      <trkpt lat="45.64146" lon="4.66003">
        <ele>467.1</ele>
        <time>2015-04-23T09:24:06Z</time>
      </trkpt>
      <trkpt lat="45.64142" lon="4.65997">
        <ele>467</ele>
        <time>2015-04-23T09:24:10Z</time>
      </trkpt>
      <trkpt lat="45.6414" lon="4.65991">
        <ele>467</ele>
        <time>2015-04-23T09:24:12Z</time>
      </trkpt>
      <trkpt lat="45.64136" lon="4.65985">
        <ele>467</ele>
        <time>2015-04-23T09:24:15Z</time>
      </trkpt>
      <trkpt lat="45.64127" lon="4.65981">
        <ele>467</ele>
        <time>2015-04-23T09:24:22Z</time>
      </trkpt>
      <trkpt lat="45.64119" lon="4.65975">
        <ele>466.1</ele>
        <time>2015-04-23T09:24:28Z</time>
      </trkpt>
      <trkpt lat="45.64114" lon="4.65971">
        <ele>466</ele>
        <time>2015-04-23T09:24:31Z</time>
      </trkpt>
      <trkpt lat="45.64101" lon="4.65961">
        <ele>466</ele>
        <time>2015-04-23T09:24:40Z</time>
      </trkpt>
      <trkpt lat="45.64097" lon="4.65956">
        <ele>466</ele>
        <time>2015-04-23T09:24:44Z</time>
      </trkpt>
      <trkpt lat="45.64093" lon="4.65948">
        <ele>465.2</ele>
        <time>2015-04-23T09:24:49Z</time>
      </trkpt>
      <trkpt lat="45.64089" lon="4.65944">
        <ele>465.2</ele>
        <time>2015-04-23T09:24:53Z</time>
      </trkpt>
      <trkpt lat="45.64085" lon="4.6594">
        <ele>465</ele>
        <time>2015-04-23T09:24:57Z</time>
      </trkpt>
      <trkpt lat="45.64078" lon="4.65939">
        <ele>465</ele>
        <time>2015-04-23T09:25:02Z</time>
      </trkpt>
      <trkpt lat="45.64067" lon="4.65938">
        <ele>465</ele>
        <time>2015-04-23T09:25:07Z</time>
      </trkpt>
      <trkpt lat="45.64064" lon="4.65933">
        <ele>465</ele>
        <time>2015-04-23T09:25:09Z</time>
      </trkpt>
      <trkpt lat="45.64061" lon="4.65927">
        <ele>465</ele>
        <time>2015-04-23T09:25:12Z</time>
      </trkpt>
      <trkpt lat="45.64056" lon="4.65916">
        <ele>465</ele>
        <time>2015-04-23T09:25:19Z</time>
      </trkpt>
      <trkpt lat="45.64051" lon="4.65915">
        <ele>465</ele>
        <time>2015-04-23T09:25:26Z</time>
      </trkpt>
      <trkpt lat="45.64047" lon="4.65911">
        <ele>465</ele>
        <time>2015-04-23T09:25:29Z</time>
      </trkpt>
      <trkpt lat="45.64039" lon="4.65901">
        <ele>465</ele>
        <time>2015-04-23T09:25:34Z</time>
      </trkpt>
      <trkpt lat="45.64032" lon="4.65891">
        <ele>464</ele>
        <time>2015-04-23T09:25:39Z</time>
      </trkpt>
      <trkpt lat="45.64022" lon="4.65883">
        <ele>464</ele>
        <time>2015-04-23T09:25:49Z</time>
      </trkpt>
      <trkpt lat="45.64014" lon="4.65876">
        <ele>461.4</ele>
        <time>2015-04-23T09:25:55Z</time>
      </trkpt>
      <trkpt lat="45.64006" lon="4.6587">
        <ele>460</ele>
        <time>2015-04-23T09:26:03Z</time>
      </trkpt>
      <trkpt lat="45.64002" lon="4.65865">
        <ele>460</ele>
        <time>2015-04-23T09:26:07Z</time>
      </trkpt>
      <trkpt lat="45.63999" lon="4.65859">
        <ele>459.1</ele>
        <time>2015-04-23T09:26:09Z</time>
      </trkpt>
      <trkpt lat="45.63995" lon="4.65853">
        <ele>459.1</ele>
        <time>2015-04-23T09:26:12Z</time>
      </trkpt>
      <trkpt lat="45.63984" lon="4.65839">
        <ele>459</ele>
        <time>2015-04-23T09:26:20Z</time>
      </trkpt>
      <trkpt lat="45.63978" lon="4.65829">
        <ele>459</ele>
        <time>2015-04-23T09:26:24Z</time>
      </trkpt>
      <trkpt lat="45.6397" lon="4.65822">
        <ele>459</ele>
        <time>2015-04-23T09:26:31Z</time>
      </trkpt>
      <trkpt lat="45.63965" lon="4.6582">
        <ele>459</ele>
        <time>2015-04-23T09:26:35Z</time>
      </trkpt>
      <trkpt lat="45.63961" lon="4.65816">
        <ele>459</ele>
        <time>2015-04-23T09:26:38Z</time>
      </trkpt>
      <trkpt lat="45.63957" lon="4.65811">
        <ele>460.4</ele>
        <time>2015-04-23T09:26:42Z</time>
      </trkpt>
      <trkpt lat="45.63954" lon="4.65805">
        <ele>461</ele>
        <time>2015-04-23T09:26:47Z</time>
      </trkpt>
      <trkpt lat="45.63951" lon="4.65798">
        <ele>461</ele>
        <time>2015-04-23T09:26:50Z</time>
      </trkpt>
      <trkpt lat="45.63947" lon="4.65794">
        <ele>461</ele>
        <time>2015-04-23T09:26:53Z</time>
      </trkpt>
      <trkpt lat="45.63939" lon="4.65787">
        <ele>461.9</ele>
        <time>2015-04-23T09:26:59Z</time>
      </trkpt>
      <trkpt lat="45.63934" lon="4.65786">
        <ele>462</ele>
        <time>2015-04-23T09:27:03Z</time>
      </trkpt>
      <trkpt lat="45.63921" lon="4.65775">
        <ele>462</ele>
        <time>2015-04-23T09:27:14Z</time>
      </trkpt>
      <trkpt lat="45.63916" lon="4.65772">
        <ele>462.8</ele>
        <time>2015-04-23T09:27:18Z</time>
      </trkpt>
      <trkpt lat="45.63912" lon="4.65767">
        <ele>463</ele>
        <time>2015-04-23T09:27:21Z</time>
      </trkpt>
      <trkpt lat="45.63909" lon="4.65759">
        <ele>463</ele>
        <time>2015-04-23T09:27:24Z</time>
      </trkpt>
      <trkpt lat="45.63908" lon="4.65753">
        <ele>463</ele>
        <time>2015-04-23T09:27:27Z</time>
      </trkpt>
      <trkpt lat="45.63906" lon="4.65746">
        <ele>463</ele>
        <time>2015-04-23T09:27:30Z</time>
      </trkpt>
      <trkpt lat="45.63902" lon="4.65742">
        <ele>463</ele>
        <time>2015-04-23T09:27:34Z</time>
      </trkpt>
      <trkpt lat="45.63898" lon="4.6574">
        <ele>463</ele>
        <time>2015-04-23T09:27:38Z</time>
      </trkpt>
      <trkpt lat="45.63886" lon="4.65728">
        <ele>463.9</ele>
        <time>2015-04-23T09:27:48Z</time>
      </trkpt>
      <trkpt lat="45.63883" lon="4.65722">
        <ele>464</ele>
        <time>2015-04-23T09:27:51Z</time>
      </trkpt>
      <trkpt lat="45.63879" lon="4.65716">
        <ele>464</ele>
        <time>2015-04-23T09:27:54Z</time>
      </trkpt>
      <trkpt lat="45.63875" lon="4.65709">
        <ele>464</ele>
        <time>2015-04-23T09:27:57Z</time>
      </trkpt>
      <trkpt lat="45.63864" lon="4.65697">
        <ele>464</ele>
        <time>2015-04-23T09:28:06Z</time>
      </trkpt>
      <trkpt lat="45.63859" lon="4.65685">
        <ele>464</ele>
        <time>2015-04-23T09:28:12Z</time>
      </trkpt>
      <trkpt lat="45.63857" lon="4.65678">
        <ele>464.9</ele>
        <time>2015-04-23T09:28:15Z</time>
      </trkpt>
      <trkpt lat="45.63854" lon="4.65673">
        <ele>464.9</ele>
        <time>2015-04-23T09:28:18Z</time>
      </trkpt>
      <trkpt lat="45.63849" lon="4.6567">
        <ele>465</ele>
        <time>2015-04-23T09:28:22Z</time>
      </trkpt>
      <trkpt lat="45.63838" lon="4.65668">
        <ele>464.1</ele>
        <time>2015-04-23T09:28:29Z</time>
      </trkpt>
      <trkpt lat="45.63824" lon="4.65663">
        <ele>464</ele>
        <time>2015-04-23T09:28:39Z</time>
      </trkpt>
      <trkpt lat="45.63814" lon="4.65661">
        <ele>463.1</ele>
        <time>2015-04-23T09:28:46Z</time>
      </trkpt>
      <trkpt lat="45.63805" lon="4.65653">
        <ele>463</ele>
        <time>2015-04-23T09:28:51Z</time>
      </trkpt>
      <trkpt lat="45.63794" lon="4.65647">
        <ele>462.1</ele>
        <time>2015-04-23T09:28:57Z</time>
      </trkpt>
      <trkpt lat="45.63786" lon="4.65643">
        <ele>462</ele>
        <time>2015-04-23T09:29:04Z</time>
      </trkpt>
      <trkpt lat="45.63781" lon="4.65642">
        <ele>462</ele>
        <time>2015-04-23T09:29:08Z</time>
      </trkpt>
      <trkpt lat="45.63776" lon="4.65641">
        <ele>462</ele>
        <time>2015-04-23T09:29:12Z</time>
      </trkpt>
      <trkpt lat="45.63766" lon="4.65634">
        <ele>461.5</ele>
        <time>2015-04-23T09:29:19Z</time>
      </trkpt>
      <trkpt lat="45.63755" lon="4.65628">
        <ele>461</ele>
        <time>2015-04-23T09:29:27Z</time>
      </trkpt>
      <trkpt lat="45.6375" lon="4.65629">
        <ele>460.5</ele>
        <time>2015-04-23T09:29:31Z</time>
      </trkpt>
      <trkpt lat="45.63744" lon="4.65626">
        <ele>460.1</ele>
        <time>2015-04-23T09:29:35Z</time>
      </trkpt>
      <trkpt lat="45.6374" lon="4.65621">
        <ele>459.1</ele>
        <time>2015-04-23T09:29:39Z</time>
      </trkpt>
      <trkpt lat="45.63726" lon="4.65618">
        <ele>456.6</ele>
        <time>2015-04-23T09:29:48Z</time>
      </trkpt>
      <trkpt lat="45.63721" lon="4.65617">
        <ele>456</ele>
        <time>2015-04-23T09:29:51Z</time>
      </trkpt>
      <trkpt lat="45.63717" lon="4.65621">
        <ele>456</ele>
        <time>2015-04-23T09:29:54Z</time>
      </trkpt>
      <trkpt lat="45.63708" lon="4.65627">
        <ele>456</ele>
        <time>2015-04-23T09:30:01Z</time>
      </trkpt>
      <trkpt lat="45.63703" lon="4.65629">
        <ele>455</ele>
        <time>2015-04-23T09:30:04Z</time>
      </trkpt>
      <trkpt lat="45.63693" lon="4.65627">
        <ele>455</ele>
        <time>2015-04-23T09:30:10Z</time>
      </trkpt>
      <trkpt lat="45.63688" lon="4.65625">
        <ele>455</ele>
        <time>2015-04-23T09:30:14Z</time>
      </trkpt>
      <trkpt lat="45.63678" lon="4.65619">
        <ele>455</ele>
        <time>2015-04-23T09:30:20Z</time>
      </trkpt>
      <trkpt lat="45.6367" lon="4.65614">
        <ele>454.5</ele>
        <time>2015-04-23T09:30:26Z</time>
      </trkpt>
      <trkpt lat="45.63666" lon="4.6561">
        <ele>454</ele>
        <time>2015-04-23T09:30:30Z</time>
      </trkpt>
      <trkpt lat="45.63661" lon="4.65607">
        <ele>454</ele>
        <time>2015-04-23T09:30:33Z</time>
      </trkpt>
      <trkpt lat="45.63648" lon="4.65606">
        <ele>453</ele>
        <time>2015-04-23T09:30:42Z</time>
      </trkpt>
      <trkpt lat="45.63644" lon="4.65599">
        <ele>452</ele>
        <time>2015-04-23T09:30:47Z</time>
      </trkpt>
      <trkpt lat="45.63639" lon="4.65597">
        <ele>452</ele>
        <time>2015-04-23T09:30:50Z</time>
      </trkpt>
      <trkpt lat="45.63624" lon="4.65596">
        <ele>451.5</ele>
        <time>2015-04-23T09:30:59Z</time>
      </trkpt>
      <trkpt lat="45.63617" lon="4.65596">
        <ele>450.3</ele>
        <time>2015-04-23T09:31:05Z</time>
      </trkpt>
      <trkpt lat="45.63612" lon="4.65593">
        <ele>450.3</ele>
        <time>2015-04-23T09:31:08Z</time>
      </trkpt>
      <trkpt lat="45.63607" lon="4.65589">
        <ele>449.3</ele>
        <time>2015-04-23T09:31:11Z</time>
      </trkpt>
      <trkpt lat="45.63602" lon="4.65587">
        <ele>449.3</ele>
        <time>2015-04-23T09:31:14Z</time>
      </trkpt>
      <trkpt lat="45.63592" lon="4.65585">
        <ele>447.6</ele>
        <time>2015-04-23T09:31:20Z</time>
      </trkpt>
      <trkpt lat="45.6358" lon="4.65584">
        <ele>447</ele>
        <time>2015-04-23T09:31:26Z</time>
      </trkpt>
      <trkpt lat="45.6357" lon="4.65583">
        <ele>444.5</ele>
        <time>2015-04-23T09:31:34Z</time>
      </trkpt>
      <trkpt lat="45.63566" lon="4.6558">
        <ele>442.1</ele>
        <time>2015-04-23T09:31:38Z</time>
      </trkpt>
      <trkpt lat="45.63564" lon="4.65574">
        <ele>442.1</ele>
        <time>2015-04-23T09:31:42Z</time>
      </trkpt>
      <trkpt lat="45.63555" lon="4.65575">
        <ele>440.1</ele>
        <time>2015-04-23T09:31:50Z</time>
      </trkpt>
      <trkpt lat="45.63549" lon="4.6557">
        <ele>439.3</ele>
        <time>2015-04-23T09:31:53Z</time>
      </trkpt>
      <trkpt lat="45.63545" lon="4.65565">
        <ele>439</ele>
        <time>2015-04-23T09:31:56Z</time>
      </trkpt>
      <trkpt lat="45.63534" lon="4.65553">
        <ele>439</ele>
        <time>2015-04-23T09:32:04Z</time>
      </trkpt>
      <trkpt lat="45.63525" lon="4.65547">
        <ele>438</ele>
        <time>2015-04-23T09:32:10Z</time>
      </trkpt>
      <trkpt lat="45.63514" lon="4.65536">
        <ele>438</ele>
        <time>2015-04-23T09:32:16Z</time>
      </trkpt>
      <trkpt lat="45.63509" lon="4.6553">
        <ele>438</ele>
        <time>2015-04-23T09:32:19Z</time>
      </trkpt>
      <trkpt lat="45.63505" lon="4.65528">
        <ele>438</ele>
        <time>2015-04-23T09:32:22Z</time>
      </trkpt>
      <trkpt lat="45.635" lon="4.65526">
        <ele>438</ele>
        <time>2015-04-23T09:32:27Z</time>
      </trkpt>
      <trkpt lat="45.63494" lon="4.65527">
        <ele>438</ele>
        <time>2015-04-23T09:32:33Z</time>
      </trkpt>
      <trkpt lat="45.63482" lon="4.65519">
        <ele>438</ele>
        <time>2015-04-23T09:32:40Z</time>
      </trkpt>
      <trkpt lat="45.6347" lon="4.65509">
        <ele>438</ele>
        <time>2015-04-23T09:32:50Z</time>
      </trkpt>
      <trkpt lat="45.63466" lon="4.65504">
        <ele>438</ele>
        <time>2015-04-23T09:32:53Z</time>
      </trkpt>
      <trkpt lat="45.63462" lon="4.65501">
        <ele>438</ele>
        <time>2015-04-23T09:32:56Z</time>
      </trkpt>
      <trkpt lat="45.63449" lon="4.65494">
        <ele>438</ele>
        <time>2015-04-23T09:33:06Z</time>
      </trkpt>
      <trkpt lat="45.63439" lon="4.6549">
        <ele>437</ele>
        <time>2015-04-23T09:33:13Z</time>
      </trkpt>
      <trkpt lat="45.63426" lon="4.65488">
        <ele>436</ele>
        <time>2015-04-23T09:33:22Z</time>
      </trkpt>
      <trkpt lat="45.63421" lon="4.65486">
        <ele>435.5</ele>
        <time>2015-04-23T09:33:26Z</time>
      </trkpt>
      <trkpt lat="45.63417" lon="4.65488">
        <ele>435.3</ele>
        <time>2015-04-23T09:33:31Z</time>
      </trkpt>
      <trkpt lat="45.63412" lon="4.65487">
        <ele>434.1</ele>
        <time>2015-04-23T09:33:36Z</time>
      </trkpt>
      <trkpt lat="45.63407" lon="4.65484">
        <ele>433</ele>
        <time>2015-04-23T09:33:41Z</time>
      </trkpt>
      <trkpt lat="45.63401" lon="4.65486">
        <ele>433</ele>
        <time>2015-04-23T09:33:46Z</time>
      </trkpt>
      <trkpt lat="45.63396" lon="4.65485">
        <ele>433</ele>
        <time>2015-04-23T09:33:49Z</time>
      </trkpt>
      <trkpt lat="45.6339" lon="4.65482">
        <ele>433</ele>
        <time>2015-04-23T09:33:52Z</time>
      </trkpt>
      <trkpt lat="45.63386" lon="4.65478">
        <ele>433</ele>
        <time>2015-04-23T09:33:55Z</time>
      </trkpt>
      <trkpt lat="45.63381" lon="4.65472">
        <ele>433</ele>
        <time>2015-04-23T09:33:58Z</time>
      </trkpt>
      <trkpt lat="45.63376" lon="4.65469">
        <ele>433</ele>
        <time>2015-04-23T09:34:01Z</time>
      </trkpt>
      <trkpt lat="45.63362" lon="4.65469">
        <ele>433</ele>
        <time>2015-04-23T09:34:13Z</time>
      </trkpt>
      <trkpt lat="45.63358" lon="4.6547">
        <ele>433</ele>
        <time>2015-04-23T09:34:16Z</time>
      </trkpt>
      <trkpt lat="45.63353" lon="4.65468">
        <ele>433</ele>
        <time>2015-04-23T09:34:20Z</time>
      </trkpt>
      <trkpt lat="45.63348" lon="4.65466">
        <ele>432.5</ele>
        <time>2015-04-23T09:34:24Z</time>
      </trkpt>
      <trkpt lat="45.63342" lon="4.65465">
        <ele>432.1</ele>
        <time>2015-04-23T09:34:28Z</time>
      </trkpt>
      <trkpt lat="45.6333" lon="4.65462">
        <ele>432</ele>
        <time>2015-04-23T09:34:36Z</time>
      </trkpt>
      <trkpt lat="45.63321" lon="4.65458">
        <ele>431.1</ele>
        <time>2015-04-23T09:34:40Z</time>
      </trkpt>
      <trkpt lat="45.63316" lon="4.65456">
        <ele>430.1</ele>
        <time>2015-04-23T09:34:43Z</time>
      </trkpt>
      <trkpt lat="45.63312" lon="4.65453">
        <ele>430.1</ele>
        <time>2015-04-23T09:34:46Z</time>
      </trkpt>
      <trkpt lat="45.633" lon="4.65446">
        <ele>429</ele>
        <time>2015-04-23T09:34:54Z</time>
      </trkpt>
      <trkpt lat="45.63289" lon="4.65443">
        <ele>427.5</ele>
        <time>2015-04-23T09:35:02Z</time>
      </trkpt>
      <trkpt lat="45.63279" lon="4.65449">
        <ele>426</ele>
        <time>2015-04-23T09:35:10Z</time>
      </trkpt>
      <trkpt lat="45.63265" lon="4.65444">
        <ele>425.3</ele>
        <time>2015-04-23T09:35:18Z</time>
      </trkpt>
      <trkpt lat="45.63256" lon="4.65447">
        <ele>424.1</ele>
        <time>2015-04-23T09:35:25Z</time>
      </trkpt>
      <trkpt lat="45.63251" lon="4.65445">
        <ele>423.1</ele>
        <time>2015-04-23T09:35:27Z</time>
      </trkpt>
      <trkpt lat="45.63247" lon="4.65446">
        <ele>423.1</ele>
        <time>2015-04-23T09:35:31Z</time>
      </trkpt>
      <trkpt lat="45.63243" lon="4.6545">
        <ele>423</ele>
        <time>2015-04-23T09:35:38Z</time>
      </trkpt>
      <trkpt lat="45.63238" lon="4.65447">
        <ele>423</ele>
        <time>2015-04-23T09:35:41Z</time>
      </trkpt>
      <trkpt lat="45.63233" lon="4.65449">
        <ele>422.5</ele>
        <time>2015-04-23T09:35:45Z</time>
      </trkpt>
      <trkpt lat="45.63227" lon="4.6545">
        <ele>422.1</ele>
        <time>2015-04-23T09:35:49Z</time>
      </trkpt>
      <trkpt lat="45.63217" lon="4.65446">
        <ele>422</ele>
        <time>2015-04-23T09:35:54Z</time>
      </trkpt>
      <trkpt lat="45.63207" lon="4.65442">
        <ele>420.1</ele>
        <time>2015-04-23T09:36:03Z</time>
      </trkpt>
      <trkpt lat="45.63203" lon="4.65438">
        <ele>417.3</ele>
        <time>2015-04-23T09:36:06Z</time>
      </trkpt>
      <trkpt lat="45.63198" lon="4.65434">
        <ele>417.1</ele>
        <time>2015-04-23T09:36:10Z</time>
      </trkpt>
      <trkpt lat="45.63193" lon="4.6543">
        <ele>417</ele>
        <time>2015-04-23T09:36:14Z</time>
      </trkpt>
      <trkpt lat="45.63178" lon="4.65421">
        <ele>415.2</ele>
        <time>2015-04-23T09:36:21Z</time>
      </trkpt>
      <trkpt lat="45.63173" lon="4.65418">
        <ele>414</ele>
        <time>2015-04-23T09:36:23Z</time>
      </trkpt>
      <trkpt lat="45.63168" lon="4.65417">
        <ele>414</ele>
        <time>2015-04-23T09:36:25Z</time>
      </trkpt>
      <trkpt lat="45.63163" lon="4.6542">
        <ele>413.1</ele>
        <time>2015-04-23T09:36:28Z</time>
      </trkpt>
      <trkpt lat="45.6316" lon="4.65425">
        <ele>413</ele>
        <time>2015-04-23T09:36:32Z</time>
      </trkpt>
      <trkpt lat="45.63156" lon="4.65428">
        <ele>413</ele>
        <time>2015-04-23T09:36:39Z</time>
      </trkpt>
      <trkpt lat="45.63151" lon="4.65429">
        <ele>412.1</ele>
        <time>2015-04-23T09:36:45Z</time>
      </trkpt>
      <trkpt lat="45.63146" lon="4.65429">
        <ele>412</ele>
        <time>2015-04-23T09:36:48Z</time>
      </trkpt>
      <trkpt lat="45.63137" lon="4.65425">
        <ele>411.5</ele>
        <time>2015-04-23T09:36:56Z</time>
      </trkpt>
      <trkpt lat="45.63128" lon="4.65423">
        <ele>411</ele>
        <time>2015-04-23T09:37:01Z</time>
      </trkpt>
      <trkpt lat="45.63122" lon="4.65419">
        <ele>411</ele>
        <time>2015-04-23T09:37:04Z</time>
      </trkpt>
      <trkpt lat="45.63117" lon="4.65414">
        <ele>410.3</ele>
        <time>2015-04-23T09:37:07Z</time>
      </trkpt>
      <trkpt lat="45.63112" lon="4.65411">
        <ele>410.3</ele>
        <time>2015-04-23T09:37:10Z</time>
      </trkpt>
      <trkpt lat="45.63106" lon="4.65407">
        <ele>410</ele>
        <time>2015-04-23T09:37:13Z</time>
      </trkpt>
      <trkpt lat="45.63101" lon="4.65405">
        <ele>410</ele>
        <time>2015-04-23T09:37:16Z</time>
      </trkpt>
      <trkpt lat="45.63094" lon="4.654">
        <ele>410</ele>
        <time>2015-04-23T09:37:21Z</time>
      </trkpt>
      <trkpt lat="45.63083" lon="4.65396">
        <ele>409.5</ele>
        <time>2015-04-23T09:37:27Z</time>
      </trkpt>
      <trkpt lat="45.63071" lon="4.65391">
        <ele>409</ele>
        <time>2015-04-23T09:37:32Z</time>
      </trkpt>
      <trkpt lat="45.63062" lon="4.65384">
        <ele>404.1</ele>
        <time>2015-04-23T09:37:37Z</time>
      </trkpt>
      <trkpt lat="45.63057" lon="4.65382">
        <ele>404</ele>
        <time>2015-04-23T09:37:42Z</time>
      </trkpt>
      <trkpt lat="45.63052" lon="4.6538">
        <ele>403.3</ele>
        <time>2015-04-23T09:37:45Z</time>
      </trkpt>
      <trkpt lat="45.63047" lon="4.6538">
        <ele>403.3</ele>
        <time>2015-04-23T09:37:48Z</time>
      </trkpt>
      <trkpt lat="45.63035" lon="4.65384">
        <ele>401</ele>
        <time>2015-04-23T09:37:59Z</time>
      </trkpt>
      <trkpt lat="45.63024" lon="4.65385">
        <ele>399.1</ele>
        <time>2015-04-23T09:38:08Z</time>
      </trkpt>
      <trkpt lat="45.63011" lon="4.65391">
        <ele>396.3</ele>
        <time>2015-04-23T09:38:21Z</time>
      </trkpt>
      <trkpt lat="45.63006" lon="4.65389">
        <ele>395.1</ele>
        <time>2015-04-23T09:38:26Z</time>
      </trkpt>
      <trkpt lat="45.62993" lon="4.65381">
        <ele>394</ele>
        <time>2015-04-23T09:38:36Z</time>
      </trkpt>
      <trkpt lat="45.62988" lon="4.65377">
        <ele>394</ele>
        <time>2015-04-23T09:38:39Z</time>
      </trkpt>
      <trkpt lat="45.62978" lon="4.65379">
        <ele>392.6</ele>
        <time>2015-04-23T09:38:46Z</time>
      </trkpt>
      <trkpt lat="45.62967" lon="4.65385">
        <ele>390.6</ele>
        <time>2015-04-23T09:38:51Z</time>
      </trkpt>
      <trkpt lat="45.6296" lon="4.65389">
        <ele>390</ele>
        <time>2015-04-23T09:38:55Z</time>
      </trkpt>
      <trkpt lat="45.62955" lon="4.65389">
        <ele>390</ele>
        <time>2015-04-23T09:38:58Z</time>
      </trkpt>
      <trkpt lat="45.6295" lon="4.65389">
        <ele>390</ele>
        <time>2015-04-23T09:39:01Z</time>
      </trkpt>
      <trkpt lat="45.62945" lon="4.6539">
        <ele>390</ele>
        <time>2015-04-23T09:39:04Z</time>
      </trkpt>
      <trkpt lat="45.62941" lon="4.65395">
        <ele>389.1</ele>
        <time>2015-04-23T09:39:09Z</time>
      </trkpt>
      <trkpt lat="45.62933" lon="4.65405">
        <ele>389</ele>
        <time>2015-04-23T09:39:17Z</time>
      </trkpt>
      <trkpt lat="45.62924" lon="4.65409">
        <ele>387.5</ele>
        <time>2015-04-23T09:39:25Z</time>
      </trkpt>
      <trkpt lat="45.6292" lon="4.65413">
        <ele>384.8</ele>
        <time>2015-04-23T09:39:28Z</time>
      </trkpt>
      <trkpt lat="45.62916" lon="4.65414">
        <ele>384.1</ele>
        <time>2015-04-23T09:39:31Z</time>
      </trkpt>
      <trkpt lat="45.6291" lon="4.65414">
        <ele>383.3</ele>
        <time>2015-04-23T09:39:34Z</time>
      </trkpt>
      <trkpt lat="45.62897" lon="4.65413">
        <ele>381</ele>
        <time>2015-04-23T09:39:46Z</time>
      </trkpt>
      <trkpt lat="45.62889" lon="4.6542">
        <ele>381</ele>
        <time>2015-04-23T09:39:53Z</time>
      </trkpt>
      <trkpt lat="45.62881" lon="4.65428">
        <ele>380</ele>
        <time>2015-04-23T09:40:03Z</time>
      </trkpt>
      <trkpt lat="45.62876" lon="4.65431">
        <ele>380</ele>
        <time>2015-04-23T09:40:06Z</time>
      </trkpt>
      <trkpt lat="45.62866" lon="4.65433">
        <ele>379.1</ele>
        <time>2015-04-23T09:40:15Z</time>
      </trkpt>
      <trkpt lat="45.62859" lon="4.65424">
        <ele>379</ele>
        <time>2015-04-23T09:40:25Z</time>
      </trkpt>
      <trkpt lat="45.62855" lon="4.6542">
        <ele>379</ele>
        <time>2015-04-23T09:40:28Z</time>
      </trkpt>
      <trkpt lat="45.6285" lon="4.65417">
        <ele>379</ele>
        <time>2015-04-23T09:40:31Z</time>
      </trkpt>
      <trkpt lat="45.62846" lon="4.65412">
        <ele>379</ele>
        <time>2015-04-23T09:40:37Z</time>
      </trkpt>
      <trkpt lat="45.62839" lon="4.65404">
        <ele>379</ele>
        <time>2015-04-23T09:40:45Z</time>
      </trkpt>
      <trkpt lat="45.62834" lon="4.65399">
        <ele>379</ele>
        <time>2015-04-23T09:40:51Z</time>
      </trkpt>
      <trkpt lat="45.62825" lon="4.65392">
        <ele>379.5</ele>
        <time>2015-04-23T09:41:00Z</time>
      </trkpt>
      <trkpt lat="45.62821" lon="4.65388">
        <ele>380</ele>
        <time>2015-04-23T09:41:06Z</time>
      </trkpt>
      <trkpt lat="45.62816" lon="4.65385">
        <ele>380.7</ele>
        <time>2015-04-23T09:41:10Z</time>
      </trkpt>
      <trkpt lat="45.62812" lon="4.6538">
        <ele>381.9</ele>
        <time>2015-04-23T09:41:13Z</time>
      </trkpt>
      <trkpt lat="45.62807" lon="4.65373">
        <ele>382.5</ele>
        <time>2015-04-23T09:41:17Z</time>
      </trkpt>
      <trkpt lat="45.62804" lon="4.65368">
        <ele>382.5</ele>
        <time>2015-04-23T09:41:21Z</time>
      </trkpt>
      <trkpt lat="45.62801" lon="4.65363">
        <ele>383</ele>
        <time>2015-04-23T09:41:26Z</time>
      </trkpt>
      <trkpt lat="45.62797" lon="4.65362">
        <ele>383.9</ele>
        <time>2015-04-23T09:41:31Z</time>
      </trkpt>
      <trkpt lat="45.62787" lon="4.65358">
        <ele>384</ele>
        <time>2015-04-23T09:41:39Z</time>
      </trkpt>
      <trkpt lat="45.6278" lon="4.65355">
        <ele>384</ele>
        <time>2015-04-23T09:41:44Z</time>
      </trkpt>
      <trkpt lat="45.62776" lon="4.65351">
        <ele>384.8</ele>
        <time>2015-04-23T09:41:48Z</time>
      </trkpt>
      <trkpt lat="45.62772" lon="4.65339">
        <ele>385</ele>
        <time>2015-04-23T09:41:53Z</time>
      </trkpt>
      <trkpt lat="45.62768" lon="4.65333">
        <ele>385</ele>
        <time>2015-04-23T09:41:55Z</time>
      </trkpt>
      <trkpt lat="45.62764" lon="4.65325">
        <ele>385</ele>
        <time>2015-04-23T09:41:58Z</time>
      </trkpt>
      <trkpt lat="45.62756" lon="4.65317">
        <ele>385.5</ele>
        <time>2015-04-23T09:42:03Z</time>
      </trkpt>
      <trkpt lat="45.62751" lon="4.65314">
        <ele>386</ele>
        <time>2015-04-23T09:42:08Z</time>
      </trkpt>
      <trkpt lat="45.62746" lon="4.65311">
        <ele>386.5</ele>
        <time>2015-04-23T09:42:12Z</time>
      </trkpt>
      <trkpt lat="45.62737" lon="4.653">
        <ele>387</ele>
        <time>2015-04-23T09:42:19Z</time>
      </trkpt>
      <trkpt lat="45.62729" lon="4.65291">
        <ele>388</ele>
        <time>2015-04-23T09:42:26Z</time>
      </trkpt>
      <trkpt lat="45.62724" lon="4.65289">
        <ele>388.5</ele>
        <time>2015-04-23T09:42:33Z</time>
      </trkpt>
      <trkpt lat="45.6272" lon="4.65284">
        <ele>389</ele>
        <time>2015-04-23T09:42:38Z</time>
      </trkpt>
      <trkpt lat="45.62711" lon="4.65278">
        <ele>390</ele>
        <time>2015-04-23T09:42:49Z</time>
      </trkpt>
      <trkpt lat="45.62702" lon="4.65264">
        <ele>390</ele>
        <time>2015-04-23T09:42:58Z</time>
      </trkpt>
      <trkpt lat="45.62701" lon="4.65257">
        <ele>390</ele>
        <time>2015-04-23T09:43:03Z</time>
      </trkpt>
      <trkpt lat="45.62699" lon="4.65252">
        <ele>390</ele>
        <time>2015-04-23T09:43:07Z</time>
      </trkpt>
      <trkpt lat="45.62692" lon="4.65243">
        <ele>390</ele>
        <time>2015-04-23T09:43:15Z</time>
      </trkpt>
      <trkpt lat="45.62689" lon="4.65237">
        <ele>390</ele>
        <time>2015-04-23T09:43:18Z</time>
      </trkpt>
      <trkpt lat="45.62686" lon="4.65231">
        <ele>391</ele>
        <time>2015-04-23T09:43:21Z</time>
      </trkpt>
      <trkpt lat="45.62682" lon="4.65225">
        <ele>391</ele>
        <time>2015-04-23T09:43:25Z</time>
      </trkpt>
      <trkpt lat="45.62675" lon="4.65215">
        <ele>391.5</ele>
        <time>2015-04-23T09:43:33Z</time>
      </trkpt>
      <trkpt lat="45.62671" lon="4.65212">
        <ele>392.7</ele>
        <time>2015-04-23T09:43:41Z</time>
      </trkpt>
      <trkpt lat="45.62664" lon="4.65202">
        <ele>394</ele>
        <time>2015-04-23T09:43:49Z</time>
      </trkpt>
      <trkpt lat="45.62661" lon="4.65195">
        <ele>394</ele>
        <time>2015-04-23T09:43:54Z</time>
      </trkpt>
      <trkpt lat="45.62659" lon="4.65188">
        <ele>394</ele>
        <time>2015-04-23T09:43:57Z</time>
      </trkpt>
      <trkpt lat="45.62655" lon="4.6518">
        <ele>394</ele>
        <time>2015-04-23T09:44:00Z</time>
      </trkpt>
      <trkpt lat="45.62652" lon="4.65175">
        <ele>394</ele>
        <time>2015-04-23T09:44:04Z</time>
      </trkpt>
      <trkpt lat="45.62648" lon="4.65169">
        <ele>394.9</ele>
        <time>2015-04-23T09:44:08Z</time>
      </trkpt>
      <trkpt lat="45.62646" lon="4.65163">
        <ele>394.9</ele>
        <time>2015-04-23T09:44:11Z</time>
      </trkpt>
      <trkpt lat="45.62637" lon="4.65148">
        <ele>395</ele>
        <time>2015-04-23T09:44:19Z</time>
      </trkpt>
      <trkpt lat="45.62634" lon="4.65141">
        <ele>395.7</ele>
        <time>2015-04-23T09:44:24Z</time>
      </trkpt>
      <trkpt lat="45.62632" lon="4.65135">
        <ele>396</ele>
        <time>2015-04-23T09:44:27Z</time>
      </trkpt>
      <trkpt lat="45.62628" lon="4.65129">
        <ele>396</ele>
        <time>2015-04-23T09:44:30Z</time>
      </trkpt>
      <trkpt lat="45.62622" lon="4.6512">
        <ele>396</ele>
        <time>2015-04-23T09:44:36Z</time>
      </trkpt>
      <trkpt lat="45.62616" lon="4.65105">
        <ele>398</ele>
        <time>2015-04-23T09:44:43Z</time>
      </trkpt>
      <trkpt lat="45.6261" lon="4.65093">
        <ele>398.7</ele>
        <time>2015-04-23T09:44:49Z</time>
      </trkpt>
      <trkpt lat="45.62607" lon="4.65087">
        <ele>399</ele>
        <time>2015-04-23T09:44:52Z</time>
      </trkpt>
      <trkpt lat="45.62603" lon="4.65083">
        <ele>399.9</ele>
        <time>2015-04-23T09:44:56Z</time>
      </trkpt>
      <trkpt lat="45.62599" lon="4.6508">
        <ele>401</ele>
        <time>2015-04-23T09:45:05Z</time>
      </trkpt>
      <trkpt lat="45.62595" lon="4.65072">
        <ele>401.5</ele>
        <time>2015-04-23T09:45:10Z</time>
      </trkpt>
      <trkpt lat="45.62589" lon="4.65055">
        <ele>404.5</ele>
        <time>2015-04-23T09:45:24Z</time>
      </trkpt>
      <trkpt lat="45.62585" lon="4.65048">
        <ele>405.7</ele>
        <time>2015-04-23T09:45:28Z</time>
      </trkpt>
      <trkpt lat="45.6258" lon="4.65037">
        <ele>406</ele>
        <time>2015-04-23T09:45:38Z</time>
      </trkpt>
      <trkpt lat="45.62575" lon="4.65025">
        <ele>406</ele>
        <time>2015-04-23T09:45:44Z</time>
      </trkpt>
      <trkpt lat="45.62574" lon="4.65018">
        <ele>406</ele>
        <time>2015-04-23T09:45:48Z</time>
      </trkpt>
      <trkpt lat="45.62574" lon="4.6501">
        <ele>406</ele>
        <time>2015-04-23T09:45:51Z</time>
      </trkpt>
      <trkpt lat="45.62572" lon="4.65001">
        <ele>406</ele>
        <time>2015-04-23T09:45:53Z</time>
      </trkpt>
      <trkpt lat="45.62565" lon="4.64986">
        <ele>406</ele>
        <time>2015-04-23T09:46:00Z</time>
      </trkpt>
      <trkpt lat="45.62553" lon="4.64974">
        <ele>406</ele>
        <time>2015-04-23T09:46:11Z</time>
      </trkpt>
      <trkpt lat="45.62546" lon="4.64967">
        <ele>406</ele>
        <time>2015-04-23T09:46:22Z</time>
      </trkpt>
      <trkpt lat="45.62545" lon="4.64961">
        <ele>407.7</ele>
        <time>2015-04-23T09:46:25Z</time>
      </trkpt>
      <trkpt lat="45.62541" lon="4.64954">
        <ele>407.7</ele>
        <time>2015-04-23T09:46:28Z</time>
      </trkpt>
      <trkpt lat="45.62532" lon="4.64939">
        <ele>409</ele>
        <time>2015-04-23T09:46:39Z</time>
      </trkpt>
      <trkpt lat="45.62528" lon="4.64933">
        <ele>410.5</ele>
        <time>2015-04-23T09:46:50Z</time>
      </trkpt>
      <trkpt lat="45.62522" lon="4.64923">
        <ele>411</ele>
        <time>2015-04-23T09:46:55Z</time>
      </trkpt>
      <trkpt lat="45.62517" lon="4.64918">
        <ele>412.7</ele>
        <time>2015-04-23T09:46:59Z</time>
      </trkpt>
      <trkpt lat="45.62512" lon="4.64913">
        <ele>413</ele>
        <time>2015-04-23T09:47:05Z</time>
      </trkpt>
      <trkpt lat="45.62509" lon="4.64909">
        <ele>414</ele>
        <time>2015-04-23T09:47:12Z</time>
      </trkpt>
      <trkpt lat="45.62504" lon="4.64898">
        <ele>415</ele>
        <time>2015-04-23T09:47:19Z</time>
      </trkpt>
      <trkpt lat="45.62497" lon="4.64886">
        <ele>415</ele>
        <time>2015-04-23T09:47:25Z</time>
      </trkpt>
      <trkpt lat="45.62491" lon="4.64875">
        <ele>415</ele>
        <time>2015-04-23T09:47:31Z</time>
      </trkpt>
      <trkpt lat="45.62482" lon="4.64869">
        <ele>416</ele>
        <time>2015-04-23T09:47:39Z</time>
      </trkpt>
      <trkpt lat="45.62478" lon="4.64866">
        <ele>416</ele>
        <time>2015-04-23T09:47:43Z</time>
      </trkpt>
      <trkpt lat="45.62473" lon="4.64866">
        <ele>417.7</ele>
        <time>2015-04-23T09:47:48Z</time>
      </trkpt>
      <trkpt lat="45.6247" lon="4.64861">
        <ele>417.7</ele>
        <time>2015-04-23T09:47:51Z</time>
      </trkpt>
      <trkpt lat="45.62461" lon="4.64845">
        <ele>419</ele>
        <time>2015-04-23T09:47:59Z</time>
      </trkpt>
      <trkpt lat="45.62457" lon="4.6484">
        <ele>419.9</ele>
        <time>2015-04-23T09:48:03Z</time>
      </trkpt>
      <trkpt lat="45.62454" lon="4.64833">
        <ele>420</ele>
        <time>2015-04-23T09:48:09Z</time>
      </trkpt>
      <trkpt lat="45.6245" lon="4.64828">
        <ele>420</ele>
        <time>2015-04-23T09:48:15Z</time>
      </trkpt>
      <trkpt lat="45.62446" lon="4.64823">
        <ele>423.9</ele>
        <time>2015-04-23T09:48:21Z</time>
      </trkpt>
      <trkpt lat="45.62443" lon="4.64817">
        <ele>423.9</ele>
        <time>2015-04-23T09:48:24Z</time>
      </trkpt>
      <trkpt lat="45.62435" lon="4.64808">
        <ele>425.5</ele>
        <time>2015-04-23T09:48:38Z</time>
      </trkpt>
      <trkpt lat="45.62428" lon="4.64796">
        <ele>426</ele>
        <time>2015-04-23T09:48:50Z</time>
      </trkpt>
      <trkpt lat="45.62424" lon="4.64793">
        <ele>426.5</ele>
        <time>2015-04-23T09:48:55Z</time>
      </trkpt>
      <trkpt lat="45.62416" lon="4.64784">
        <ele>427</ele>
        <time>2015-04-23T09:49:02Z</time>
      </trkpt>
      <trkpt lat="45.62412" lon="4.64779">
        <ele>427</ele>
        <time>2015-04-23T09:49:07Z</time>
      </trkpt>
      <trkpt lat="45.62405" lon="4.64769">
        <ele>427</ele>
        <time>2015-04-23T09:49:16Z</time>
      </trkpt>
      <trkpt lat="45.624" lon="4.64758">
        <ele>427</ele>
        <time>2015-04-23T09:49:21Z</time>
      </trkpt>
      <trkpt lat="45.62395" lon="4.64753">
        <ele>427.9</ele>
        <time>2015-04-23T09:49:27Z</time>
      </trkpt>
      <trkpt lat="45.62392" lon="4.64747">
        <ele>427.9</ele>
        <time>2015-04-23T09:49:31Z</time>
      </trkpt>
      <trkpt lat="45.62389" lon="4.6474">
        <ele>428</ele>
        <time>2015-04-23T09:49:37Z</time>
      </trkpt>
      <trkpt lat="45.62382" lon="4.64722">
        <ele>429.7</ele>
        <time>2015-04-23T09:49:48Z</time>
      </trkpt>
      <trkpt lat="45.62379" lon="4.64708">
        <ele>431.9</ele>
        <time>2015-04-23T09:49:56Z</time>
      </trkpt>
      <trkpt lat="45.62376" lon="4.64702">
        <ele>433.7</ele>
        <time>2015-04-23T09:50:00Z</time>
      </trkpt>
      <trkpt lat="45.62374" lon="4.64691">
        <ele>438.4</ele>
        <time>2015-04-23T09:50:07Z</time>
      </trkpt>
      <trkpt lat="45.62371" lon="4.64685">
        <ele>438.9</ele>
        <time>2015-04-23T09:50:12Z</time>
      </trkpt>
      <trkpt lat="45.62371" lon="4.64678">
        <ele>439.9</ele>
        <time>2015-04-23T09:50:16Z</time>
      </trkpt>
      <trkpt lat="45.62366" lon="4.64667">
        <ele>440</ele>
        <time>2015-04-23T09:50:22Z</time>
      </trkpt>
      <trkpt lat="45.62361" lon="4.64659">
        <ele>441</ele>
        <time>2015-04-23T09:50:28Z</time>
      </trkpt>
      <trkpt lat="45.62357" lon="4.64652">
        <ele>441</ele>
        <time>2015-04-23T09:50:32Z</time>
      </trkpt>
      <trkpt lat="45.62351" lon="4.64642">
        <ele>441</ele>
        <time>2015-04-23T09:50:37Z</time>
      </trkpt>
      <trkpt lat="45.62348" lon="4.64637">
        <ele>442</ele>
        <time>2015-04-23T09:50:41Z</time>
      </trkpt>
      <trkpt lat="45.6234" lon="4.64631">
        <ele>443.4</ele>
        <time>2015-04-23T09:50:50Z</time>
      </trkpt>
      <trkpt lat="45.62334" lon="4.6462">
        <ele>445</ele>
        <time>2015-04-23T09:50:58Z</time>
      </trkpt>
      <trkpt lat="45.6233" lon="4.64605">
        <ele>447</ele>
        <time>2015-04-23T09:51:13Z</time>
      </trkpt>
      <trkpt lat="45.62329" lon="4.64596">
        <ele>447</ele>
        <time>2015-04-23T09:51:15Z</time>
      </trkpt>
      <trkpt lat="45.62328" lon="4.64582">
        <ele>447</ele>
        <time>2015-04-23T09:51:18Z</time>
      </trkpt>
      <trkpt lat="45.62327" lon="4.64575">
        <ele>447.9</ele>
        <time>2015-04-23T09:51:20Z</time>
      </trkpt>
      <trkpt lat="45.62325" lon="4.64567">
        <ele>447.9</ele>
        <time>2015-04-23T09:51:23Z</time>
      </trkpt>
      <trkpt lat="45.62317" lon="4.64551">
        <ele>448</ele>
        <time>2015-04-23T09:51:33Z</time>
      </trkpt>
      <trkpt lat="45.62314" lon="4.64531">
        <ele>448</ele>
        <time>2015-04-23T09:51:45Z</time>
      </trkpt>
      <trkpt lat="45.62313" lon="4.64524">
        <ele>448</ele>
        <time>2015-04-23T09:51:49Z</time>
      </trkpt>
      <trkpt lat="45.6231" lon="4.64518">
        <ele>448.5</ele>
        <time>2015-04-23T09:51:55Z</time>
      </trkpt>
      <trkpt lat="45.62308" lon="4.64511">
        <ele>448.9</ele>
        <time>2015-04-23T09:52:00Z</time>
      </trkpt>
      <trkpt lat="45.62309" lon="4.64485">
        <ele>449.5</ele>
        <time>2015-04-23T09:52:06Z</time>
      </trkpt>
      <trkpt lat="45.62311" lon="4.64462">
        <ele>449.5</ele>
        <time>2015-04-23T09:52:07Z</time>
      </trkpt>
      <trkpt lat="45.62321" lon="4.64465">
        <ele>450</ele>
        <time>2015-04-23T09:52:11Z</time>
      </trkpt>
      <trkpt lat="45.62318" lon="4.64452">
        <ele>450.9</ele>
        <time>2015-04-23T09:52:25Z</time>
      </trkpt>
      <trkpt lat="45.62311" lon="4.64443">
        <ele>454.3</ele>
        <time>2015-04-23T09:52:31Z</time>
      </trkpt>
      <trkpt lat="45.62312" lon="4.64436">
        <ele>455.9</ele>
        <time>2015-04-23T09:52:40Z</time>
      </trkpt>
      <trkpt lat="45.62312" lon="4.64424">
        <ele>456</ele>
        <time>2015-04-23T09:52:48Z</time>
      </trkpt>
      <trkpt lat="45.62312" lon="4.64416">
        <ele>456</ele>
        <time>2015-04-23T09:52:53Z</time>
      </trkpt>
      <trkpt lat="45.62312" lon="4.64408">
        <ele>456</ele>
        <time>2015-04-23T09:52:56Z</time>
      </trkpt>
      <trkpt lat="45.62312" lon="4.64395">
        <ele>457</ele>
        <time>2015-04-23T09:53:03Z</time>
      </trkpt>
      <trkpt lat="45.62315" lon="4.64381">
        <ele>458</ele>
        <time>2015-04-23T09:53:12Z</time>
      </trkpt>
      <trkpt lat="45.62315" lon="4.64374">
        <ele>458</ele>
        <time>2015-04-23T09:53:19Z</time>
      </trkpt>
      <trkpt lat="45.62317" lon="4.64366">
        <ele>458</ele>
        <time>2015-04-23T09:53:25Z</time>
      </trkpt>
      <trkpt lat="45.62319" lon="4.6436">
        <ele>459</ele>
        <time>2015-04-23T09:53:29Z</time>
      </trkpt>
      <trkpt lat="45.62316" lon="4.64353">
        <ele>459</ele>
        <time>2015-04-23T09:53:36Z</time>
      </trkpt>
      <trkpt lat="45.62313" lon="4.64348">
        <ele>459</ele>
        <time>2015-04-23T09:53:41Z</time>
      </trkpt>
      <trkpt lat="45.62311" lon="4.64341">
        <ele>459</ele>
        <time>2015-04-23T09:53:46Z</time>
      </trkpt>
      <trkpt lat="45.6231" lon="4.64334">
        <ele>460</ele>
        <time>2015-04-23T09:53:51Z</time>
      </trkpt>
      <trkpt lat="45.62311" lon="4.64327">
        <ele>460</ele>
        <time>2015-04-23T09:53:55Z</time>
      </trkpt>
      <trkpt lat="45.62309" lon="4.6432">
        <ele>460</ele>
        <time>2015-04-23T09:53:59Z</time>
      </trkpt>
      <trkpt lat="45.623" lon="4.64304">
        <ele>460</ele>
        <time>2015-04-23T09:54:07Z</time>
      </trkpt>
      <trkpt lat="45.62298" lon="4.64297">
        <ele>460</ele>
        <time>2015-04-23T09:54:12Z</time>
      </trkpt>
      <trkpt lat="45.62298" lon="4.6429">
        <ele>460</ele>
        <time>2015-04-23T09:54:15Z</time>
      </trkpt>
      <trkpt lat="45.62296" lon="4.64283">
        <ele>460</ele>
        <time>2015-04-23T09:54:19Z</time>
      </trkpt>
      <trkpt lat="45.62294" lon="4.64277">
        <ele>460</ele>
        <time>2015-04-23T09:54:24Z</time>
      </trkpt>
      <trkpt lat="45.62292" lon="4.64269">
        <ele>460</ele>
        <time>2015-04-23T09:54:31Z</time>
      </trkpt>
      <trkpt lat="45.62288" lon="4.64257">
        <ele>462</ele>
        <time>2015-04-23T09:54:39Z</time>
      </trkpt>
      <trkpt lat="45.6229" lon="4.64242">
        <ele>466.9</ele>
        <time>2015-04-23T09:54:48Z</time>
      </trkpt>
      <trkpt lat="45.62286" lon="4.64229">
        <ele>467</ele>
        <time>2015-04-23T09:54:54Z</time>
      </trkpt>
      <trkpt lat="45.62283" lon="4.64215">
        <ele>469</ele>
        <time>2015-04-23T09:55:01Z</time>
      </trkpt>
      <trkpt lat="45.62278" lon="4.64201">
        <ele>470</ele>
        <time>2015-04-23T09:55:12Z</time>
      </trkpt>
      <trkpt lat="45.62276" lon="4.64195">
        <ele>470</ele>
        <time>2015-04-23T09:55:16Z</time>
      </trkpt>
      <trkpt lat="45.62274" lon="4.64202">
        <ele>472</ele>
        <time>2015-04-23T09:55:30Z</time>
      </trkpt>
      <trkpt lat="45.62267" lon="4.64202">
        <ele>473</ele>
        <time>2015-04-23T09:55:43Z</time>
      </trkpt>
      <trkpt lat="45.62263" lon="4.642">
        <ele>474</ele>
        <time>2015-04-23T09:55:46Z</time>
      </trkpt>
      <trkpt lat="45.62258" lon="4.64195">
        <ele>474</ele>
        <time>2015-04-23T09:55:50Z</time>
      </trkpt>
      <trkpt lat="45.62252" lon="4.64176">
        <ele>474.8</ele>
        <time>2015-04-23T09:56:03Z</time>
      </trkpt>
      <trkpt lat="45.62245" lon="4.64158">
        <ele>477</ele>
        <time>2015-04-23T09:56:13Z</time>
      </trkpt>
      <trkpt lat="45.62242" lon="4.64148">
        <ele>477</ele>
        <time>2015-04-23T09:56:19Z</time>
      </trkpt>
      <trkpt lat="45.62239" lon="4.64136">
        <ele>477</ele>
        <time>2015-04-23T09:56:24Z</time>
      </trkpt>
      <trkpt lat="45.62241" lon="4.6413">
        <ele>477</ele>
        <time>2015-04-23T09:56:28Z</time>
      </trkpt>
      <trkpt lat="45.62234" lon="4.64119">
        <ele>480</ele>
        <time>2015-04-23T09:56:56Z</time>
      </trkpt>
      <trkpt lat="45.6223" lon="4.64111">
        <ele>488</ele>
        <time>2015-04-23T09:57:00Z</time>
      </trkpt>
      <trkpt lat="45.6223" lon="4.64111">
        <ele>480.3</ele>
        <time>2015-04-23T09:57:00Z</time>
      </trkpt>
      <trkpt lat="45.6223" lon="4.64111">
        <ele>480.3</ele>
        <time>2015-04-23T09:57:01Z</time>
      </trkpt>
    </trkseg>
  </trk>
</gpx>